[[{"header":{"parameterUnit":"m.s-1","parameterCategory":1,"la1":30.6,"la2":28.766,"lo1":-90.7593,"lo2":-88.6598,"dy":0.0162,"dx":0.0183,"nx":116,"ny":114,"refTime":"2023-03-20T18:00:00:Z","depth":0,"parameterNumber":2,"parameterNumberName":"U-component_of_WINDS"},"data":[0.0,0.0,0.0,0.0,0.0,0.0,0.0,0.0,0.0,0.0,0.0,0.0,0.0,0.0,0.0,0.0,0.0,0.0,0.0,0.0,0.0,0.0,0.0,0.0,0.0,0.0,0.0,0.0,0.0,0.0,0.0,0.0,0.0,0.0,0.0,0.0,0.0,0.0,0.0,0.0,0.0,0.0,0.0,0.0,0.0,0.0,0.0,0.0,0.0,0.0,0.0,0.0,0.0,0.0,0.0,0.0,0.0,0.0,0.0,0.0,0.0,0.0,0.0,0.0,0.0,0.0,0.0,0.0,0.0,0.0,0.0,0.0,0.0,0.0,0.0,0.0,0.0,0.0,0.0,0.0,0.0,0.0,0.0,0.0,0.0,0.0,0.0,0.0,0.0,0.0,0.0,0.0,0.0,0.0,0.0,0.0,0.0,0.0,0.0,0.0,0.0,0.0,0.0,0.0,0.0,0.0,0.0,0.0,0.0,0.0,0.0,0.0,0.0,0.0,0.0,0.0,0.0,0.0,0.0,0.0,0.0,0.0,0.0,0.0,0.0,0.0,0.0,0.0,0.0,0.0,0.0,0.0,0.0,0.0,0.0,0.0,0.0,0.0,0.0,0.0,0.0,0.0,0.0,0.0,0.0,0.0,0.0,0.0,0.0,0.0,0.0,0.0,0.0,0.0,0.0,0.0,0.0,0.0,0.0,0.0,0.0,0.0,0.0,0.0,0.0,0.0,0.0,0.0,0.0,0.0,0.0,0.0,0.0,0.0,0.0,0.0,0.0,0.0,0.0,0.0,0.0,0.0,0.0,0.0,0.0,0.0,0.0,0.0,0.0,0.0,0.0,0.0,0.0,0.0,0.0,0.0,0.0,0.0,0.0,0.0,0.0,0.0,0.0,0.0,0.0,0.0,0.0,0.0,0.0,0.0,0.0,0.0,0.0,0.0,0.0,0.0,0.0,0.0,0.0,0.0,0.0,0.0,0.0,0.0,0.0,0.0,0.0,0.0,0.0,0.0,0.0,0.0,0.0,0.0,0.0,0.0,0.0,0.0,0.0,0.0,0.0,0.0,0.0,0.0,0.0,0.0,0.0,0.0,0.0,0.0,0.0,0.0,0.0,0.0,0.0,0.0,0.0,0.0,0.0,0.0,0.0,0.0,0.0,0.0,0.0,0.0,0.0,0.0,0.0,0.0,0.0,0.0,0.0,0.0,0.0,0.0,0.0,0.0,0.0,0.0,0.0,0.0,0.0,0.0,0.0,0.0,0.0,0.0,0.0,0.0,0.0,0.0,0.0,0.0,0.0,0.0,0.0,0.0,0.0,0.0,0.0,0.0,0.0,0.0,0.0,0.0,0.0,0.0,0.0,0.0,0.0,0.0,0.0,0.0,0.0,0.0,0.0,0.0,0.0,0.0,0.0,0.0,0.0,0.0,0.0,0.0,0.0,0.0,0.0,0.0,0.0,0.0,0.0,0.0,0.0,0.0,0.0,0.0,0.0,0.0,0.0,0.0,0.0,0.0,0.0,0.0,0.0,0.0,0.0,0.0,0.0,0.0,0.0,0.0,0.0,0.0,0.0,0.0,0.0,0.0,0.0,0.0,0.0,0.0,0.0,0.0,0.0,0.0,0.0,0.0,0.0,0.0,0.0,0.0,0.0,0.0,0.0,0.0,0.0,0.0,0.0,0.0,0.0,0.0,0.0,0.0,0.0,0.0,0.0,0.0,0.0,0.0,0.0,0.0,0.0,0.0,0.0,0.0,0.0,0.0,0.0,0.0,0.0,0.0,0.0,0.0,0.0,0.0,0.0,0.0,0.0,0.0,0.0,0.0,0.0,0.0,0.0,0.0,0.0,0.0,0.0,0.0,0.0,0.0,0.0,0.0,0.0,0.0,0.0,0.0,0.0,0.0,0.0,0.0,0.0,0.0,0.0,0.0,0.0,0.0,0.0,0.0,0.0,0.0,0.0,0.0,0.0,0.0,0.0,0.0,0.0,0.0,0.0,0.0,0.0,0.0,0.0,0.0,0.0,0.0,0.0,0.0,0.0,0.0,0.0,0.0,0.0,0.0,0.0,0.0,0.0,0.0,0.0,0.0,0.0,0.0,0.0,0.0,0.0,0.0,0.0,0.0,0.0,0.0,0.0,0.0,0.0,0.0,0.0,0.0,0.0,0.0,0.0,0.0,0.0,0.0,0.0,0.0,0.0,0.0,0.0,0.0,0.0,0.0,0.0,0.0,0.0,0.0,0.0,0.0,0.0,0.0,0.0,0.0,0.0,0.0,0.0,0.0,0.0,0.0,0.0,0.0,0.0,0.0,0.0,0.0,0.0,0.0,0.0,0.0,0.0,0.0,0.0,0.0,0.0,0.0,0.0,0.0,0.0,0.0,0.0,0.0,0.0,0.0,0.0,0.0,0.0,0.0,0.0,0.0,0.0,0.0,0.0,0.0,0.0,0.0,0.0,0.0,0.0,0.0,0.0,0.0,0.0,0.0,0.0,0.0,0.0,0.0,0.0,0.0,0.0,0.0,0.0,0.0,0.0,0.0,0.0,0.0,0.0,0.0,0.0,0.0,0.0,0.0,0.0,0.0,0.0,0.0,0.0,0.0,0.0,0.0,0.0,0.0,0.0,0.0,0.0,0.0,0.0,0.0,0.0,0.0,0.0,0.0,0.0,0.0,0.0,0.0,0.0,0.0,0.0,0.0,0.0,0.0,0.0,0.0,0.0,0.0,0.0,0.0,0.0,0.0,0.0,0.0,0.0,0.0,0.0,0.0,0.0,0.0,0.0,0.0,0.0,0.0,0.0,0.0,0.0,0.0,0.0,0.0,0.0,0.0,0.0,0.0,0.0,0.0,0.0,0.0,0.0,0.0,0.0,0.0,0.0,0.0,0.0,0.0,0.0,0.0,0.0,0.0,0.0,0.0,0.0,0.0,0.0,0.0,0.0,0.0,0.0,0.0,0.0,0.0,0.0,0.0,0.0,0.0,0.0,0.0,0.0,0.0,0.0,0.0,0.0,0.0,0.0,0.0,0.0,0.0,0.0,0.0,0.0,0.0,0.0,0.0,0.0,0.0,0.0,0.0,0.0,0.0,0.0,0.0,0.0,0.0,0.0,0.0,0.0,0.0,0.0,0.0,0.0,0.0,0.0,0.0,0.0,0.0,0.0,0.0,0.0,0.0,0.0,0.0,0.0,0.0,0.0,0.0,0.0,0.0,0.0,0.0,0.0,0.0,0.0,0.0,0.0,0.0,0.0,0.0,0.0,0.0,0.0,0.0,0.0,0.0,0.0,0.0,0.0,0.0,0.0,0.0,0.0,0.0,0.0,0.0,0.0,0.0,0.0,0.0,0.0,0.0,0.0,0.0,0.0,0.0,0.0,0.0,0.0,0.0,0.0,0.0,0.0,0.0,0.0,0.0,0.0,0.0,0.0,0.0,0.0,0.0,0.0,0.0,0.0,0.0,0.0,0.0,0.0,0.0,0.0,0.0,0.0,0.0,0.0,0.0,0.0,0.0,0.0,0.0,0.0,0.0,0.0,0.0,0.0,0.0,0.0,0.0,0.0,0.0,0.0,0.0,0.0,0.0,0.0,0.0,0.0,0.0,0.0,0.0,0.0,0.0,0.0,0.0,0.0,0.0,0.0,0.0,0.0,0.0,0.0,0.0,0.0,0.0,0.0,0.0,0.0,0.0,0.0,0.0,0.0,0.0,0.0,0.0,0.0,0.0,0.0,0.0,0.0,0.0,0.0,0.0,0.0,0.0,0.0,0.0,0.0,0.0,0.0,0.0,0.0,0.0,0.0,0.0,0.0,0.0,0.0,0.0,0.0,0.0,0.0,0.0,0.0,0.0,0.0,0.0,0.0,0.0,0.0,0.0,0.0,0.0,0.0,0.0,0.0,0.0,0.0,0.0,0.0,0.0,0.0,0.0,0.0,0.0,0.0,0.0,0.0,0.0,0.0,0.0,0.0,0.0,0.0,0.0,0.0,0.0,0.0,0.0,0.0,0.0,0.0,0.0,0.0,0.0,0.0,0.0,0.0,0.0,0.0,0.0,0.0,0.0,0.0,0.0,0.0,0.0,0.0,0.0,0.0,0.0,0.0,0.0,0.0,0.0,0.0,0.0,0.0,0.0,0.0,0.0,0.0,0.0,0.0,0.0,0.0,0.0,0.0,0.0,0.0,0.0,0.0,0.0,0.0,0.0,0.0,0.0,0.0,0.0,0.0,0.0,0.0,0.0,0.0,0.0,0.0,0.0,0.0,0.0,0.0,0.0,0.0,0.0,0.0,0.0,0.0,0.0,0.0,0.0,0.0,0.0,0.0,0.0,0.0,0.0,0.0,0.0,0.0,0.0,0.0,0.0,0.0,0.0,0.0,0.0,0.0,0.0,0.0,0.0,0.0,0.0,0.0,0.0,0.0,0.0,0.0,0.0,0.0,0.0,0.0,0.0,0.0,0.0,0.0,0.0,0.0,0.0,0.0,0.0,0.0,0.0,0.0,0.0,0.0,0.0,0.0,0.0,0.0,0.0,0.0,0.0,0.0,0.0,0.0,0.0,0.0,0.0,0.0,0.0,0.0,0.0,0.0,0.0,0.0,0.0,0.0,0.0,0.0,0.0,0.0,0.0,0.0,0.0,0.0,0.0,0.0,0.0,0.0,0.0,0.0,0.0,0.0,0.0,0.0,0.0,0.0,0.0,0.0,0.0,0.0,0.0,0.0,0.0,0.0,0.0,0.0,0.0,0.0,0.0,0.0,0.0,0.0,0.0,0.0,0.0,0.0,0.0,0.0,0.0,0.0,0.0,0.0,0.0,0.0,0.0,0.0,0.0,0.0,0.0,0.0,0.0,0.0,0.0,0.0,0.0,0.0,0.0,0.0,0.0,0.0,0.0,0.0,0.0,0.0,0.0,0.0,0.0,0.0,0.0,0.0,0.0,0.0,0.0,0.0,0.0,0.0,0.0,0.0,0.0,0.0,0.0,0.0,0.0,0.0,0.0,0.0,0.0,0.0,0.0,0.0,0.0,0.0,0.0,0.0,0.0,0.0,0.0,0.0,0.0,0.0,0.0,0.0,0.0,0.0,0.0,0.0,0.0,0.0,0.0,0.0,0.0,0.0,0.0,0.0,0.0,0.0,0.0,0.0,0.0,0.0,0.0,0.0,0.0,0.0,0.0,0.0,0.0,0.0,0.0,0.0,0.0,0.0,0.0,0.0,0.0,0.0,0.0,0.0,0.0,0.0,0.0,0.0,0.0,0.0,0.0,0.0,0.0,0.0,0.0,0.0,0.0,0.0,0.0,0.0,0.0,0.0,0.0,0.0,0.0,0.0,0.0,0.0,0.0,0.0,0.0,0.0,0.0,0.0,0.0,0.0,0.0,0.0,0.0,0.0,0.0,0.0,0.0,0.0,0.0,0.0,0.0,0.0,0.0,0.0,0.0,0.0,0.0,0.0,0.0,0.0,0.0,0.0,0.0,0.0,0.0,0.0,0.0,0.0,0.0,0.0,0.0,0.0,0.0,0.0,0.0,0.0,0.0,0.0,0.0,0.0,0.0,0.0,0.0,0.0,0.0,0.0,0.0,0.0,0.0,0.0,0.0,0.0,0.0,0.0,0.0,0.0,0.0,0.0,0.0,0.0,0.0,0.0,0.0,0.0,0.0,0.0,0.0,0.0,0.0,0.0,0.0,0.0,0.0,0.0,0.0,0.0,0.0,0.0,0.0,0.0,0.0,0.0,0.0,0.0,0.0,0.0,0.0,0.0,0.0,0.0,0.0,0.0,0.0,0.0,0.0,0.0,0.0,0.0,0.0,0.0,0.0,0.0,0.0,0.0,0.0,0.0,0.0,0.0,0.0,0.0,0.0,0.0,0.0,0.0,0.0,0.0,0.0,0.0,0.0,0.0,0.0,0.0,0.0,0.0,0.0,0.0,0.0,0.0,0.0,0.0,0.0,0.0,0.0,0.0,0.0,0.0,0.0,0.0,0.0,0.0,0.0,0.0,0.0,0.0,0.0,0.0,0.0,0.0,0.0,0.0,0.0,0.0,0.0,0.0,0.0,0.0,0.0,0.0,0.0,0.0,0.0,0.0,0.0,-6.5394,-6.5721,0.0,0.0,0.0,0.0,0.0,0.0,0.0,0.0,0.0,0.0,0.0,0.0,0.0,0.0,0.0,0.0,0.0,0.0,0.0,0.0,0.0,0.0,0.0,0.0,0.0,0.0,0.0,0.0,0.0,0.0,0.0,0.0,0.0,0.0,0.0,0.0,0.0,0.0,-6.1612,-6.1718,-6.1718,-6.153,-6.165,-6.2017,0.0,0.0,0.0,0.0,0.0,0.0,0.0,0.0,0.0,0.0,0.0,0.0,0.0,0.0,0.0,0.0,0.0,0.0,0.0,0.0,0.0,0.0,0.0,0.0,0.0,0.0,0.0,0.0,0.0,0.0,0.0,0.0,0.0,0.0,0.0,0.0,0.0,0.0,0.0,0.0,0.0,0.0,0.0,0.0,0.0,0.0,0.0,0.0,0.0,0.0,0.0,0.0,0.0,0.0,0.0,0.0,0.0,0.0,0.0,0.0,0.0,0.0,0.0,0.0,0.0,0.0,0.0,0.0,0.0,0.0,-6.4302,-6.4726,0.0,0.0,0.0,0.0,0.0,0.0,0.0,0.0,0.0,0.0,0.0,0.0,0.0,0.0,0.0,0.0,0.0,0.0,0.0,0.0,0.0,0.0,0.0,0.0,0.0,0.0,0.0,0.0,0.0,0.0,0.0,0.0,0.0,0.0,0.0,0.0,0.0,0.0,-6.1657,-6.1718,-6.1718,-6.1718,-6.1654,-6.1513,-6.1513,0.0,0.0,0.0,0.0,0.0,0.0,0.0,0.0,0.0,0.0,0.0,0.0,0.0,0.0,0.0,0.0,0.0,0.0,0.0,0.0,0.0,0.0,0.0,0.0,0.0,0.0,0.0,0.0,0.0,0.0,0.0,0.0,0.0,0.0,0.0,0.0,0.0,0.0,0.0,0.0,0.0,0.0,0.0,0.0,0.0,0.0,0.0,0.0,0.0,0.0,0.0,0.0,0.0,0.0,0.0,0.0,0.0,0.0,0.0,0.0,0.0,0.0,0.0,-6.3497,-6.3486,-6.3486,-6.3464,-6.3048,-6.2354,-6.3139,-6.3592,-6.3813,-6.452,0.0,0.0,0.0,0.0,0.0,0.0,0.0,0.0,0.0,0.0,0.0,0.0,0.0,0.0,0.0,0.0,0.0,0.0,0.0,0.0,0.0,-6.0422,-6.0422,-6.0422,-6.0422,-6.0422,0.0,0.0,0.0,0.0,0.0,0.0,0.0,-6.1476,-6.1569,-6.1668,-6.1676,-6.1718,-6.1718,-6.1718,-6.1676,-6.1668,-6.1668,-6.1702,-6.1807,0.0,0.0,0.0,0.0,0.0,0.0,0.0,0.0,0.0,0.0,0.0,0.0,0.0,0.0,0.0,0.0,0.0,0.0,0.0,0.0,0.0,0.0,0.0,0.0,0.0,0.0,0.0,0.0,0.0,0.0,0.0,0.0,0.0,0.0,0.0,0.0,0.0,0.0,0.0,0.0,0.0,-6.6601,-6.5859,0.0,0.0,0.0,0.0,0.0,0.0,0.0,0.0,0.0,0.0,0.0,0.0,0.0,-6.1668,-6.1651,-6.1651,-6.1651,-6.1651,-6.1536,-6.1469,-6.1462,-6.1417,-6.1321,-6.1214,-6.1321,0.0,-6.2789,-6.2905,0.0,0.0,0.0,0.0,0.0,0.0,0.0,0.0,0.0,0.0,0.0,0.0,0.0,0.0,0.0,0.0,0.0,0.0,0.0,0.0,0.0,-6.0676,-6.0422,-6.0422,-6.0422,-6.0422,-6.0422,0.0,0.0,0.0,0.0,0.0,-6.1486,-6.158,-6.1654,-6.1718,-6.1718,-6.1718,-6.1718,-6.1718,-6.1718,-6.1718,-6.1718,-6.1718,-6.1718,-6.1654,0.0,0.0,0.0,0.0,0.0,0.0,0.0,0.0,0.0,0.0,0.0,0.0,0.0,0.0,0.0,0.0,0.0,0.0,0.0,0.0,0.0,0.0,0.0,0.0,0.0,0.0,0.0,0.0,0.0,0.0,0.0,0.0,0.0,0.0,0.0,0.0,0.0,0.0,0.0,-6.6484,-6.6015,-6.5663,-6.5106,-6.4622,0.0,0.0,0.0,0.0,0.0,0.0,0.0,0.0,0.0,-6.1172,-6.1172,-6.1167,-6.1148,-6.1139,-6.1139,-6.1139,-6.1059,-6.106,-6.1051,-6.1,-6.0987,-6.0987,-6.0987,-6.1272,-6.1715,-6.1712,-6.1948,-6.2307,0.0,0.0,0.0,0.0,-6.2307,-6.2307,0.0,0.0,0.0,0.0,0.0,0.0,0.0,0.0,0.0,0.0,0.0,0.0,-6.1975,-6.1211,-6.0714,-6.0714,-6.0523,-6.0422,-6.0422,-6.052,0.0,0.0,0.0,-6.1334,-6.1564,-6.1657,-6.1718,-6.1718,-6.1718,-6.1718,-6.1718,-6.1718,-6.1718,-6.1718,-6.1718,-6.1718,-6.1718,-6.1718,-6.1654,-6.1569,0.0,0.0,0.0,0.0,0.0,0.0,0.0,0.0,0.0,0.0,0.0,0.0,0.0,0.0,0.0,0.0,0.0,0.0,0.0,0.0,0.0,0.0,0.0,0.0,0.0,0.0,0.0,0.0,0.0,0.0,0.0,0.0,0.0,0.0,0.0,0.0,0.0,-6.5778,-6.5147,-6.4913,-6.4202,-6.3639,0.0,0.0,0.0,0.0,0.0,0.0,-6.1204,-6.1196,-6.1136,-6.1039,-6.1039,-6.1003,-6.0955,-6.0955,-6.0955,-6.0955,-6.0955,-6.0955,-6.0955,-6.0955,-6.0955,-6.0955,-6.0955,-6.0955,-6.0955,-6.099,-6.099,-6.0997,-6.1,-6.099,-6.0987,-6.0987,-6.0987,-6.0997,0.0,0.0,0.0,0.0,0.0,0.0,0.0,0.0,0.0,0.0,0.0,-6.3732,-6.293,-6.2051,-6.1554,-6.1554,-6.0828,-6.0422,-6.0422,-6.0773,-6.0982,-6.1009,-6.1367,-6.1605,-6.1676,-6.1718,-6.1718,-6.1718,-6.1718,-6.1718,-6.1718,-6.1718,-6.1718,-6.1718,-6.1718,-6.1718,-6.1718,-6.1718,-6.1718,-6.1676,-6.1718,0.0,0.0,0.0,0.0,0.0,0.0,0.0,0.0,0.0,0.0,0.0,0.0,0.0,0.0,0.0,0.0,0.0,0.0,0.0,0.0,0.0,0.0,0.0,0.0,0.0,0.0,0.0,0.0,0.0,0.0,0.0,0.0,0.0,0.0,0.0,0.0,0.0,0.0,-6.3032,-6.279,0.0,0.0,0.0,0.0,-6.1205,-6.1079,-6.0973,-6.0927,-6.0861,-6.0827,-6.0816,-6.0816,-6.0804,-6.0793,-6.0793,-6.0793,-6.0793,-6.0793,-6.0793,-6.0793,-6.0793,-6.0793,-6.0793,-6.0793,-6.0793,-6.0804,-6.0955,-6.0997,-6.0987,-6.0997,-6.0997,-6.0987,-6.0987,-6.0987,-6.0987,0.0,0.0,0.0,0.0,0.0,0.0,0.0,0.0,0.0,-6.4993,-6.4496,-6.4091,-6.377,-6.2968,-6.2204,-6.1669,-6.1325,-6.0943,-6.0422,-6.061,-6.0832,-6.0971,-6.1227,-6.1451,-6.1679,-6.1718,-6.1718,-6.1718,-6.1718,-6.1718,-6.1718,-6.1718,-6.1718,-6.1718,-6.1718,-6.1718,-6.1718,-6.1718,-6.1718,-6.1718,-6.1718,-6.1718,0.0,0.0,0.0,0.0,0.0,0.0,0.0,0.0,0.0,0.0,0.0,0.0,0.0,0.0,0.0,0.0,0.0,0.0,0.0,0.0,0.0,0.0,0.0,0.0,0.0,0.0,0.0,0.0,0.0,0.0,0.0,0.0,0.0,0.0,0.0,0.0,0.0,-6.2679,-6.1977,0.0,-6.115,-6.1039,-6.0973,-6.0902,-6.0882,-6.0867,-6.0816,-6.0793,-6.0781,-6.0781,-6.0781,-6.0781,-6.0781,-6.0781,-6.0781,-6.0781,-6.0781,-6.0781,-6.0781,-6.0781,-6.0781,-6.0781,-6.0781,-6.0781,-6.0793,-6.0866,-6.0888,-6.0888,-6.0922,-6.0922,-6.0888,-6.0888,-6.0888,-6.0888,0.0,0.0,0.0,0.0,0.0,0.0,0.0,0.0,0.0,-6.5413,-6.4917,-6.4611,-6.4611,-6.3847,-6.3121,-6.251,-6.1936,-6.1378,-6.087,-6.0763,-6.0832,-6.1034,-6.1246,-6.1465,-6.1718,-6.1718,-6.1718,-6.1718,-6.1718,-6.1718,-6.1718,-6.1718,-6.1718,-6.1718,-6.1718,-6.1718,-6.1718,-6.1718,-6.1718,-6.1718,-6.1718,-6.1718,-6.1718,0.0,0.0,0.0,0.0,0.0,0.0,0.0,0.0,0.0,0.0,0.0,0.0,0.0,0.0,0.0,0.0,0.0,0.0,0.0,0.0,0.0,0.0,0.0,0.0,0.0,0.0,0.0,0.0,0.0,0.0,0.0,0.0,0.0,0.0,-6.2805,-6.2133,-6.2002,-6.1366,-6.0933,-6.0933,-6.0834,-6.0781,-6.0781,-6.0781,-6.0781,-6.0781,-6.0781,-6.0781,-6.0781,-6.0781,-6.0781,-6.0781,-6.0781,-6.0781,-6.0781,-6.0781,-6.0781,-6.0781,-6.0781,-6.0781,-6.0781,-6.0781,-6.0781,-6.0781,-6.0781,-6.0781,-6.0793,-6.0866,-6.0854,-6.0781,-6.0781,-6.0781,-6.0831,0.0,0.0,0.0,0.0,0.0,0.0,0.0,0.0,-6.5413,-6.5413,-6.5413,-6.5413,-6.5413,-6.4688,-6.4244,-6.4206,-6.2662,-6.1697,-6.1691,-6.1269,-6.1057,-6.1081,-6.1478,-6.1718,-6.1718,-6.1718,-6.1718,-6.1718,-6.1718,-6.1718,-6.1718,-6.1718,-6.1718,-6.1718,-6.1718,-6.1718,-6.1718,-6.1718,-6.1718,-6.1718,-6.1718,-6.1718,-6.1718,0.0,0.0,0.0,0.0,0.0,0.0,0.0,0.0,0.0,0.0,0.0,0.0,0.0,0.0,0.0,0.0,0.0,0.0,0.0,0.0,0.0,0.0,0.0,0.0,0.0,0.0,0.0,0.0,0.0,0.0,0.0,0.0,0.0,-6.2528,-6.164,-6.0997,-6.0988,-6.0882,-6.0781,-6.0781,-6.0781,-6.0742,-6.0742,-6.0742,-6.0704,-6.0704,-6.0704,-6.0704,-6.0704,-6.0704,-6.0704,-6.0704,-6.0704,-6.0704,-6.0704,-6.0704,-6.0704,-6.0704,-6.0742,-6.0742,-6.0742,-6.0781,-6.0781,-6.0781,-6.0781,-6.0781,-6.0781,-6.0781,-6.0781,-6.0781,-6.0781,-6.0781,-6.0781,0.0,0.0,0.0,0.0,0.0,0.0,0.0,-6.5413,-6.5413,-6.5413,-6.5413,-6.5413,-6.5413,-6.5184,-6.484,-6.4244,-6.377,-6.2944,-6.1697,-6.1582,-6.146,-6.1196,-6.1526,-6.1718,-6.1718,-6.1718,-6.1718,-6.1718,-6.1718,-6.1718,-6.1718,-6.1718,-6.1718,-6.1718,-6.1718,-6.1718,-6.1718,-6.1718,-6.1668,-6.1612,-6.1671,-6.1718,-6.1718,0.0,0.0,0.0,0.0,0.0,0.0,0.0,0.0,0.0,0.0,0.0,0.0,0.0,0.0,0.0,0.0,0.0,0.0,0.0,0.0,0.0,0.0,0.0,0.0,0.0,0.0,0.0,0.0,0.0,0.0,0.0,-6.1525,-6.143,-6.1446,-6.1208,-6.0964,-6.085,-6.0839,-6.0781,-6.0781,-6.0242,-5.9858,-5.9858,-5.9319,-5.8973,-5.8973,-5.8973,-5.8973,-5.8973,-5.8973,-5.8973,-5.8973,-5.8973,-5.8973,-5.8973,-5.8973,-5.8973,-5.9011,-5.9588,-5.9858,-5.9896,-6.0512,-6.0781,-6.0781,-6.0781,-6.0781,-6.0781,-6.0781,-6.0781,-6.0781,-6.0781,-6.0781,-6.0781,0.0,0.0,0.0,0.0,0.0,0.0,0.0,-6.5413,-6.5413,-6.5413,-6.5413,-6.5413,-6.5413,-6.5413,-6.5222,-6.4726,-6.4038,-6.325,-6.2247,-6.1757,-6.1457,-6.1298,-6.1537,-6.1718,-6.1718,-6.1718,-6.1718,-6.1718,-6.1718,-6.1718,-6.1718,-6.1718,-6.1718,-6.1718,-6.1718,-6.1718,-6.1718,-6.1718,-6.1671,-6.1657,-6.1674,-6.1674,-6.1663,-6.1663,-6.1671,-6.1718,-6.1718,-6.2267,-6.3008,-6.3008,0.0,0.0,0.0,0.0,0.0,0.0,0.0,0.0,0.0,0.0,0.0,0.0,0.0,0.0,0.0,0.0,0.0,0.0,0.0,0.0,0.0,0.0,0.0,0.0,-6.1044,-6.0925,-6.0925,-6.0933,-6.0899,-6.0804,-6.0473,-6.0242,-6.0242,-5.9473,-5.9011,-5.9011,-5.855,-5.8319,-5.8319,-5.8319,-5.8319,-5.8319,-5.8319,-5.8319,-5.8319,-5.8319,-5.8319,-5.8319,-5.8319,-5.8319,-5.8319,-5.8781,-5.9011,-5.905,-5.9511,-5.9742,-5.9742,-5.9742,-5.9742,-5.9819,0.0,0.0,0.0,0.0,-6.0242,-6.0204,0.0,0.0,0.0,0.0,0.0,0.0,0.0,0.0,-6.5413,-6.5413,-6.5413,-6.5413,-6.5413,-6.5413,-6.5413,-6.5413,-6.4038,-6.3188,-6.3159,-6.1948,0.0,-6.1499,-6.1612,-6.1671,-6.1718,-6.1718,-6.1718,-6.1718,-6.1718,-6.1718,-6.1718,-6.1718,-6.1718,-6.1718,-6.1718,-6.1718,-6.1718,-6.1718,-6.1718,-6.1676,-6.1676,-6.1663,-6.1602,-6.1602,-6.166,-6.1718,-6.1718,-6.2189,-6.2852,-6.2852,0.0,0.0,0.0,0.0,0.0,0.0,0.0,0.0,0.0,0.0,0.0,0.0,0.0,0.0,0.0,0.0,0.0,0.0,0.0,0.0,0.0,0.0,0.0,0.0,-6.0902,-6.0781,-6.0781,-6.0704,-6.0666,-6.0666,-5.9973,-5.9473,-5.9358,-5.8627,-5.8165,-5.8165,-5.805,-5.8011,-5.8011,-5.8011,0.0,0.0,0.0,-5.8011,-5.8011,-5.8011,-5.8011,-5.8011,-5.8011,-5.805,-5.8165,-5.828,-5.8357,-5.8434,-5.855,-5.855,-5.8434,-5.8434,-5.8396,-5.8434,-5.9935,-6.0512,-6.0435,-5.9665,-5.9358,-5.9281,0.0,0.0,0.0,0.0,0.0,0.0,0.0,0.0,-6.5413,-6.5413,-6.5413,-6.5413,-6.5413,-6.5413,-6.5413,-6.5413,-6.5108,-6.4679,0.0,0.0,-6.194,-6.2191,-6.1735,-6.1534,-6.1718,-6.1718,-6.1718,-6.1718,-6.1718,-6.1718,-6.1718,-6.1718,-6.1718,-6.1718,-6.1718,-6.1718,-6.1718,-6.1718,-6.1668,-6.1605,-6.1605,-6.1657,-6.1671,-6.1671,-6.1676,-6.1718,-6.1718,-6.1796,-6.1952,-6.1952,-6.254,-6.3243,-6.3243,-6.3867,0.0,0.0,0.0,0.0,0.0,0.0,0.0,0.0,0.0,0.0,0.0,0.0,0.0,0.0,0.0,0.0,0.0,0.0,0.0,-6.1006,-6.0902,-6.0781,-6.0781,-6.0204,-5.9742,-5.9742,-5.9588,-5.9242,-5.8588,-5.7742,-5.7253,-5.7253,-5.6588,-5.6203,-5.6203,-5.6203,-5.6203,-5.6203,-5.6203,-5.6203,-5.6203,-5.6203,-5.6203,-5.6203,-5.6203,0.0,-5.7291,-5.7973,-5.8665,-5.9319,-6.0012,-5.9935,-5.9281,-5.9281,-5.8896,-5.8319,-5.8665,-5.8781,-5.8781,-5.8588,-5.855,-5.8511,0.0,0.0,0.0,0.0,0.0,0.0,0.0,0.0,-6.5413,-6.5413,-6.5413,-6.5413,-6.5413,-6.5413,-6.5413,-6.5413,-6.5031,0.0,0.0,-6.2989,-6.2695,-6.2867,-6.2309,-6.2065,-6.2212,-6.1861,-6.1718,-6.1718,-6.1718,-6.1718,-6.1718,-6.1718,-6.1718,-6.1718,-6.1718,-6.1718,-6.1718,-6.1666,-6.1612,-6.1595,-6.1573,-6.1588,-6.166,-6.166,-6.1668,-6.1718,-6.1718,-6.1718,-6.1718,-6.1718,-6.1991,-6.2345,-6.2345,-6.2969,-6.3633,0.0,0.0,0.0,0.0,0.0,0.0,0.0,0.0,0.0,0.0,0.0,0.0,0.0,0.0,-6.1344,-6.124,0.0,-6.1012,-6.0943,-6.0845,-6.0666,-6.0204,-5.9781,-5.9511,-5.9511,-5.8742,-5.8088,-5.7703,-5.6857,-5.6368,-5.6368,-5.5934,-5.5703,-5.5703,-5.5703,-5.5703,-5.5703,-5.5703,-5.5895,-5.6368,-5.6368,-5.6549,-5.7011,-5.7011,-5.7242,-5.7665,-5.8088,-5.8511,-5.8934,-5.9358,-5.9319,-5.8896,-5.8896,-5.8665,-5.8319,-5.8319,-5.8319,-5.8319,-5.8319,-5.8319,-5.8319,0.0,0.0,0.0,0.0,0.0,0.0,0.0,0.0,0.0,-6.5413,-6.5413,-6.5413,-6.5413,-6.5413,-6.5413,0.0,0.0,0.0,0.0,-6.3425,-6.3457,-6.3604,-6.3076,-6.2824,-6.2917,-6.2308,-6.1952,-6.1952,-6.1796,-6.1718,-6.1718,-6.1718,-6.1718,-6.1718,-6.1718,-6.1676,-6.1671,-6.1609,-6.1591,-6.158,-6.1509,-6.1513,-6.1584,-6.1595,-6.1657,-6.1718,-6.1718,-6.1718,-6.1718,-6.1718,-6.1718,-6.1718,-6.1718,-6.2189,-6.2735,-6.2735,-6.3243,0.0,0.0,0.0,0.0,0.0,0.0,0.0,0.0,-6.1679,-6.1674,-6.1562,-6.1452,-6.1328,-6.1142,-6.1032,-6.0955,-6.0804,-6.0781,-6.0512,-5.9627,-5.9358,-5.9204,-5.9011,-5.783,-5.6945,-5.6753,-5.6088,-5.5703,-5.5703,-5.5703,-5.578,-5.5934,-5.5934,-5.6011,-5.6203,-5.6203,-5.6549,-5.7253,-5.7253,-5.7588,-5.8319,-5.8319,-5.8396,-5.855,-5.855,-5.8627,-5.8781,-5.8627,-5.855,-5.8511,-5.8357,-5.8319,-5.8319,-5.8319,-5.8319,-5.8319,-5.8319,-5.8319,-5.8319,0.0,0.0,0.0,0.0,0.0,0.0,0.0,0.0,0.0,0.0,0.0,0.0,0.0,0.0,0.0,0.0,0.0,0.0,-6.5123,-6.4465,-6.4175,-6.4354,-6.3826,-6.3588,-6.3743,-6.3162,-6.2852,-6.2852,-6.2071,-6.1718,-6.1718,-6.1718,-6.1718,-6.1718,-6.1718,-6.1666,-6.1602,-6.1598,-6.1576,-6.15,-6.149,-6.1495,-6.1504,-6.1584,-6.1657,-6.1718,-6.1718,-6.1718,-6.1718,-6.1718,-6.1718,-6.1718,-6.1718,-6.1757,-6.1835,-6.1835,-6.1913,-6.1996,-6.2006,-6.1903,-6.1834,-6.1719,-6.1719,-6.1719,0.0,-6.1633,-6.1598,-6.1448,-6.1345,-6.1259,-6.1051,-6.1008,-6.0955,-6.0804,-6.0781,-6.0512,-5.9627,-5.8896,-5.8165,-5.7368,-5.7099,-5.6714,-5.5934,-5.5742,-5.5703,-5.5703,-5.5703,-5.6049,-5.683,-5.6868,-5.7203,-5.7973,-5.8011,-5.805,-5.8165,-5.8165,-5.8204,-5.8319,-5.8319,-5.8665,-5.9358,-5.9358,-5.9781,-6.0473,-5.9704,-5.9358,-5.9319,-5.8588,-5.8319,-5.8319,-5.8319,-5.8319,-5.8319,-5.8319,-5.8319,-5.8319,0.0,0.0,0.0,0.0,0.0,0.0,0.0,0.0,0.0,0.0,0.0,0.0,0.0,0.0,0.0,0.0,0.0,0.0,-6.5413,-6.507,-6.4929,-6.5087,-6.4479,-6.4232,-6.4481,-6.3865,-6.3573,-6.3683,-6.3352,-6.3204,-6.3204,-6.2696,-6.2462,-6.2423,-6.1913,-6.1666,-6.1595,-6.1573,-6.1534,-6.1484,-6.1484,-6.15,-6.1495,-6.158,-6.1657,-6.1718,-6.1718,-6.1718,0.0,0.0,-6.1718,-6.1718,-6.1718,-6.1718,-6.1718,-6.1718,-6.1718,-6.1683,-6.1701,-6.1709,-6.1714,-6.1718,-6.1719,-6.1719,-6.1719,-6.1678,-6.1621,-6.1443,-6.1378,-6.1266,-6.1041,-6.1018,-6.0965,-6.0888,-6.0843,-6.0512,-5.9627,-5.9204,-5.8704,-5.7857,-5.7742,-5.7396,-5.656,-5.6934,-5.7203,-5.7203,-5.7203,-5.7357,-5.7742,-5.7742,-5.7934,-5.828,-5.8319,-5.8511,-5.9011,-5.9011,-5.9242,-5.9742,-5.9742,-5.9935,-6.0242,-6.0242,-6.0473,-6.0781,-6.0396,-6.0242,-6.0242,-5.9896,-5.9742,-5.9742,-5.9742,-5.9742,-5.9704,-5.9204,-5.9011,-5.9088,0.0,0.0,0.0,0.0,0.0,0.0,0.0,0.0,0.0,0.0,0.0,0.0,0.0,0.0,0.0,0.0,0.0,0.0,0.0,-6.5413,-6.5405,-6.5465,-6.509,-6.4937,-6.5149,-6.4497,-6.4271,-6.4432,-6.4271,-6.418,-6.4232,-6.3608,-6.3296,-6.3296,-6.2629,-6.2184,-6.1911,-6.1836,-6.1707,-6.1453,-6.1453,-6.1495,-6.1515,-6.1564,-6.1602,-6.1671,-6.1676,-6.1718,0.0,0.0,-6.1718,-6.1718,-6.1718,-6.1718,-6.1718,-6.1718,-6.1718,-6.1686,-6.1705,-6.1709,-6.1711,-6.1718,-6.1719,-6.1719,-6.1719,-6.1719,-6.1635,-6.1452,-6.1412,-6.1334,-6.105,-6.099,-6.0976,-6.0922,-6.0827,-6.0512,-5.9627,-5.9511,-5.9204,-5.8396,-5.8511,-5.8396,-5.7753,-5.805,-5.8319,-5.8319,-5.8319,-5.8396,-5.8627,-5.8627,-5.8742,-5.8973,-5.8973,-5.9281,-5.9858,-5.9858,-6.0165,-6.0781,-6.0781,-6.0781,-6.0781,-6.0781,-6.0781,-6.0781,-6.0781,-6.0781,-6.0781,-6.0781,-6.0781,-6.0781,-6.0781,-6.0781,-6.0704,-6.0089,-5.9858,-5.9935,0.0,0.0,0.0,0.0,0.0,0.0,0.0,0.0,0.0,0.0,0.0,0.0,0.0,0.0,0.0,0.0,0.0,0.0,0.0,-6.5413,-6.5413,-6.5413,-6.5628,-6.5765,-6.5777,-6.5122,-6.4854,-6.5057,-6.4234,-6.3896,-6.4096,-6.4096,-6.4057,-6.4057,-6.4057,-6.3525,-6.2657,-6.2651,-6.2186,-6.1419,-6.1419,-6.1421,-6.149,-6.151,-6.1521,-6.1602,-6.1671,0.0,0.0,0.0,-6.1718,-6.1718,-6.1718,-6.1718,-6.1718,-6.1718,-6.1718,-6.1686,-6.1705,-6.1709,-6.1711,-6.1718,-6.1719,-6.1719,-6.1719,-6.1719,-6.1635,-6.1452,-6.1412,-6.1334,-6.105,-6.099,-6.0976,-6.0922,-6.0827,-6.0512,-5.9627,-5.9511,-5.9204,-5.8396,-5.8973,-5.9435,-5.9435,-5.8742,-5.8319,-5.8319,-5.8319,-5.8627,-5.9435,-5.9473,-5.9858,-6.0704,-6.0704,-6.0742,-6.0742,-6.0742,-6.0781,-6.0781,-6.0781,-6.0781,-6.0781,-6.0781,-6.0781,-6.0781,-6.0781,-6.0781,-6.0781,-6.0781,-6.0781,-6.0781,-6.0781,-6.0781,-6.0781,-6.0781,-6.0742,-6.0742,0.0,0.0,0.0,0.0,0.0,0.0,0.0,0.0,0.0,0.0,0.0,0.0,0.0,0.0,0.0,0.0,-6.5413,0.0,0.0,-6.5413,-6.5413,-6.5413,-6.5509,-6.5597,-6.5744,-6.5554,-6.5536,-6.569,-6.5442,-6.5374,-6.5421,-6.4986,-6.4746,-6.4753,-6.4304,-6.3909,-6.3546,-6.3546,-6.3392,-6.3058,-6.2484,-6.2283,-6.2235,-6.1742,-6.1584,-6.1602,0.0,0.0,0.0,0.0,0.0,-6.1718,-6.1718,-6.1718,-6.1718,-6.1718,-6.1718,-6.1686,-6.1705,-6.1709,-6.1711,-6.1718,-6.1719,-6.1719,-6.1719,-6.1719,-6.1677,-6.1554,-6.1456,-6.1367,-6.1213,-6.1107,-6.099,-6.0976,-6.0922,-6.075,-6.0408,-6.0358,-6.0242,-5.9973,-6.0204,-6.0358,-6.0358,-6.0127,-5.9973,-5.9973,-5.9973,-6.0089,-6.0358,-6.0358,-6.0512,-6.0781,-6.0781,-6.0781,-6.0781,-6.0781,-6.0781,-6.0781,-6.0781,-6.0781,-6.0781,-6.0781,-6.0781,-6.0781,-6.0781,-6.0781,-6.0781,-6.0781,-6.0781,-6.0781,-6.0781,-6.0781,-6.0781,-6.0781,-6.0781,-6.0781,0.0,0.0,0.0,0.0,0.0,0.0,0.0,0.0,0.0,0.0,0.0,0.0,0.0,0.0,0.0,0.0,0.0,-6.5413,0.0,0.0,-6.5413,-6.5413,-6.5413,-6.545,-6.5594,-6.5651,-6.5718,-6.587,-6.5958,-6.5982,-6.6042,-6.5631,-6.5442,-6.5403,-6.4978,-6.459,-6.4241,-6.4241,-6.4116,-6.3845,-6.3277,-6.31,-6.3085,-6.2304,-6.2036,0.0,0.0,0.0,0.0,0.0,0.0,-6.1718,-6.1718,-6.1718,-6.1718,-6.1718,-6.1718,-6.1683,-6.1702,-6.1707,-6.1711,-6.1718,-6.1719,-6.1719,-6.1719,-6.1719,-6.1678,-6.1614,-6.1537,-6.1435,-6.1367,-6.119,-6.1059,-6.106,-6.0969,-6.09,-6.0816,-6.0843,-6.0781,-6.0781,-6.0781,-6.0781,-6.0781,-6.0781,-6.0781,-6.0781,-6.0781,-6.0781,-6.0781,-6.0781,-6.0781,-6.0781,-6.0781,-6.0781,-6.0781,-6.0781,-6.0781,-6.0781,-6.0781,-6.0781,-6.0781,-6.0781,-6.0781,-6.0781,-6.0781,-6.0781,-6.0781,-6.0781,-6.0781,-6.0781,-6.0781,-6.0781,-6.0781,-6.0781,-6.0781,-6.0781,0.0,0.0,0.0,0.0,0.0,0.0,0.0,0.0,0.0,0.0,0.0,0.0,0.0,0.0,0.0,0.0,0.0,0.0,0.0,0.0,0.0,-6.5413,-6.5413,-6.5413,-6.5413,-6.5413,-6.5479,-6.569,-6.569,-6.5769,-6.5951,-6.5963,-6.5963,-6.6001,-6.6013,-6.555,-6.4767,-6.4767,-6.4402,-6.3815,-6.3776,-6.3883,-6.3968,-6.3079,0.0,0.0,0.0,0.0,0.0,0.0,-6.1718,-6.1718,-6.1718,-6.1718,-6.1718,-6.1718,-6.1718,-6.1683,-6.1696,-6.1704,-6.171,-6.1716,-6.1718,-6.1719,-6.1719,-6.1719,-6.1678,-6.1616,-6.1607,-6.1549,-6.1435,-6.1298,-6.1205,-6.1205,-6.1012,-6.0911,-6.0911,-6.0816,-6.0781,-6.0781,-6.0781,-6.0781,-6.0781,-6.0781,-6.0781,-6.0781,-6.0781,-6.0781,-6.0781,-6.0781,-6.0781,-6.0781,-6.0781,-6.0781,-6.0781,-6.0781,-6.0781,-6.0781,-6.0781,-6.0781,-6.0781,-6.0781,-6.0781,-6.0781,-6.0781,-6.0781,-6.0781,-6.0742,-6.0742,-6.0742,-6.0704,-6.0666,-6.0666,-6.0666,-6.0666,-6.0666,0.0,0.0,0.0,0.0,0.0,0.0,0.0,0.0,0.0,0.0,0.0,0.0,0.0,0.0,0.0,0.0,0.0,0.0,0.0,0.0,0.0,0.0,0.0,0.0,0.0,0.0,0.0,-6.5465,-6.5465,-6.5494,-6.5566,-6.573,-6.5795,-6.5769,-6.5916,-6.587,-6.5666,-6.5666,-6.561,-6.5528,0.0,-6.4774,-6.4796,0.0,0.0,0.0,0.0,0.0,0.0,-6.1913,-6.1718,-6.1718,-6.1718,-6.1718,-6.1718,-6.1718,-6.1718,-6.1683,-6.1696,-6.1699,-6.1704,-6.1715,-6.1717,-6.1718,-6.1719,-6.1719,-6.1718,-6.1678,-6.1626,-6.1601,-6.1546,-6.1417,-6.1243,-6.1205,-6.1079,-6.0955,-6.0911,-6.0816,-6.0781,-6.0781,-6.0781,-6.0781,-6.0781,-6.0781,-6.0781,-6.0781,-6.0781,-6.0781,-6.0781,-6.0781,-6.0781,-6.0781,-6.0781,-6.0781,-6.0781,-6.0781,-6.0781,-6.0781,-6.0781,-6.0781,-6.0781,-6.0781,-6.0781,-6.0781,-6.0781,-6.0781,-6.0742,-6.0089,-5.9819,-5.9781,-5.9165,-5.8934,-5.8934,-5.8934,-5.8934,-5.8934,0.0,0.0,0.0,0.0,0.0,0.0,0.0,0.0,0.0,0.0,0.0,0.0,0.0,0.0,0.0,0.0,0.0,0.0,0.0,0.0,0.0,0.0,0.0,0.0,0.0,0.0,0.0,0.0,0.0,0.0,-6.5413,-6.5509,-6.5566,-6.558,-6.5703,-6.5718,-6.5731,-6.582,0.0,0.0,0.0,0.0,0.0,0.0,0.0,0.0,0.0,0.0,0.0,-6.2423,-6.203,-6.1718,-6.1718,-6.1718,-6.1718,-6.1718,-6.1718,-6.1681,-6.1688,-6.1694,-6.1701,-6.1709,-6.1714,-6.1717,-6.1718,-6.1718,-6.1719,-6.1719,-6.1677,-6.1629,-6.1629,-6.146,-6.131,-6.1292,-6.1139,-6.0969,-6.0955,-6.09,-6.0816,-6.0793,-6.0781,-6.0781,-6.0781,-6.0781,-6.0781,-6.0781,-6.0781,-6.0781,-6.0781,-6.0781,-6.0781,-6.0781,-6.0781,-6.0781,-6.0781,-6.0781,-6.0781,-6.0781,-6.0781,-6.0781,-6.0781,-6.0781,-6.0589,-6.0242,-6.0242,-6.0012,-5.9665,-5.9165,-5.8973,-5.8934,-5.8473,-5.8319,-5.8319,-5.8319,-5.8319,-5.8357,0.0,0.0,0.0,0.0,0.0,0.0,0.0,0.0,0.0,0.0,0.0,0.0,0.0,0.0,0.0,0.0,0.0,0.0,0.0,0.0,0.0,0.0,0.0,0.0,0.0,0.0,0.0,0.0,0.0,0.0,0.0,0.0,0.0,0.0,0.0,0.0,0.0,0.0,0.0,0.0,0.0,0.0,0.0,0.0,0.0,0.0,0.0,0.0,0.0,0.0,-6.2423,-6.1718,-6.1718,-6.1718,-6.1718,-6.1718,-6.1718,-6.1718,-6.1718,-6.1688,-6.1696,-6.1697,-6.1708,-6.1716,-6.1716,-6.1718,-6.1719,-6.1719,-6.1719,-6.1719,-6.1719,-6.1557,-6.1412,-6.1412,-6.1167,-6.0982,-6.0997,-6.0944,-6.0888,-6.0793,-6.0781,-6.0781,-6.0781,-6.0781,-6.0781,-6.0781,-6.0781,-6.0781,-6.0781,-6.0781,-6.0781,-6.0781,-6.0781,-6.0781,-6.0781,-6.0781,-6.0781,-6.0781,-6.0781,-6.0742,-6.0627,-6.0627,-6.0165,-5.9358,-5.9358,-5.8934,-5.828,-5.8165,-5.8127,-5.8127,-5.8011,-5.805,-5.8127,-5.8127,-5.8204,-5.8396,0.0,0.0,0.0,0.0,0.0,0.0,0.0,0.0,0.0,0.0,-7.0304,-7.019,0.0,0.0,0.0,0.0,0.0,0.0,0.0,0.0,0.0,0.0,0.0,0.0,0.0,-6.5413,-6.5413,-6.5413,-6.5413,0.0,0.0,0.0,0.0,0.0,0.0,0.0,0.0,0.0,0.0,0.0,0.0,0.0,0.0,0.0,0.0,0.0,0.0,0.0,0.0,0.0,-6.2423,-6.1718,-6.1718,-6.1718,-6.1718,-6.1718,-6.1718,-6.1718,-6.1718,-6.1681,-6.1686,-6.1696,-6.1701,-6.1705,-6.1716,-6.1717,-6.1718,-6.1719,-6.1719,-6.1719,-6.1719,-6.1557,-6.1412,-6.1412,-6.1167,-6.0982,-6.0997,-6.0944,-6.0888,-6.0793,-6.0781,-6.0781,-6.0781,-6.0781,-6.0781,-6.0781,-6.0781,-6.0781,-6.0781,-6.0781,-6.0781,-6.0781,-6.0781,-6.0781,-6.0781,-6.0781,-6.0781,-6.0781,-6.0781,-6.0435,-5.9742,-5.9742,-5.9281,-5.8511,-5.8511,-5.8434,-5.8242,-5.7511,-5.7253,-5.7137,-5.6434,-5.6588,-5.7253,-5.7253,-5.7665,-5.8319,0.0,0.0,0.0,0.0,0.0,0.0,0.0,-7.0419,-7.0419,-7.0419,-7.0419,-7.0419,-7.0419,-7.0075,0.0,0.0,0.0,0.0,0.0,0.0,0.0,0.0,0.0,0.0,0.0,-6.5413,-6.5413,-6.5413,0.0,-6.5435,-6.5537,-6.5552,-6.5608,-6.5717,-6.5795,-6.5782,0.0,0.0,0.0,0.0,-6.6281,0.0,0.0,0.0,0.0,0.0,0.0,0.0,0.0,0.0,-6.3477,-6.2306,-6.1835,-6.1718,-6.1796,-6.2228,-6.2384,-6.2462,-6.293,-6.3047,-6.2933,-6.2508,-6.2397,-6.2248,-6.179,-6.1715,-6.1717,-6.1719,-6.1719,-6.1719,-6.1719,-6.1557,-6.1412,-6.1412,-6.1221,-6.1022,-6.101,-6.0948,-6.0933,-6.0877,-6.0804,-6.0781,-6.0781,-6.0781,-6.0781,-6.0781,-6.0781,-6.0781,-6.0781,-6.0781,-6.0781,-6.0781,-6.0781,-6.0781,-6.0781,-6.0781,-6.055,-6.0127,-6.0589,-6.0319,-5.9511,-5.9973,-5.9704,-5.8934,-5.8934,-5.8934,-5.8896,-5.8473,-5.855,-5.8934,-5.8511,-5.8588,-5.8984,-5.8984,-5.9242,-5.9588,0.0,0.0,0.0,0.0,0.0,0.0,0.0,-7.0419,-7.0419,-7.0419,-7.0419,-7.0419,-7.0419,-7.0419,-7.0151,0.0,0.0,0.0,0.0,0.0,0.0,0.0,0.0,0.0,0.0,0.0,0.0,-6.5413,-6.5413,0.0,0.0,0.0,0.0,0.0,-6.5951,-6.5951,-6.5832,-6.6118,0.0,0.0,0.0,-6.6508,0.0,0.0,0.0,0.0,0.0,0.0,0.0,0.0,-6.4687,-6.3399,-6.254,-6.2149,-6.2149,-6.3008,-6.3282,-6.3438,-6.4104,-6.4299,-6.4143,-6.3438,-6.3132,-6.2828,-6.2135,-6.1829,-6.1716,-6.1718,-6.1719,-6.1719,-6.1719,-6.1566,-6.1435,-6.1417,-6.1264,-6.1107,-6.1022,-6.099,-6.0976,-6.0911,-6.0854,-6.0781,-6.0781,-6.0781,-6.0781,-6.0781,-6.0781,-6.0781,-6.0781,-6.0781,-6.0781,-6.0781,-6.0781,-6.0781,-6.0781,-6.0781,-6.0473,-5.9781,-6.0473,-6.0319,-5.9511,-6.0204,-6.0165,-5.9511,-5.9511,-5.9627,-5.9781,-5.9781,-6.0165,-6.0781,-6.0781,-6.0896,-6.1089,-6.1089,-6.1204,-6.1358,0.0,0.0,0.0,0.0,0.0,0.0,0.0,-7.0419,-7.0419,-7.0419,-7.0419,-7.0419,-7.0419,-7.0419,-7.0381,0.0,0.0,0.0,0.0,0.0,0.0,0.0,0.0,0.0,0.0,0.0,0.0,-6.5413,-6.5413,0.0,0.0,0.0,0.0,0.0,0.0,-6.6158,-6.6158,-6.6389,0.0,0.0,0.0,0.0,0.0,0.0,0.0,0.0,0.0,-6.6769,-6.6561,0.0,-6.5507,-6.5194,-6.4336,-6.3516,-6.3047,-6.3906,-6.4182,-6.4182,-6.4299,-6.4299,-6.4299,-6.4182,-6.3596,-6.2974,-6.2906,-6.2251,-6.1711,-6.1716,-6.1718,-6.1719,-6.1719,-6.1627,-6.154,-6.1426,-6.1349,-6.1221,-6.1041,-6.099,-6.0976,-6.0911,-6.0854,-6.0781,-6.0781,-6.0781,-6.0781,-6.0781,-6.0781,-6.0781,-6.0781,-6.0781,-6.0781,-6.0781,-6.0781,-6.0781,-6.0781,-6.0781,-6.0742,-6.0666,-6.0742,-6.0319,-5.9511,-5.9588,-5.9588,-5.9511,-5.9511,-5.9935,-6.0666,-6.0666,-6.0742,-6.0781,-6.0781,-6.1293,-6.1985,-6.1985,-6.2435,-6.3089,0.0,0.0,0.0,0.0,0.0,0.0,-7.0419,-7.0419,-7.0419,-7.0419,-7.0419,-7.0419,-7.0419,-7.0419,-7.0419,0.0,0.0,0.0,0.0,0.0,0.0,0.0,0.0,0.0,0.0,0.0,-6.5413,-6.5413,-6.5413,0.0,0.0,0.0,0.0,0.0,0.0,-6.6308,-6.6196,-6.6414,0.0,0.0,0.0,0.0,0.0,0.0,0.0,0.0,0.0,0.0,-6.6756,-6.6444,-6.6014,-6.5624,-6.5741,-6.5234,-6.4648,-6.496,-6.5077,-6.5194,-6.5663,-6.5783,-6.5702,-6.5194,-6.4804,-6.4299,-6.3256,-6.2719,-6.2336,-6.1794,-6.1718,-6.1719,-6.1719,-6.1669,-6.1549,-6.1426,0.0,0.0,-6.1079,-6.1041,-6.099,-6.0965,-6.0911,-6.0827,-6.0793,-6.0781,-6.0781,-6.0781,-6.0781,-6.0781,-6.0781,-6.0781,-6.0781,-6.0781,-6.0781,-6.0781,-6.0781,-6.0781,-6.055,-6.0012,-6.055,-6.0627,-6.0281,-6.0819,-6.132,-6.1781,-6.1781,-6.2281,-6.3089,-6.3089,-6.3397,-6.3858,-6.3858,-6.4089,-6.4397,-6.4397,-6.4589,-6.4782,0.0,0.0,0.0,0.0,0.0,-7.0419,-7.0419,-7.0419,-7.0419,-7.0419,-7.0419,-7.0419,-7.0419,-7.0419,-7.0419,-7.0419,0.0,0.0,0.0,0.0,0.0,0.0,0.0,0.0,0.0,0.0,-6.5413,-6.5413,-6.545,-6.5479,0.0,0.0,-6.6063,-6.6074,0.0,0.0,0.0,0.0,0.0,0.0,0.0,0.0,0.0,0.0,0.0,0.0,0.0,0.0,0.0,0.0,0.0,-6.6053,-6.66,-6.6405,0.0,0.0,-6.5936,-6.6092,-6.6639,-6.6795,-6.6678,-6.6092,-6.578,-6.5197,-6.372,-6.3186,-6.2765,-6.187,-6.1718,-6.1719,-6.1719,-6.1674,-6.1566,0.0,0.0,-6.1264,-6.1116,-6.1032,-6.0992,-6.099,-6.0955,-6.09,-6.0816,-6.0793,-6.0781,-6.0781,-6.0781,-6.0781,-6.0781,-6.0781,-6.0781,-6.0781,-6.0781,-6.0781,-6.0781,-6.0781,-6.0627,-6.0281,-6.0896,-6.132,-6.155,-6.2166,-6.2897,-6.3666,-6.3666,-6.4166,-6.4974,-6.4974,-6.5359,-6.5897,-6.5897,-6.5897,-6.5897,-6.5897,-6.5897,-6.582,0.0,0.0,0.0,0.0,0.0,0.0,-7.0419,-7.0419,-7.0419,-7.0419,-7.0419,-7.0419,-7.0419,-7.0419,-7.0419,-7.0419,0.0,0.0,0.0,0.0,0.0,0.0,0.0,0.0,0.0,0.0,-6.5413,-6.5413,-6.5608,-6.5703,-6.5717,-6.6035,-6.6187,-6.6196,0.0,0.0,0.0,0.0,0.0,0.0,0.0,0.0,0.0,0.0,0.0,0.0,0.0,0.0,0.0,0.0,0.0,0.0,0.0,-6.6795,0.0,0.0,-6.6795,-6.6795,-6.6795,-6.6795,-6.6795,-6.6795,-6.617,-6.5351,-6.4494,-6.3613,-6.2764,-6.1865,-6.1716,-6.1719,-6.1719,-6.1719,-6.1633,-6.1443,0.0,0.0,-6.1134,-6.1032,-6.1002,-6.1002,-6.0948,-6.0911,-6.0911,-6.0854,-6.0781,-6.0781,-6.0781,-6.0781,-6.0781,-6.0781,-6.0781,-6.0781,-6.0781,-6.0781,-6.0781,-6.0781,-6.1243,-6.2062,-6.2101,-6.2512,-6.3281,-6.3269,-6.3782,-6.4589,-6.4589,-6.5089,-6.5897,-6.5897,-6.5897,-6.5897,-6.5897,-6.5897,-6.5897,-6.5897,-6.5897,-6.5897,0.0,0.0,0.0,0.0,0.0,0.0,0.0,-7.0419,-7.0419,-7.0419,-7.0419,-7.0419,-7.0419,-7.0419,-7.0419,-7.0419,0.0,0.0,0.0,0.0,0.0,0.0,0.0,0.0,0.0,-6.7018,-6.633,-6.6427,-6.5945,-6.5795,-6.5893,-6.6088,-6.6187,-6.6196,-6.6414,-6.6508,0.0,0.0,0.0,0.0,0.0,0.0,-6.6594,0.0,0.0,0.0,0.0,0.0,0.0,0.0,0.0,0.0,0.0,0.0,0.0,-6.6795,0.0,0.0,-6.6795,-6.6795,-6.6795,-6.6795,-6.66,-6.6209,-6.539,-6.4509,-6.3622,-6.2764,-6.2107,-6.1719,-6.1719,-6.1719,-6.1633,-6.1443,-6.1412,0.0,-6.1134,-6.106,-6.1041,-6.1012,-6.0948,-6.0911,-6.0911,-6.0854,-6.0781,-6.0781,-6.0781,-6.0781,-6.0781,-6.0781,-6.0781,-6.0781,-6.0781,-6.0781,-6.0781,-6.1408,-6.1831,-6.2101,-6.2666,-6.3358,-6.4205,-6.4205,-6.4666,-6.5474,-6.5474,-6.5628,-6.5897,-6.5897,-6.5897,-6.5897,-6.5897,-6.5897,-6.5897,-6.5897,-6.5897,-6.5897,0.0,0.0,0.0,0.0,0.0,0.0,0.0,-7.0419,-7.0419,-7.0419,-7.0419,-7.0419,-7.0419,-7.0419,-7.0419,-7.0419,0.0,0.0,0.0,0.0,0.0,0.0,0.0,0.0,-6.9196,-6.7553,-6.6757,-6.6907,-6.6179,-6.5893,-6.6084,-6.6244,-6.6308,-6.6316,-6.6431,-6.6508,0.0,0.0,0.0,0.0,0.0,0.0,-6.6663,0.0,0.0,0.0,0.0,0.0,0.0,0.0,0.0,0.0,0.0,0.0,0.0,0.0,-6.6795,0.0,0.0,-6.6795,-6.6795,-6.6795,-6.6795,0.0,-6.578,-6.5173,-6.4442,-6.3232,-6.2576,-6.2109,-6.1758,-6.1719,-6.1633,-6.1443,-6.1412,-6.1334,-6.1134,-6.1118,-6.1099,-6.1012,-6.0941,-6.0916,-6.0911,-6.0877,-6.0843,-6.0781,-6.0781,-6.0781,-6.0781,-6.0781,-6.0781,-6.0781,-6.0781,-6.0973,-6.1293,-6.1831,-6.2409,-6.3051,-6.3551,-6.4243,-6.5089,-6.5089,-6.5397,-6.5897,-6.5897,-6.5897,0.0,-6.5897,-6.5897,-6.5897,-6.5897,-6.5897,-6.5897,-6.5897,-6.5897,-6.5897,0.0,0.0,0.0,0.0,0.0,0.0,0.0,-7.0419,-7.0419,-7.0419,-7.0419,-7.0419,-7.0419,-7.0419,-7.0419,-7.0419,0.0,0.0,0.0,0.0,0.0,0.0,0.0,0.0,-6.9273,-6.7706,-6.691,-6.7011,-6.6394,-6.6112,-6.6244,-6.6414,-6.6508,-6.6508,-6.6508,-6.6508,0.0,0.0,0.0,0.0,-6.6627,-6.6663,0.0,0.0,0.0,0.0,0.0,0.0,0.0,0.0,0.0,0.0,0.0,0.0,0.0,0.0,0.0,0.0,0.0,-6.6795,-6.6795,-6.6795,-6.6795,-6.66,-6.5858,-6.5641,0.0,-6.3506,-6.3083,-6.2734,-6.1953,-6.1758,-6.1633,-6.1452,-6.1417,-6.1334,-6.1152,-6.1127,-6.106,-6.1012,-6.1002,-6.0962,-6.0894,-6.0911,-6.0888,-6.0793,-6.0781,-6.0781,-6.0781,-6.0781,-6.0819,-6.0896,-6.0896,-6.1293,-6.2101,-6.2216,-6.3051,-6.4589,-6.4666,-6.5128,-6.5897,-6.5897,-6.5897,-6.5897,-6.5897,-6.5897,-6.5897,-6.5897,-6.5897,-6.5897,-6.582,-6.5859,-6.5897,-6.582,-6.5859,-6.5897,0.0,0.0,0.0,0.0,0.0,0.0,0.0,0.0,0.0,0.0,-7.0419,-7.0419,-7.0419,-7.0419,-7.0419,0.0,0.0,0.0,0.0,0.0,0.0,0.0,0.0,0.0,-7.0113,-6.912,-6.844,-6.8128,-6.7289,-6.6745,-6.6422,-6.6493,-6.6508,-6.6508,-6.6508,-6.6508,0.0,0.0,0.0,0.0,-6.6674,-6.6732,0.0,0.0,0.0,0.0,-6.6795,-6.6795,0.0,0.0,0.0,0.0,0.0,0.0,0.0,0.0,-6.6795,0.0,-6.6795,0.0,-6.6795,-6.6795,-6.6795,-6.6756,0.0,-6.6032,-6.5496,-6.5067,-6.3943,-6.293,-6.2734,-6.2148,-6.1677,-6.1557,-6.146,-6.1367,-6.1281,-6.1169,-6.107,-6.106,-6.1032,-6.0992,-6.0972,-6.0927,-6.09,-6.0888,-6.0843,-6.0781,-6.0781,-6.0781,-6.1089,-6.1793,-6.1793,-6.1908,-6.2101,-6.3358,-6.4205,-6.4628,-6.5282,-6.5705,-6.5897,-6.5897,-6.5897,-6.5897,-6.5897,-6.5897,-6.5897,-6.5897,-6.5897,-6.582,-6.5166,-6.532,-6.582,-6.5166,-6.532,-6.5897,0.0,0.0,0.0,0.0,0.0,0.0,0.0,0.0,0.0,0.0,0.0,0.0,0.0,0.0,0.0,0.0,0.0,0.0,0.0,0.0,0.0,0.0,0.0,-7.0563,-7.0666,-6.9875,-6.9194,-6.8635,-6.7746,-6.7029,-6.6508,-6.6508,-6.6508,-6.6508,-6.6508,-6.6508,-6.6508,-6.6546,-6.6569,-6.663,-6.6727,0.0,0.0,0.0,0.0,0.0,-6.6795,-6.6795,0.0,-6.6795,-6.6795,-6.6795,0.0,0.0,0.0,0.0,-6.6795,-6.6795,-6.6795,-6.6795,-6.6795,-6.6795,-6.6795,-6.6795,-6.6795,-6.65,-6.6082,-6.5692,-6.4529,-6.3476,-6.3086,-6.2305,-6.1678,-6.1612,-6.1471,-6.1356,-6.1229,-6.1143,-6.1118,-6.1118,-6.1051,-6.1032,-6.1002,-6.099,-6.0927,-6.0911,-6.0877,-6.0816,-6.0781,-6.1166,-6.1589,-6.2101,-6.2858,-6.3243,-6.3243,-6.4166,-6.4782,-6.5205,-6.5667,-6.5897,-6.5897,-6.5897,-6.5897,-6.5897,-6.5897,-6.5897,-6.5897,-6.5897,-6.5667,-6.5243,-6.4782,-6.4897,-6.5243,-6.4782,-6.5166,-6.5897,0.0,0.0,0.0,0.0,0.0,0.0,0.0,0.0,0.0,0.0,0.0,0.0,0.0,0.0,0.0,0.0,0.0,0.0,0.0,0.0,0.0,0.0,-7.0742,-7.0848,-7.1016,-7.0334,-6.9579,-6.881,-6.8045,-6.7307,-6.6508,-6.6508,-6.6508,-6.6508,-6.6508,-6.6516,-6.6531,-6.6594,-6.6624,-6.6727,-6.6767,0.0,0.0,0.0,0.0,0.0,0.0,0.0,0.0,-6.6795,-6.6795,-6.6795,-6.6795,0.0,0.0,0.0,0.0,0.0,-6.6795,-6.6795,-6.6795,-6.6795,-6.6795,-6.6795,-6.6795,-6.6852,-6.6708,-6.5965,-6.4997,-6.4062,-6.332,-6.2383,-6.1678,-6.1619,-6.1478,-6.1334,-6.1134,-6.1118,-6.1118,-6.1118,-6.1118,-6.106,-6.1022,-6.1012,-6.0962,-6.0933,-6.0911,-6.0927,-6.0985,-6.1716,-6.2216,-6.2486,-6.3858,-6.4666,-6.4782,-6.4782,-6.5166,-6.5897,-6.5897,-6.5897,-6.5897,-6.5897,-6.5897,-6.5897,-6.5897,-6.582,-6.5705,-6.5705,-6.5205,-6.4397,-6.4282,-6.4359,-6.4589,-6.4436,-6.5051,-6.5897,0.0,0.0,0.0,0.0,0.0,0.0,0.0,0.0,0.0,0.0,0.0,0.0,0.0,0.0,0.0,0.0,0.0,0.0,0.0,0.0,0.0,-7.1214,-7.1026,-7.0953,-7.0978,-7.0862,-7.0147,-6.881,-6.8655,-6.7888,-6.6508,-6.6508,-6.6508,-6.6508,-6.6508,-6.6546,-6.6607,-6.662,-6.6691,-6.6775,-6.6779,0.0,0.0,0.0,0.0,0.0,0.0,0.0,0.0,-6.6795,-6.6795,-6.6795,-6.6795,0.0,0.0,0.0,0.0,0.0,-6.6795,-6.6795,-6.6795,-6.6795,-6.6795,-6.6795,-6.6795,-6.6852,-6.6865,-6.6747,-6.5427,-6.4258,-6.414,-6.2773,-6.1719,-6.1679,-6.1509,-6.1334,-6.1134,-6.1118,-6.1118,-6.1118,-6.1118,-6.1118,-6.1109,-6.1032,-6.101,-6.0987,-6.0933,-6.1196,-6.187,-6.2024,-6.2743,-6.4166,-6.4474,-6.4936,-6.5705,-6.5705,-6.5782,-6.5897,-6.5897,-6.5897,-6.5897,-6.5897,-6.5897,-6.5897,-6.5897,-6.5474,-6.4782,-6.4782,-6.4282,-6.3435,-6.2743,-6.3358,-6.4512,-6.3782,-6.4512,-6.5897,0.0,0.0,0.0,0.0,0.0,0.0,0.0,0.0,0.0,0.0,0.0,0.0,0.0,0.0,0.0,0.0,0.0,0.0,0.0,0.0,-7.1349,-7.1463,-7.1359,-7.1319,-7.1319,-7.1319,-7.0535,-6.8972,-6.8972,-6.8114,-6.6508,-6.6508,-6.6508,-6.6508,-6.6553,-6.6555,-6.6588,-6.6696,-6.6746,-6.6787,0.0,0.0,0.0,0.0,0.0,0.0,0.0,0.0,0.0,0.0,-6.6795,-6.6795,-6.6795,0.0,0.0,0.0,0.0,0.0,-6.6795,-6.6795,-6.6795,-6.6795,-6.6795,-6.6795,-6.6795,-6.6809,-6.6859,-6.6902,-6.5504,-6.4296,-6.4297,-6.289,-6.1677,-6.1566,-6.1467,-6.1334,-6.1134,-6.1118,-6.1118,-6.1118,-6.1118,-6.1118,-6.1118,-6.106,-6.1022,-6.101,-6.0987,-6.128,-6.2071,-6.2497,-6.332,-6.4551,-6.5051,-6.5474,-6.5897,-6.5897,-6.5897,-6.5897,-6.5897,-6.5897,-6.5897,-6.5897,-6.5897,-6.5859,-6.5397,-6.4974,-6.4551,-6.4089,-6.3397,-6.2589,-6.2243,-6.282,-6.3974,-6.4512,-6.5205,-6.5897,0.0,0.0,0.0,0.0,0.0,0.0,0.0,0.0,0.0,0.0,0.0,0.0,0.0,0.0,0.0,0.0,0.0,0.0,0.0,0.0,-7.1598,-7.1598,-7.1598,-7.1598,-7.1598,-7.1403,-7.0588,-6.9111,-6.8917,-6.8024,-6.6508,-6.6508,-6.6516,-6.6538,-6.6601,-6.66,-6.6635,-6.6755,-6.6791,-6.6801,0.0,0.0,0.0,0.0,0.0,0.0,0.0,0.0,0.0,0.0,0.0,0.0,0.0,0.0,0.0,-6.6795,-6.6795,-6.6795,-6.6795,-6.6795,-6.6795,-6.6795,-6.6795,-6.6795,-6.6795,-6.6805,-6.6815,-6.6901,-6.5697,-6.4529,-6.4336,-6.289,-6.1633,-6.1443,-6.1412,-6.1334,-6.1134,-6.1118,-6.1118,-6.1118,-6.1118,-6.1118,-6.1118,-6.1118,-6.106,-6.1012,-6.1183,-6.1621,-6.2375,-6.3164,-6.4012,-6.4897,-6.5551,-6.5897,-6.5897,-6.5897,-6.5897,-6.5897,-6.5897,-6.5897,-6.5897,-6.5897,-6.5782,-6.5551,-6.4897,-6.4397,-6.3974,-6.3281,-6.2551,-6.1831,-6.2024,-6.2704,-6.3782,-6.532,-6.5897,-6.5897,0.0,0.0,0.0,0.0,0.0,0.0,0.0,0.0,0.0,0.0,0.0,0.0,0.0,0.0,0.0,0.0,0.0,0.0,0.0,0.0,-7.1598,-7.1598,-7.1598,-7.1598,-7.1598,-7.0821,-6.9966,-6.9111,-6.8296,-6.7402,-6.6508,-6.6508,-6.6546,-6.6575,-6.6581,-6.6686,-6.6775,-6.6779,-6.6805,-6.6792,-6.6795,0.0,0.0,0.0,0.0,0.0,0.0,0.0,0.0,0.0,0.0,0.0,0.0,0.0,-6.6795,-6.6795,-6.6795,-6.6795,-6.6795,-6.6795,-6.6795,-6.6795,-6.6795,-6.6795,-6.6795,-6.6805,-6.6815,-6.6901,-6.6166,-6.5271,-6.4453,-6.289,-6.1633,-6.1443,-6.1412,-6.1334,-6.1134,-6.1118,-6.1118,-6.1118,-6.1118,-6.1118,-6.1118,-6.1118,-6.106,-6.1012,-6.1685,-6.2469,-6.3261,-6.4087,-6.4897,-6.5782,-6.5859,-6.5897,-6.5897,-6.5897,-6.5897,-6.5897,-6.5897,-6.5897,-6.5897,-6.5897,-6.5474,-6.4705,-6.4628,-6.3705,-6.2293,-6.2216,-6.1678,-6.0973,-6.1793,-6.3089,-6.4628,-6.5551,-6.5897,-6.5897,0.0,0.0,0.0,0.0,0.0,0.0,0.0,0.0,0.0,0.0,0.0,0.0,0.0,0.0,0.0,0.0,0.0,0.0,0.0,-7.1706,-7.1725,-7.1675,-7.1675,-7.1381,-7.0782,-7.0471,-6.9927,-6.9111,-6.7726,-6.6871,-6.6508,-6.6601,-6.6633,-6.6588,-6.6702,-6.6755,-6.6783,-6.6808,-6.6787,-6.6795,-6.6795,-6.6795,0.0,0.0,0.0,0.0,0.0,0.0,0.0,0.0,-6.6795,-6.6795,-6.6795,-6.6795,-6.6795,-6.6795,-6.6795,-6.6795,-6.6795,-6.6795,-6.6795,-6.6795,-6.6795,-6.6795,-6.6795,-6.6805,-6.6813,-6.6817,-6.6163,-6.5154,-6.375,-6.25,-6.1633,-6.1443,-6.1412,-6.1334,-6.1134,-6.1118,-6.1118,-6.1118,-6.1118,-6.1118,-6.1118,-6.1118,-6.1109,-6.1051,-6.1813,-6.2601,-6.3433,-6.4224,-6.5062,-6.5859,-6.5897,-6.5897,-6.5897,-6.5897,-6.5897,-6.5897,-6.5897,-6.5897,-6.5859,-6.532,-6.4897,-6.4551,-6.3512,-6.2666,-6.2062,-6.1524,-6.1089,-6.0935,-6.232,-6.3551,-6.4705,-6.559,-6.5897,-6.5897,0.0,0.0,0.0,0.0,0.0,0.0,0.0,0.0,0.0,0.0,0.0,0.0,0.0,0.0,0.0,0.0,0.0,0.0,-7.1817,-7.1817,-7.18,-7.1712,-7.1479,-7.1024,-7.0392,-6.9848,-6.9289,-6.8715,-6.7321,-6.6627,-6.6581,-6.6674,-6.6702,-6.6686,-6.6759,-6.6791,-6.6805,-6.6787,-6.6795,-6.6795,-6.6795,-6.6795,0.0,0.0,0.0,0.0,0.0,0.0,0.0,0.0,-6.6795,-6.6795,-6.6795,-6.6795,-6.6795,-6.6795,-6.6795,-6.6795,-6.6795,-6.6795,-6.6795,-6.6795,-6.6795,-6.6795,-6.6795,-6.6805,-6.6813,-6.6817,-6.6165,-6.5155,-6.3672,-6.2695,-6.1987,-6.1517,-6.1431,-6.1345,-6.1173,-6.1116,-6.1118,-6.1118,-6.1118,-6.1118,-6.1118,-6.1118,-6.1195,-6.1505,-6.2268,-6.3068,-6.3891,-6.4683,-6.5356,-6.5859,-6.5897,-6.5897,-6.5897,-6.5897,-6.5897,-6.5897,-6.5628,-6.5474,-6.5474,-6.4859,-6.432,-6.3743,-6.2601,-6.1947,-6.1639,-6.105,-6.1089,-6.1704,-6.2858,-6.4012,-6.5089,-6.5667,-6.5897,-6.5897,0.0,0.0,0.0,0.0,0.0,0.0,0.0,0.0,0.0,0.0,0.0,0.0,0.0,0.0,0.0,0.0,0.0,0.0,-7.1783,-7.1783,-7.1783,-7.1817,-7.0959,-7.0486,-7.0486,-6.885,-6.7965,-6.7898,-6.7069,-6.6712,-6.6712,-6.6712,-6.6741,-6.6783,-6.6783,-6.6805,-6.6795,-6.6795,-6.6795,-6.6795,-6.6795,-6.6795,-6.6795,0.0,0.0,0.0,0.0,0.0,0.0,0.0,-6.6795,-6.6795,-6.6795,-6.6795,-6.6795,-6.6795,-6.6795,-6.6795,-6.6795,-6.6795,-6.6795,-6.6795,-6.6795,-6.6795,-6.6795,-6.6805,-6.6815,-6.6901,-6.6208,-6.5351,-6.4453,-6.3594,-6.2693,-6.1768,-6.1471,-6.1378,-6.133,-6.1164,-6.1118,-6.1118,-6.1118,-6.1118,-6.1118,-6.1118,-6.1466,-6.2356,-6.3157,-6.3956,-6.4778,-6.5569,-6.5972,-6.5897,-6.5897,-6.5897,-6.5897,-6.5897,-6.5897,-6.5859,-6.5013,-6.4589,-6.4589,-6.4589,-6.3666,-6.2101,-6.2101,-6.1601,-6.0781,-6.0819,-6.1781,-6.3308,-6.3308,-6.4359,-6.5897,-6.5897,-6.5897,-6.5897,0.0,0.0,0.0,0.0,0.0,0.0,0.0,0.0,0.0,0.0,0.0,0.0,0.0,0.0,0.0,0.0,0.0,0.0,-7.1959,-7.1959,-7.1905,-7.1872,-7.1053,-7.0259,-6.9596,-6.7993,-6.7131,-6.7075,-6.6858,-6.6746,-6.6712,-6.674,-6.6798,-6.6783,-6.6811,-6.6787,-6.6795,-6.6795,-6.6795,-6.6795,-6.6795,-6.6795,-6.6795,0.0,0.0,0.0,0.0,0.0,0.0,0.0,0.0,0.0,-6.6795,0.0,-6.6795,-6.6795,-6.6795,-6.6795,-6.6795,-6.6795,-6.6795,-6.6795,-6.6795,-6.6795,-6.6795,-6.6805,-6.6817,-6.6907,-6.6208,-6.5507,-6.5273,-6.3984,-6.2889,-6.259,-6.1904,-6.1378,-6.133,-6.1164,-6.1118,-6.1118,-6.1118,-6.1118,-6.1118,-6.166,-6.2124,-6.2394,-6.3777,-6.4655,-6.4778,-6.5566,-6.597,-6.591,-6.5897,-6.5897,-6.5897,-6.5897,-6.559,-6.4974,-6.4705,-6.4589,-6.4551,-6.3358,-6.2563,-6.2062,-6.1447,-6.105,-6.0858,-6.1447,-6.232,-6.3346,-6.3974,-6.4897,-6.5897,-6.5897,-6.5897,-6.5897,0.0,0.0,0.0,0.0,0.0,0.0,0.0,0.0,0.0,0.0,-7.3009,0.0,0.0,0.0,0.0,0.0,0.0,0.0,0.0,-7.1987,-7.1822,-7.1448,-7.059,-6.9525,-6.8253,-6.7301,-6.6794,-6.6732,-6.6794,-6.6794,-6.6732,-6.6778,-6.6787,-6.6808,-6.6787,-6.6795,-6.6795,-6.6795,-6.6795,-6.6795,-6.6795,-6.6795,-6.6795,0.0,0.0,0.0,0.0,0.0,0.0,0.0,0.0,0.0,-6.6795,0.0,-6.6795,-6.6795,-6.6795,-6.6795,-6.6795,-6.6795,-6.6795,-6.6795,-6.6795,-6.6798,-6.6802,-6.6811,-6.6862,-6.6873,-6.6483,-6.6015,-6.5664,-6.4726,-6.3788,-6.3076,-6.2413,-6.1829,-6.1406,-6.1259,-6.1169,-6.1127,-6.1118,-6.1234,-6.1582,-6.2085,-6.2704,-6.3362,-6.4406,-6.509,-6.528,-6.5731,-6.5955,-6.591,-6.5897,-6.5897,-6.5897,-6.5551,-6.5128,-6.4589,-6.3935,-6.3589,-6.3551,-6.2563,-6.1908,-6.155,-6.1012,-6.0781,-6.0858,-6.1755,-6.2551,-6.3397,-6.4282,-6.5128,-6.5897,-6.5897,-6.5897,-6.5897,0.0,0.0,0.0,0.0,0.0,0.0,0.0,0.0,0.0,0.0,-7.3002,-7.1987,0.0,0.0,0.0,0.0,0.0,0.0,0.0,0.0,-7.148,-7.0621,-6.9762,-6.8513,-6.6834,-6.6795,-6.6795,-6.6795,-6.6795,-6.6795,-6.6795,-6.6795,-6.6795,-6.6795,-6.6795,-6.6795,-6.6795,-6.6795,-6.6795,-6.6795,-6.6795,-6.6795,-6.6795,-6.6795,0.0,0.0,0.0,0.0,0.0,0.0,0.0,0.0,-6.6795,-6.6795,-6.6795,-6.6795,-6.6795,-6.6795,-6.6795,-6.6795,-6.6795,-6.6795,-6.6795,-6.68,-6.6811,-6.6859,-6.6907,-6.6914,-6.6914,-6.664,-6.5859,-6.5664,-6.5078,-6.3476,-6.3114,-6.268,-6.1777,-6.1589,-6.1485,-6.1339,-6.135,-6.166,-6.2433,-6.2588,-6.3284,-6.487,-6.5064,-6.5361,-6.5974,-6.6001,-6.5955,-6.591,-6.5897,-6.5897,-6.5897,-6.5051,-6.4551,-6.4474,-6.2858,-6.2062,-6.1985,-6.1985,-6.155,-6.0781,-6.0781,-6.0858,-6.0973,-6.187,-6.2704,-6.3512,-6.4397,-6.5205,-6.5897,-6.5897,-6.5897,-6.5897,0.0,0.0,0.0,0.0,0.0,0.0,0.0,0.0,0.0,0.0,0.0,0.0,0.0,0.0,0.0,0.0,0.0,0.0,0.0,0.0,-7.0582,-6.9723,-6.8825,-6.7888,-6.6834,-6.6795,-6.6795,-6.6795,-6.6795,-6.6795,-6.6795,-6.6795,-6.6795,-6.6795,-6.6795,-6.6795,-6.6795,-6.6795,-6.6795,-6.6795,-6.6795,-6.6795,-6.6795,-6.6795,-6.6795,0.0,0.0,0.0,0.0,0.0,0.0,0.0,-6.6795,-6.6795,-6.6795,-6.6795,-6.6795,-6.6795,-6.6795,-6.6795,-6.6795,-6.6795,-6.6795,-6.6802,-6.6859,-6.6902,-6.6905,-6.6911,-6.6914,-6.6836,-6.664,-6.6055,-6.5469,-6.5117,-6.4403,-6.3812,-6.3492,-6.3339,-6.3231,-6.3158,-6.3139,-6.3216,-6.34,-6.4019,-6.4599,-6.4948,-6.5605,-6.594,-6.6013,-6.6001,-6.5955,-6.591,-6.5897,-6.5897,-6.5897,-6.5051,-6.4282,-6.3589,-6.2551,-6.1755,-6.1089,-6.1089,-6.0973,-6.0781,-6.0781,-6.1166,-6.187,-6.2704,-6.3551,-6.4397,-6.5282,-6.5743,-6.5897,-6.5897,-6.5897,-6.5897,0.0,0.0,0.0,0.0,0.0,0.0,0.0,0.0,0.0,0.0,0.0,0.0,0.0,0.0,0.0,0.0,0.0,0.0,0.0,0.0,-6.9684,-6.8825,-6.7927,-6.7264,-6.6795,-6.6795,-6.6795,-6.6795,-6.6795,-6.6795,-6.6795,-6.6795,-6.6795,-6.6795,-6.6795,-6.6795,-6.6795,-6.6795,-6.6795,-6.6795,-6.6795,-6.6795,-6.6795,-6.6795,-6.6795,-6.6795,0.0,0.0,0.0,0.0,0.0,0.0,0.0,0.0,-6.6795,-6.6795,-6.6795,-6.6795,-6.6795,-6.6795,-6.6795,-6.6795,-6.6795,-6.68,-6.6856,-6.6862,-6.6905,-6.6911,-6.6913,-6.6914,-6.6914,-6.6523,-6.6094,-6.5664,-6.5192,-6.4706,-6.418,-6.3974,-6.3845,-6.3765,-6.3737,-6.3874,-6.43,-6.4725,-6.5141,-6.5528,-6.5953,-6.6144,-6.6058,-6.6024,-6.5967,-6.5947,-6.5923,-6.5897,-6.5897,-6.4628,-6.3743,-6.3269,-6.205,-6.1243,-6.0781,-6.0781,-6.0781,-6.0781,-6.0781,-6.1281,-6.2178,-6.2974,-6.382,-6.4705,-6.5551,-6.5897,-6.5897,-6.5897,-6.5897,-6.5897,0.0,0.0,0.0,0.0,0.0,0.0,0.0,0.0,0.0,0.0,0.0,0.0,0.0,0.0,0.0,0.0,0.0,0.0,0.0,0.0,0.0,-6.7927,-6.7185,-6.6795,-6.6795,-6.6795,-6.6795,-6.6795,-6.6795,-6.6795,-6.6795,-6.6795,-6.6795,-6.6795,-6.6795,-6.6795,-6.6795,-6.6795,-6.6795,-6.6795,-6.6795,-6.6795,-6.6795,-6.6795,-6.6795,-6.6795,-6.6795,0.0,-6.6795,-6.6795,0.0,0.0,0.0,0.0,-6.6795,-6.6795,-6.6795,-6.6795,-6.6795,-6.6795,-6.6795,-6.6795,-6.6795,-6.68,-6.6809,-6.6859,-6.6905,-6.6911,-6.6913,-6.6914,-6.6914,-6.6914,-6.664,-6.5937,-6.582,-6.5545,-6.4737,-6.4513,-6.441,-6.4245,-6.4188,-6.4416,-6.5141,-6.5218,-6.5489,-6.6147,-6.6185,-6.6165,-6.6102,-6.6036,-6.5978,-6.6008,-6.5935,-6.582,-6.5667,-6.4089,-6.3243,-6.3089,-6.1512,-6.0781,-6.0781,-6.0781,-6.0781,-6.0781,-6.0781,-6.1358,-6.237,-6.3051,-6.3897,-6.4897,-6.5628,-6.5897,-6.5897,-6.5897,-6.5897,-6.5897,0.0,0.0,0.0,0.0,0.0,0.0,0.0,0.0,0.0,0.0,-7.2065,-7.1987,0.0,0.0,0.0,0.0,0.0,0.0,0.0,0.0,0.0,-6.699,-6.6873,-6.6795,-6.6795,-6.6795,-6.6795,-6.6795,-6.6795,-6.6795,-6.6795,-6.6795,-6.6795,-6.6795,-6.6795,-6.6795,-6.6795,-6.6795,-6.6795,-6.6795,-6.6795,-6.6795,-6.6795,-6.6795,-6.6795,-6.6795,-6.6795,-6.6795,-6.6795,-6.6795,-6.6795,0.0,0.0,0.0,-6.6795,-6.6795,-6.6795,-6.6795,-6.6795,-6.6795,-6.6795,-6.6795,-6.6795,-6.68,-6.6809,-6.6859,-6.6905,-6.6911,-6.6913,-6.6914,-6.6914,-6.6914,-6.6875,-6.6758,-6.6719,-6.6639,-6.6414,-6.6303,-6.6201,-6.6057,-6.5923,-6.5915,-6.6031,-6.6031,-6.6069,-6.6185,-6.6185,-6.6165,-6.6102,-6.6036,-6.5978,-6.6008,-6.5935,-6.5551,-6.4782,-6.3782,-6.2935,-6.2255,-6.1281,-6.0781,-6.0781,-6.0781,-6.0781,-6.0781,-6.0781,-6.1704,-6.3166,-6.3281,-6.4282,-6.5743,-6.5859,-6.5897,-6.5897,-6.5897,-6.5897,-6.5897,0.0,0.0,0.0,0.0,0.0,0.0,0.0,0.0,0.0,0.0,0.0,-7.1987,0.0,0.0,0.0,0.0,0.0,0.0,0.0,0.0,0.0,0.0,-6.6795,-6.6795,-6.6795,-6.6795,-6.6795,-6.6795,-6.6795,-6.6795,-6.6795,-6.6795,-6.6795,-6.6795,-6.6795,-6.6795,-6.6795,-6.6795,-6.6795,-6.6795,-6.6795,-6.6795,-6.6795,-6.6795,-6.6795,-6.6795,-6.6795,-6.6795,-6.6795,-6.6795,-6.6795,-6.6795,-6.6795,0.0,0.0,0.0,-6.6795,-6.6795,-6.6795,-6.6795,-6.6795,-6.6795,-6.6795,-6.68,-6.6809,-6.6859,-6.6905,-6.6911,-6.6913,-6.6914,-6.6914,-6.6914,-6.6914,-6.6914,-6.6914,-6.6874,-6.6829,-6.6684,-6.6574,-6.6522,-6.6334,-6.6185,-6.6185,-6.6185,-6.6185,-6.6185,-6.6185,-6.6175,-6.6155,-6.6058,-6.599,-6.6005,-6.5921,-6.5474,-6.4628,-6.3743,-6.2666,-6.1358,-6.0973,-6.0781,-6.0781,-6.0781,-6.0781,-6.0819,-6.132,-6.2204,-6.3346,-6.382,-6.4782,-6.5897,-6.5897,-6.5897,-6.5897,-6.5897,-6.5897,-6.5897,0.0,0.0,0.0,0.0,0.0,0.0,0.0,0.0,0.0,0.0,0.0,0.0,0.0,0.0,0.0,0.0,0.0,0.0,0.0,0.0,0.0,0.0,0.0,-6.6795,-6.6795,-6.6795,-6.6795,-6.6795,-6.6795,-6.6795,-6.6795,-6.6795,-6.6795,-6.6795,-6.6795,-6.6795,-6.6795,-6.6795,-6.6795,-6.6795,-6.6795,-6.6795,-6.6795,-6.6795,-6.6795,-6.6795,-6.6795,-6.6795,-6.6795,-6.6795,-6.6795,-6.6795,-6.6795,-6.6795,0.0,0.0,0.0,-6.6795,-6.6795,-6.6795,-6.6795,-6.6795,-6.6795,-6.6798,-6.6807,-6.6857,-6.6905,-6.6909,-6.6913,-6.6914,-6.6914,-6.6914,-6.6914,-6.6914,-6.6914,-6.6914,-6.6914,-6.6756,-6.6624,-6.6595,-6.6384,-6.6245,-6.6195,-6.6185,-6.6185,-6.6185,-6.6185,-6.6185,-6.6185,-6.6069,-6.6001,-6.6001,-6.5741,-6.5166,-6.4282,-6.3205,-6.205,-6.0781,-6.0781,-6.0781,-6.0781,-6.0781,-6.0781,-6.0858,-6.1716,-6.2551,-6.3346,-6.4243,-6.5128,-6.5897,-6.5897,-6.5897,-6.5897,-6.5897,-6.5897,-6.5897,0.0,0.0,0.0,0.0,0.0,0.0,0.0,0.0,0.0,0.0,0.0,0.0,-7.0777,-6.9996,-6.9137,-6.8318,0.0,0.0,0.0,0.0,0.0,0.0,0.0,0.0,-6.6795,-6.6795,-6.6795,-6.6795,-6.6795,-6.6795,-6.6795,-6.6795,-6.6795,-6.6795,-6.6795,-6.6795,-6.6795,-6.6795,-6.6795,-6.6795,-6.6795,-6.6795,-6.6795,-6.6795,-6.6795,-6.6795,-6.6795,-6.6795,-6.6795,-6.6795,-6.6795,-6.6795,-6.6795,-6.6795,-6.6795,0.0,0.0,0.0,-6.6795,-6.6795,-6.6795,-6.6795,-6.6795,-6.6798,-6.6798,-6.6852,-6.6904,-6.6904,-6.6912,-6.6914,-6.6914,-6.6914,-6.6914,-6.6914,-6.6914,-6.6914,-6.6914,-6.6782,-6.6652,-6.6605,-6.6478,-6.6351,-6.6205,-6.6185,-6.6185,-6.6185,-6.6185,-6.6185,-6.6185,-6.6069,-6.6001,-6.6001,-6.5113,-6.4243,-6.3397,-6.1743,-6.0896,-6.0781,-6.0781,-6.0781,-6.0781,-6.0781,-6.0781,-6.0858,-6.1716,-6.2551,-6.3346,-6.4243,-6.5128,-6.5897,-6.5897,-6.5897,-6.5897,-6.5897,-6.5897,-6.5897,0.0,0.0,0.0,0.0,0.0,0.0,0.0,0.0,0.0,0.0,0.0,0.0,0.0,-6.9098,-6.8435,-6.8122,-6.7576,0.0,0.0,0.0,0.0,0.0,0.0,0.0,-6.6795,-6.6795,-6.6795,-6.6795,-6.6795,-6.6795,-6.6795,-6.6795,-6.6795,-6.6795,-6.6795,-6.6795,-6.6795,-6.6795,-6.6795,-6.6795,-6.6795,-6.6795,-6.6798,-6.6805,-6.6807,-6.6807,-6.6807,-6.6807,-6.6805,-6.6798,-6.6795,-6.6795,-6.6795,-6.6795,-6.6795,-6.6795,-6.6795,-6.6795,-6.6795,-6.6795,-6.6795,-6.6795,-6.6795,-6.68,-6.6854,-6.686,-6.6906,-6.6912,-6.6914,-6.6914,-6.6914,-6.6914,-6.6914,-6.6914,-6.6914,-6.6914,-6.6914,-6.6784,-6.6694,-6.6605,-6.6484,-6.6359,-6.6205,-6.6185,-6.6185,-6.6185,-6.6185,-6.6185,-6.6185,-6.6112,-6.6047,-6.6013,-6.5122,-6.3984,-6.2551,-6.1358,-6.0781,-6.0781,-6.0781,-6.0781,-6.0781,-6.0781,-6.1089,-6.1678,-6.2512,-6.3051,-6.3423,-6.4859,-6.5628,-6.5897,-6.5897,-6.5897,-6.5897,-6.5897,-6.5897,-6.5897,0.0,0.0,0.0,0.0,0.0,0.0,0.0,0.0,0.0,-7.0777,0.0,0.0,0.0,0.0,-6.7654,-6.7654,-6.7146,-6.6795,-6.6795,0.0,0.0,0.0,0.0,0.0,-6.6795,-6.6795,-6.6795,-6.6795,-6.6795,-6.6795,-6.6795,-6.6795,-6.6795,-6.6795,-6.6795,-6.6795,-6.6795,-6.6795,-6.6798,-6.6802,-6.6802,-6.6805,-6.6848,-6.6815,-6.6817,-6.6817,-6.6817,-6.6817,-6.6817,-6.685,-6.6848,-6.6848,-6.6848,-6.6805,-6.68,-6.6798,-6.6795,-6.6795,-6.6795,-6.6795,-6.6795,-6.6795,-6.6795,-6.6802,-6.6857,-6.6862,-6.6906,-6.6913,-6.6914,-6.6914,-6.6914,-6.6914,-6.6914,-6.6914,-6.6914,-6.6914,-6.6914,-6.683,-6.6724,-6.6654,-6.6546,-6.6407,-6.6272,-6.6225,-6.6185,-6.6185,-6.6185,-6.6185,-6.6185,-6.6134,-6.5799,-6.513,-6.4532,-6.3522,-6.2101,-6.1524,-6.1358,-6.1627,-6.1358,-6.1243,-6.1243,-6.0935,-6.1293,-6.2139,-6.2935,-6.3462,-6.3858,-6.5282,-6.5897,-6.5897,-6.5897,-6.5897,-6.5897,-6.5897,-6.5897,-6.5897,0.0,0.0,0.0,0.0,0.0,0.0,0.0,0.0,-7.066,-7.0621,0.0,0.0,0.0,0.0,0.0,-6.6795,-6.6795,-6.6795,-6.6795,-6.6795,0.0,0.0,0.0,0.0,-6.6795,-6.6795,-6.6795,-6.6795,-6.6795,-6.6795,-6.6795,-6.6795,-6.6795,-6.6795,-6.6795,-6.6798,-6.6798,-6.6798,-6.6802,-6.6811,-6.6811,-6.6857,-6.6904,-6.6904,-6.6904,-6.6904,-6.6904,-6.6904,-6.6904,-6.6904,-6.6904,-6.6904,-6.6904,-6.6859,-6.6811,-6.68,-6.6798,-6.6798,0.0,0.0,0.0,-6.6798,-6.6798,-6.68,-6.6811,-6.6859,-6.6905,-6.6911,-6.6913,-6.6914,-6.6914,-6.6914,-6.6914,-6.6914,-6.6914,-6.6914,-6.6914,-6.6914,-6.6833,-6.6722,-6.665,-6.6546,-6.64,-6.6263,-6.6185,-6.6185,-6.6185,-6.6185,-6.6185,-6.6134,-6.5275,-6.3504,-6.3356,-6.2935,-6.2139,-6.2139,-6.2512,-6.3269,-6.2474,-6.2101,-6.2062,-6.1204,-6.1281,-6.2178,-6.2974,-6.382,-6.4705,-6.5551,-6.5897,-6.5897,-6.5897,-6.5897,-6.5897,-6.5897,-6.5897,-6.5897,0.0,0.0,0.0,0.0,0.0,0.0,0.0,-7.0309,-6.9528,0.0,0.0,0.0,-6.7224,-6.6951,-6.6795,-6.6795,-6.6795,-6.6795,-6.6795,-6.6795,-6.6795,-6.6795,-6.6795,-6.6795,-6.6795,-6.6795,-6.6795,-6.6795,-6.6795,-6.6795,-6.6795,-6.6795,-6.6795,-6.6795,-6.6795,-6.68,-6.6807,-6.6807,-6.6809,-6.6813,-6.6859,-6.6862,-6.6904,-6.6908,-6.691,-6.691,-6.691,-6.691,-6.6909,-6.6905,-6.6904,-6.6904,-6.6904,-6.6902,-6.686,-6.6859,-6.6857,-6.6857,-6.6857,0.0,0.0,0.0,0.0,0.0,-6.6867,-6.6908,-6.6911,-6.6914,-6.6914,-6.6914,-6.6914,-6.6914,-6.6914,-6.6914,-6.6914,-6.6914,-6.6914,-6.6914,-6.6828,-6.6654,-6.661,-6.651,-6.6263,-6.6215,-6.6185,-6.6185,-6.6185,-6.6185,-6.6185,-6.6091,-6.5523,-6.4458,-6.4304,-6.382,-6.2974,-6.2974,-6.3089,-6.3269,-6.2474,-6.2101,-6.2062,-6.1204,-6.1589,-6.2974,-6.3192,-6.4166,-6.5551,-6.5782,-6.5897,-6.5897,-6.5897,-6.5897,-6.5897,-6.5897,-6.5897,-6.5897,0.0,0.0,0.0,0.0,0.0,0.0,-7.0152,-6.9411,-6.8669,0.0,0.0,0.0,-6.6873,-6.6795,-6.6795,-6.6795,-6.6795,-6.6795,-6.6795,-6.6795,-6.6795,-6.6795,-6.6795,-6.6795,-6.6795,-6.6795,-6.6795,-6.6795,-6.6795,-6.6795,-6.6795,-6.6795,-6.6795,-6.6798,-6.68,-6.6807,-6.6813,-6.682,-6.6823,-6.6862,-6.6867,-6.6908,-6.6911,-6.6912,-6.6913,-6.6913,-6.6913,-6.6913,-6.6913,-6.6911,-6.691,-6.691,-6.6908,-6.6907,-6.6907,-6.6904,-6.6904,-6.6904,-6.6904,-6.6904,-6.6904,-6.6904,0.0,0.0,-6.6911,-6.6911,-6.6912,-6.6914,-6.6914,-6.6914,-6.6914,-6.6914,-6.6914,-6.6914,-6.6914,-6.6914,-6.6914,-6.6914,-6.6829,-6.667,-6.6619,-6.6516,-6.6299,-6.6235,-6.6185,-6.6185,-6.6185,-6.6185,-6.6185,-6.6069,-6.5627,-6.4828,-6.4663,-6.4359,-6.3858,-6.3858,-6.4012,-6.4359,-6.3166,-6.2589,-6.2551,-6.1743,-6.205,-6.332,-6.3666,-6.4628,-6.5897,-6.5897,-6.5897,-6.5897,-6.5897,-6.5897,-6.5897,-6.5897,-6.5897,-6.5897,0.0,0.0,0.0,0.0,0.0,0.0,0.0,-6.8513,-6.7966,0.0,-6.7266,-6.6798,-6.68,-6.68,-6.68,-6.68,-6.68,-6.68,-6.6798,-6.6798,-6.6798,-6.6795,-6.6795,-6.6795,-6.6795,-6.6795,-6.6795,-6.6795,-6.6795,-6.6795,-6.6795,-6.6795,-6.6798,-6.6798,-6.6807,-6.6813,-6.6817,-6.6869,-6.6911,-6.6912,-6.6912,-6.6913,-6.6914,-6.6914,-6.6914,-6.6914,-6.6914,-6.6914,-6.6914,-6.6914,-6.6914,-6.6914,-6.6912,-6.6912,-6.6911,-6.6907,-6.6905,-6.6905,-6.6905,-6.6905,-6.6905,-6.6905,-6.6905,0.0,-6.6911,-6.6912,-6.6912,-6.6914,-6.6914,-6.6914,-6.6914,-6.6914,-6.6914,-6.6914,-6.6875,-6.6874,-6.6914,-6.6875,-6.6831,-6.6714,-6.6638,-6.6528,-6.6377,-6.6253,-6.6185,-6.6185,-6.6185,-6.6185,-6.6185,-6.6069,-6.5666,-6.4982,-6.4817,-6.4743,-6.4743,-6.4743,-6.5128,-6.5859,-6.4128,-6.3308,-6.3281,-6.2474,-6.2551,-6.3346,-6.4205,-6.5089,-6.5897,-6.5897,-6.5897,-6.5897,-6.5897,-6.5897,-6.5897,-6.5897,-6.5897,-6.5897,0.0,0.0,0.0,0.0,0.0,0.0,0.0,-6.7615,-6.7068,-6.7068,-6.6922,-6.6813,-6.6859,-6.69,-6.69,-6.69,-6.69,-6.6857,-6.6809,-6.6809,-6.6805,-6.6798,-6.6795,-6.6795,-6.6795,-6.6795,-6.6795,-6.6795,-6.6795,-6.6795,-6.6795,-6.6795,-6.68,-6.6809,-6.6811,-6.682,-6.687,-6.6872,-6.6912,-6.6914,-6.6914,-6.6914,-6.6914,-6.6914,-6.6914,-6.6914,-6.6914,-6.6914,-6.6914,-6.6914,-6.6914,-6.6914,-6.6914,-6.6914,-6.6914,-6.6914,-6.6914,-6.6914,-6.6914,-6.6914,-6.6914,-6.6914,-6.6914,0.0,-6.6914,-6.6914,-6.6914,-6.6914,-6.6914,-6.6914,-6.6914,-6.6914,-6.6914,-6.6914,-6.6828,-6.6782,-6.6875,-6.6827,-6.6712,-6.6633,-6.6522,-6.6377,-6.6264,-6.6205,-6.6185,-6.6185,-6.6185,-6.6185,-6.6185,-6.6069,-6.5924,-6.5781,-6.5702,-6.5628,-6.5628,-6.5628,-6.5743,-6.5859,-6.4128,-6.3308,-6.3281,-6.2474,-6.2551,-6.3346,-6.4205,-6.5089,-6.5897,-6.5897,-6.5897,-6.5897,-6.5897,-6.5897,-6.5897,-6.5897,-6.5897,-6.5897,0.0,0.0,0.0,0.0,0.0,0.0,0.0,0.0,-6.6805,-6.6805,-6.6813,-6.6859,-6.6902,-6.6904,-6.6904,-6.6904,-6.6904,-6.6901,-6.6859,-6.6857,-6.6815,-6.6805,-6.6805,-6.6802,-6.6798,-6.6795,-6.6795,-6.6795,-6.6795,-6.6795,-6.6795,-6.6795,-6.6802,-6.6811,-6.6817,-6.6865,-6.6911,-6.6913,-6.6914,-6.6914,-6.6914,-6.6914,-6.6914,-6.6914,-6.6914,-6.6914,-6.6914,-6.6914,-6.6914,-6.6914,-6.6914,-6.6914,-6.6914,-6.6914,-6.6914,-6.6914,-6.6914,-6.6914,-6.6914,-6.6914,-6.6914,-6.6914,-6.6914,0.0,0.0,-6.6914,-6.6914,-6.6914,-6.6914,-6.6874,-6.6828,-6.6834,-6.6874,-6.6828,-6.6733,-6.6727,-6.6785,-6.6712,-6.6594,-6.6516,-6.6436,-6.6359,-6.6205,-6.6185,-6.6185,-6.6185,-6.6185,-6.6185,-6.6185,-6.6102,-6.6036,-6.6013,-6.5958,-6.5935,-6.5897,-6.5897,-6.5897,-6.5859,-6.4128,-6.3538,-6.3935,-6.3089,-6.3166,-6.4012,-6.4859,-6.5513,-6.5897,-6.5897,-6.5897,-6.5897,-6.5897,-6.5897,-6.5897,-6.5897,-6.5897,-6.5897,-6.8903,0.0,0.0,0.0,0.0,0.0,0.0,0.0,-6.6815,-6.6817,-6.6862,-6.6906,-6.6907,-6.6907,-6.6907,-6.6907,-6.6907,-6.6906,-6.6905,-6.6905,-6.6863,-6.6815,-6.6815,-6.6811,-6.6802,-6.6802,-6.6802,-6.6802,-6.6802,-6.6802,-6.6802,-6.6802,-6.6809,-6.6818,-6.6863,-6.6908,-6.6912,-6.6914,-6.6914,-6.6914,-6.6914,-6.6914,-6.6914,-6.6914,-6.6914,-6.6914,-6.6914,-6.6914,-6.6914,-6.6914,-6.6914,-6.6914,-6.6914,-6.6914,-6.6914,-6.6914,-6.6914,-6.6914,-6.6914,-6.6914,-6.6914,-6.6914,-6.6914,-6.6875,0.0,0.0,0.0,-6.6831,-6.6833,-6.6829,-6.6712,-6.6774,-6.6823,-6.6709,-6.6652,-6.6642,-6.6642,-6.6561,-6.6491,-6.64,-6.6361,-6.6325,-6.6205,-6.6185,-6.6185,-6.6185,-6.6185,-6.6185,-6.6185,-6.6123,-6.6058,-6.6013,-6.5982,-6.596,-6.5897,-6.5897,-6.5897,-6.5859,-6.4128,-6.3782,-6.4589,-6.3705,-6.3782,-6.4666,-6.5513,-6.5897,-6.5897,-6.5897,-6.5897,-6.5897,-6.5897,-6.5897,-6.5897,-6.5897,-6.5897,-6.5897,-6.7107,-6.7029,0.0,0.0,0.0,0.0,0.0,0.0,-6.6904,-6.6909,-6.691,-6.6912,-6.6914,-6.6914,-6.6914,-6.6914,-6.6914,-6.6913,-6.6911,-6.6911,-6.6908,-6.6902,-6.6902,-6.6901,-6.6901,-6.6901,-6.6901,-6.6901,-6.6901,-6.6901,-6.6901,-6.6901,-6.6905,-6.6871,-6.6911,-6.6912,-6.6914,-6.6914,-6.6914,-6.6914,-6.6914,-6.6914,-6.6914,-6.6914,-6.6914,-6.6914,-6.6914,-6.6914,-6.6914,-6.6914,-6.6914,-6.6914,-6.6914,-6.6914,-6.6914,-6.6914,-6.6914,-6.6914,-6.6914,-6.6914,-6.6914,-6.6914,-6.6914,-6.6874,-6.6735,0.0,-6.6831,-6.6662,0.0,-6.6709,-6.6629,0.0,0.0,-6.6615,-6.6522,-6.6443,-6.6443,-6.6342,-6.6272,-6.6377,-6.629,-6.6215,-6.6185,-6.6185,-6.6185,-6.6185,-6.6185,-6.6185,-6.6185,-6.608,-6.6013,-6.6001,-6.5933,-6.591,-6.5897,-6.5897,-6.5897,-6.5859,-6.4128,-6.3782,-6.4589,-6.3705,-6.3782,-6.4666,-6.5513,-6.5897,-6.5897,-6.5897,-6.5897,-6.5897,-6.5897,-6.5897,-6.5897,-6.5897,-6.5897,-6.5897,-6.6807,-6.6805,-6.6809,0.0,0.0,0.0,0.0,0.0,-6.691,-6.6913,-6.6914,-6.6914,-6.6914,-6.6914,-6.6914,-6.6914,-6.6914,-6.6914,-6.6914,-6.6914,-6.6912,-6.6909,-6.6908,-6.6907,-6.6904,-6.6904,-6.6904,-6.6904,-6.6904,-6.6904,0.0,0.0,-6.6906,-6.6911,-6.6911,-6.6913,-6.6914,-6.6914,-6.6914,-6.6914,-6.6914,-6.6914,-6.6914,-6.6914,-6.6914,-6.6914,-6.6914,-6.6914,-6.6914,-6.6914,-6.6914,-6.6914,-6.6914,-6.6914,-6.6914,-6.6914,-6.6914,-6.6914,-6.6914,-6.6833,-6.6784,-6.6784,-6.6766,-6.6694,-6.6662,-6.6681,-6.6684,-6.661,0.0,0.0,0.0,0.0,0.0,0.0,-6.6436,-6.6392,-6.6392,-6.6272,-6.6215,-6.6263,-6.6235,-6.6185,-6.6185,-6.6185,-6.6185,-6.6185,-6.6185,-6.6185,-6.6185,-6.6144,-6.608,-6.6013,-6.5955,-6.5933,-6.5897,-6.5897,-6.5897,-6.5897,-6.4666,-6.4512,-6.532,-6.4436,-6.4551,-6.5359,-6.5743,-6.5897,-6.5897,-6.5897,-6.5897,-6.5897,-6.5897,-6.5897,-6.5897,-6.5897,-6.5897,-6.5897,-6.6718,-6.679,-6.6857,-6.6905,0.0,0.0,0.0,0.0,-6.6829,-6.6824,-6.6823,-6.6823,-6.6823,-6.683,-6.6831,-6.6824,-6.6873,-6.6875,-6.6833,-6.6874,-6.6914,-6.6912,-6.6912,-6.6911,-6.6908,-6.6908,-6.6908,-6.6908,-6.6908,-6.6908,-6.6908,0.0,-6.691,-6.6912,-6.6912,-6.6913,-6.6914,-6.6914,-6.6914,-6.6914,-6.6914,-6.6874,-6.6833,-6.6875,-6.6914,-6.6914,-6.6914,-6.6914,-6.6914,-6.6914,-6.6914,-6.6875,-6.6873,-6.6833,-6.6832,-6.6826,-6.6823,-6.6823,-6.6823,-6.6763,-6.6652,-6.6652,-6.6646,-6.6585,-6.6552,-6.6569,-6.6574,-6.6504,-6.6522,0.0,0.0,0.0,-6.6457,0.0,0.0,-6.6359,-6.6359,-6.6244,-6.6185,-6.6185,-6.6185,-6.6185,-6.6185,-6.6185,-6.6185,-6.6185,-6.6185,-6.6185,-6.6185,-6.6175,-6.6112,-6.6013,-6.599,-6.597,-6.5897,-6.5897,-6.5897,-6.5897,-6.5013,-6.5051,-6.5859,-6.5013,-6.5089,-6.5897,-6.5897,-6.5897,-6.5897,-6.5897,-6.5897,-6.5897,-6.5897,-6.5897,-6.5897,-6.5897,-6.5897,-6.5897,-6.649,-6.6708,-6.6905,-6.6911,-6.6794,0.0,0.0,-6.6605,-6.6605,-6.6605,-6.66,-6.66,-6.66,-6.6684,-6.6697,-6.661,-6.6774,-6.6833,-6.6724,-6.6831,-6.6914,-6.6914,-6.6914,-6.6914,-6.6914,-6.6914,-6.6914,-6.6914,-6.6914,-6.6914,0.0,0.0,0.0,0.0,-6.6914,-6.6914,-6.6914,-6.6914,-6.6914,-6.6914,-6.6914,-6.683,-6.6727,-6.6833,-6.6914,-6.6914,-6.6914,-6.6914,-6.6914,-6.6914,-6.6914,-6.6874,-6.6735,-6.6719,-6.667,-6.6633,-6.66,-6.66,-6.66,-6.66,-6.6595,-6.6595,-6.6595,-6.6563,-6.6429,-6.651,-6.6528,-6.6292,-6.6316,-6.6384,-6.6235,-6.6205,0.0,0.0,0.0,0.0,0.0,-6.6185,-6.6185,-6.6185,-6.6185,-6.6185,-6.6185,-6.6185,-6.6185,-6.6185,-6.6185,-6.6185,-6.6185,-6.6134,-6.6069,-6.6013,-6.5993,-6.5972,-6.5897,-6.5897,-6.5897,-6.5897,-6.5013,-6.5051,-6.5859,-6.5013,-6.5089,-6.5897,-6.5897,-6.5897,-6.5897,-6.5897,-6.5897,-6.5897,-6.5897,-6.5897,-6.5897,-6.5897,-6.5897,-6.5897,-6.6571,-6.6623,-6.67,-6.6694,-6.6674,-6.6642,-6.66,-6.659,-6.659,-6.659,-6.659,-6.659,-6.659,-6.6624,-6.6633,-6.6595,-6.67,-6.6735,-6.6719,-6.683,-6.6914,-6.6914,-6.6914,-6.6914,-6.6914,-6.6914,-6.6914,-6.6914,-6.6914,-6.6914,0.0,0.0,0.0,0.0,-6.6914,-6.6914,-6.6914,-6.6914,-6.6914,-6.6875,-6.6788,-6.6733,-6.668,-6.6735,-6.6722,-6.6684,-6.6684,-6.6684,-6.6694,-6.6731,-6.6719,-6.6691,-6.6712,-6.6688,-6.6638,-6.6605,-6.659,-6.659,-6.659,-6.6534,-6.6464,-6.6464,-6.6392,-6.6334,-6.6263,-6.6299,-6.6308,-6.6215,-6.6245,-6.6235,-6.6195,-6.6185,0.0,0.0,0.0,0.0,0.0,-6.6185,-6.6185,-6.6185,-6.6185,-6.6185,-6.6185,-6.6185,-6.6185,-6.6185,-6.6185,-6.6185,-6.6185,-6.6165,-6.6112,-6.6013,-6.599,-6.597,-6.5897,-6.5897,-6.5897,-6.5897,-6.559,-6.559,-6.5897,-6.559,-6.5628,-6.5897,-6.5897,-6.5897,-6.5897,-6.5897,-6.5897,-6.5897,-6.5897,-6.5897,-6.5897,-6.5897,-6.5897,-6.5897,-6.6457,-6.6457,-6.6491,-6.6579,-6.6558,-6.6516,-6.6464,-6.6457,-6.6457,-6.6457,-6.6457,-6.6457,-6.6457,-6.6504,-6.651,-6.6464,-6.6576,-6.6645,-6.6645,-6.6759,-6.6826,-6.6914,-6.6834,-6.6833,-6.6914,-6.6914,-6.6914,-6.6914,-6.6914,-6.6914,0.0,0.0,0.0,0.0,-6.6914,-6.6914,-6.6914,-6.6914,-6.6874,-6.6829,-6.6709,-6.6627,-6.6599,-6.6599,-6.658,-6.659,-6.659,-6.659,-6.6605,-6.6666,-6.6646,-6.66,-6.659,-6.6556,-6.6522,-6.6471,-6.6457,-6.6457,-6.6457,-6.6384,-6.6334,-6.6334,-6.6244,-6.6185,-6.6185,-6.6185,-6.6185,-6.6185,-6.6185,-6.6185,-6.6185,-6.6185,0.0,0.0,0.0,0.0,0.0,-6.6185,-6.6185,-6.6185,-6.6185,-6.6185,-6.6185,-6.6185,-6.6185,-6.6185,-6.6185,-6.6185,-6.6185,-6.6185,-6.6144,-6.6047,-6.6013,-6.5993,-6.5935,-6.591,-6.5897,-6.5897,-6.5897,-6.5897,-6.5897,-6.5897,-6.5897,-6.5897,-6.5897,-6.5897,-6.5897,-6.5897,-6.5897,-6.5897,-6.5897,-6.5897,-6.5897,-6.5897,-6.5897,-6.5897,-6.6185,-6.6185,-6.6272,-6.6534,-6.6478,-6.6359,-6.6215,-6.6185,-6.6185,-6.6185,-6.6185,-6.6185,-6.6185,-6.6316,-6.6351,-6.6205,-6.6436,-6.6585,-6.6585,-6.659,-6.6674,-6.6874,-6.6779,-6.6777,-6.6914,-6.6914,-6.6914,-6.6914,-6.6914,-6.6914,0.0,0.0,0.0,0.0,-6.6914,-6.6914,-6.6914,-6.6875,-6.6828,-6.6709,-6.6629,-6.6516,-6.6392,-6.6384,-6.6471,-6.6574,-6.6574,-6.6574,-6.6574,-6.6579,-6.6579,-6.6558,-6.6436,-6.6384,-6.6384,-6.6245,-6.6185,-6.6185,-6.6185,-6.6185,-6.6185,-6.6185,-6.6185,-6.6185,-6.6185,-6.6185,-6.6185,-6.6185,-6.6185,-6.6185,-6.6185,-6.6185,-6.6185,0.0,0.0,0.0,0.0,-6.6185,-6.6185,-6.6185,-6.6185,-6.6185,-6.6185,-6.6185,-6.6185,-6.6185,-6.6185,-6.6185,-6.6185,-6.6185,-6.6155,-6.6102,-6.6036,-6.5978,-6.6008,-6.5935,-6.5897,-6.5897,-6.5897,-6.5897,-6.5897,-6.5897,-6.5897,-6.5897,-6.5897,-6.5897,-6.5897,-6.5897,-6.5897,-6.5897,-6.5897,-6.5897,-6.5897,-6.5897,-6.5897,-6.5897,-6.6185,-6.6185,-6.6215,-6.6281,-6.6263,-6.6245,-6.6195,-6.6185,-6.6185,-6.6185,-6.6185,-6.6185,-6.6185,-6.6235,-6.6245,-6.6195,-6.6329,-6.645,-6.645,-6.6546,-6.665,-6.6733,-6.6724,-6.6777,-6.6914,-6.6914,-6.6914,-6.6914,-6.6914,-6.6914,-6.6914,0.0,0.0,0.0,0.0,-6.6914,-6.6875,-6.6785,-6.6706,-6.6624,-6.6504,-6.6429,-6.6377,-6.6281,-6.6263,-6.6299,-6.6299,-6.6299,-6.6325,-6.6414,-6.6369,-6.6316,-6.6361,-6.6342,-6.6254,-6.6205,-6.6185,-6.6185,-6.6185,-6.6185,-6.6185,-6.6185,-6.6185,-6.6185,-6.6185,-6.6185,-6.6185,-6.6185,-6.6185,-6.6185,-6.6185,-6.6185,-6.6185,0.0,0.0,0.0,-6.6185,-6.6185,-6.6185,-6.6185,-6.6185,-6.6185,-6.6185,-6.6185,-6.6185,-6.6185,-6.6185,-6.6185,-6.6185,-6.6185,-6.6155,-6.6102,-6.6036,-6.5978,-6.6008,-6.5935,-6.5897,-6.5897,-6.5897,-6.5897,-6.5897,-6.5897,-6.5897,-6.5897,-6.5897,-6.5897,-6.5897,-6.5897,-6.5897,-6.5897,-6.5897,-6.5897,-6.5897,-6.5897,-6.5897,-6.5897,-6.6185,-6.6185,-6.6185,-6.6185,-6.6185,-6.6185,-6.6185,-6.6185,-6.6185,-6.6185,-6.6185,-6.6185,-6.6185,-6.6185,-6.6185,-6.6185,-6.6253,-6.6351,-6.6384,-6.6407,-6.6477,-6.667,-6.6599,-6.6638,-6.6828,-6.6828,-6.6833,-6.6914,-6.6914,-6.6914,-6.6914,0.0,0.0,0.0,0.0,-6.6914,-6.6875,-6.6714,-6.6646,-6.6579,-6.6377,-6.6316,0.0,-6.6235,-6.6185,-6.6185,-6.6185,-6.6185,-6.6205,-6.6281,-6.6244,-6.6205,-6.6281,-6.6244,-6.6185,-6.6185,-6.6185,-6.6185,-6.6185,-6.6185,-6.6185,-6.6185,-6.6185,-6.6185,-6.6185,-6.6185,-6.6185,-6.6185,-6.6185,-6.6185,-6.6185,-6.6185,-6.6185,-6.6185,0.0,-6.6185,-6.6185,-6.6185,-6.6185,-6.6185,-6.6185,-6.6185,-6.6185,-6.6185,-6.6185,-6.6185,-6.6185,-6.6185,-6.6185,-6.6185,-6.6175,-6.6134,-6.608,-6.6024,-6.6005,-6.5972,-6.5935,-6.5897,-6.5897,-6.5897,-6.5897,-6.5897,-6.5897,-6.5897,-6.5897,-6.5897,-6.5897,-6.5897,-6.5897,-6.5897,-6.5897,-6.5897,-6.5897,-6.5897,-6.5897,-6.5897,-6.6185,-6.6185,-6.6185,-6.6185,-6.6185,-6.6185,-6.6185,-6.6185,-6.6185,-6.6185,-6.6185,-6.6185,-6.6185,-6.6185,-6.6185,-6.6185,-6.6185,-6.6264,-6.6384,-6.6244,-6.6316,-6.6563,-6.6464,-6.6483,-6.6664,-6.6714,-6.6776,-6.6874,-6.6875,-6.6914,0.0,0.0,0.0,0.0,0.0,0.0,-6.6827,-6.6646,-6.6563,-6.6528,-6.629,-6.6185,-6.6185,-6.6185,-6.6185,-6.6185,-6.6185,-6.6185,-6.6185,-6.6185,-6.6185,-6.6185,-6.6185,-6.6185,-6.6185,-6.6185,-6.6185,-6.6185,-6.6185,-6.6185,-6.6185,-6.6185,-6.6185,-6.6185,-6.6185,-6.6185,-6.6185,-6.6185,-6.6185,-6.6185,-6.6185,-6.6185,-6.6185,-6.6185,-6.6185,-6.6185,-6.6185,-6.6185,-6.6185,-6.6185,-6.6185,0.0,-6.6185,-6.6185,-6.6185,-6.6185,-6.6185,-6.6185,-6.6185,-6.6185,-6.6185,-6.6185,-6.6134,-6.6069,-6.6013,-6.5993,-6.5972,-6.591,-6.591,-6.5897,-6.5897,-6.5897,-6.5897,-6.5897,-6.5897,-6.5897,-6.5897,-6.5897,-6.5897,-6.5897,-6.5897,-6.5897,-6.5897,-6.5897,-6.5897,-6.5897,-6.6185,-6.6185,-6.6185,-6.6185,-6.6185,-6.6185,-6.6185,-6.6185,-6.6185,-6.6185,-6.6185,-6.6185,-6.6185,-6.6185,-6.6185,-6.6185,-6.6185,-6.6205,-6.6235,-6.6205,-6.6253,-6.6422,-6.6407,-6.6471,-6.6619,-6.6652,-6.6722,-6.6731,-6.6833,-6.6914,0.0,0.0,0.0,0.0,0.0,0.0,-6.6504,-6.645,-6.6353,-6.6283,-6.6215,-6.6185,-6.6185,-6.6185,-6.6185,-6.6185,-6.6185,-6.6185,-6.6185,-6.6185,-6.6185,-6.6185,-6.6185,-6.6185,-6.6185,-6.6185,-6.6185,-6.6185,-6.6185,-6.6185,-6.6185,-6.6185,-6.6185,-6.6185,-6.6185,-6.6185,-6.6185,-6.6185,-6.6185,-6.6185,-6.6185,-6.6185,-6.6185,-6.6185,-6.6185,-6.6185,-6.6185,-6.6185,-6.6185,-6.6185,-6.6185,-6.6185,-6.6185,-6.6185,-6.6185,-6.6185,-6.6185,-6.6185,-6.6185,-6.6185,-6.6185,-6.6185,-6.6134,-6.6091,-6.608,-6.6017,-6.5996,-6.5984,-6.5923,-6.5897,-6.5897,-6.5897,-6.5897,-6.5897,-6.5897,-6.5897,-6.5897,-6.5897,-6.5897,-6.5897,-6.5897,-6.5897,-6.5897,-6.5897,-6.5897,-6.5897,-6.6185,-6.6185,-6.6185,-6.6185,-6.6185,-6.6185,-6.6185,-6.6185,-6.6185,-6.6185,-6.6185,-6.6185,-6.6185,-6.6185,-6.6185,-6.6185,-6.6185,-6.6185,-6.6185,-6.6185,-6.6235,-6.629,-6.629,-6.6376,-6.6491,-6.6519,-6.6576,-6.6662,-6.67,-6.6766,0.0,0.0,0.0,0.0,0.0,-6.6576,0.0,-6.6422,-6.6345,-6.6299,-6.6225,-6.6185,-6.6185,-6.6185,-6.6185,-6.6185,-6.6185,-6.6185,-6.6185,-6.6185,-6.6185,-6.6185,-6.6185,-6.6185,-6.6185,-6.6185,-6.6185,-6.6185,-6.6185,-6.6185,-6.6185,-6.6185,-6.6185,-6.6185,-6.6185,-6.6185,-6.6185,-6.6185,-6.6185,-6.6185,-6.6185,-6.6185,-6.6185,-6.6185,-6.6185,-6.6185,-6.6185,-6.6185,-6.6185,-6.6185,-6.6185,-6.6185,-6.6185,-6.6185,-6.6185,-6.6185,-6.6185,-6.6185,-6.6185,-6.6185,-6.6185,-6.6185,-6.6155,-6.6134,-6.6102,-6.6013,-6.5993,-6.6008,-6.5935,-6.5897,-6.5897,-6.5897,-6.5897,-6.5897,-6.5897,-6.5897,-6.5897,-6.5897,-6.5897,-6.5897,-6.5897,-6.5897,-6.5897,-6.5897,-6.5897,-6.5897,-6.6185,-6.6185,-6.6185,-6.6185,-6.6185,-6.6185,-6.6185,-6.6185,-6.6185,-6.6185,-6.6185,-6.6185,-6.6185,-6.6185,-6.6185,-6.6185,-6.6185,-6.6185,-6.6185,-6.6185,-6.6185,-6.6185,-6.6185,-6.6264,-6.6376,-6.6369,-6.645,-6.6558,-6.6579,-6.6516,-6.6424,0.0,0.0,0.0,-6.6595,-6.654,-6.651,-6.6392,-6.6376,-6.6367,-6.6254,-6.6185,-6.6185,-6.6185,-6.6185,-6.6185,-6.6185,-6.6185,-6.6185,-6.6185,-6.6185,-6.6185,-6.6185,-6.6185,-6.6185,-6.6185,-6.6185,-6.6185,-6.6185,-6.6185,-6.6185,-6.6185,-6.6185,-6.6185,-6.6185,-6.6185,-6.6185,-6.6185,-6.6185,-6.6185,-6.6185,-6.6185,-6.6185,-6.6185,-6.6185,-6.6185,-6.6185,-6.6185,-6.6185,-6.6185,-6.6185,-6.6185,-6.6185,-6.6185,-6.6185,-6.6185,-6.6185,-6.6185,-6.6185,-6.6185,-6.6185,-6.6185,-6.6185,-6.6165,-6.6123,-6.6047,-6.599,-6.5982,-6.5935,-6.5897,-6.5897,-6.5897,-6.5897,-6.5897,-6.5897,-6.5897,-6.5897,-6.5897,-6.5897,-6.5897,-6.5897,-6.5897,-6.5897,-6.5897,-6.5897,-6.5897,-6.6185,-6.6185,-6.6185,-6.6185,-6.6185,-6.6185,-6.6185,-6.6185,-6.6185,-6.6185,-6.6185,-6.6185,-6.6185,-6.6185,-6.6185,-6.6185,-6.6185,-6.6185,-6.6185,-6.6185,-6.6185,-6.6185,-6.6185,-6.6195,-6.6215,-6.6351,-6.64,-6.6414,-6.654,-6.621,-6.5445,0.0,-6.654,-6.6436,-6.6422,-6.6367,-6.6245,-6.6225,-6.6215,-6.6215,-6.6195,-6.6185,-6.6185,-6.6185,-6.6185,-6.6185,-6.6185,-6.6185,-6.6185,-6.6185,-6.6185,-6.6185,-6.6185,-6.6185,-6.6185,-6.6185,-6.6185,-6.6185,-6.6185,-6.6185,-6.6185,-6.6185,-6.6185,-6.6185,-6.6185,-6.6185,-6.6185,-6.6185,-6.6185,-6.6185,-6.6185,-6.6185,-6.6185,-6.6185,-6.6185,-6.6185,-6.6185,-6.6185,-6.6185,-6.6185,-6.6185,-6.6185,-6.6185,-6.6185,-6.6185,-6.6185,-6.6185,-6.6185,-6.6185,-6.6185,-6.6185,-6.6185,-6.6185,-6.6185,-6.6175,-6.6069,-6.6001,-6.6001,-6.5921,-6.5897,-6.5897,-6.5897,-6.5897,-6.5897,-6.5897,-6.5897,-6.5897,-6.5897,-6.5897,-6.5897,-6.5897,-6.5897,-6.5897,-6.5897,-6.5897,-6.5897,-6.6185,-6.6185,-6.6185,-6.6185,-6.6185,-6.6185,-6.6185,-6.6185,-6.6185,-6.6185,-6.6185,-6.6185,-6.6185,-6.6185,-6.6185,-6.6185,-6.6185,-6.6185,-6.6185,-6.6185,-6.6185,-6.6185,-6.6185,-6.6185,-6.6185,-6.6264,-6.6272,-6.6272,-6.6342,-6.6237,-6.5978,-6.6229,-6.6342,-6.6272,-6.6272,-6.6264,-6.6185,-6.6185,-6.6185,-6.6185,-6.6185,-6.6185,-6.6185,-6.6185,-6.6185,-6.6185,-6.6185,-6.6185,-6.6185,-6.6185,-6.6185,-6.6185,-6.6185,-6.6185,-6.6185,-6.6185,-6.6185,-6.6185,-6.6185,-6.6185,-6.6185,-6.6185,-6.6185,-6.6185,-6.6185,-6.6185,-6.6185,-6.6185,-6.6185,-6.6185,-6.6185,-6.6185,-6.6185,-6.6185,-6.6185,-6.6185,-6.6185,-6.6185,-6.6185,-6.6185,-6.6185,-6.6185,-6.6185,-6.6185,-6.6185,-6.6185,-6.6185,-6.6185,-6.6185,-6.6185,-6.6185,-6.6185,-6.6185,-6.6165,-6.6134,-6.6047,-6.599,-6.5993,-6.5947,-6.5897,-6.5897,-6.5897,-6.5897,-6.5897,-6.5897,-6.5897,-6.5897,-6.5897,-6.5897,-6.5897,-6.5897,-6.5897,-6.5897,-6.5897,-6.5897,-6.5897,-6.6185,-6.6185,-6.6185,-6.6185,-6.6185,-6.6185,-6.6185,-6.6185,-6.6185,-6.6185,-6.6185,-6.6185,-6.6185,-6.6185,-6.6185,-6.6185,-6.6185,-6.6185,-6.6185,-6.6185,-6.6185,-6.6185,-6.6185,-6.6185,-6.6185,-6.6185,-6.6185,-6.6185,-6.6185,-6.6148,-6.6001,-6.5906,-6.5953,-6.6185,-6.6185,-6.6185,-6.6185,-6.6185,-6.6185,-6.6185,-6.6185,-6.6185,-6.6185,-6.6185,-6.6185,-6.6185,-6.6185,-6.6185,-6.6185,-6.6185,-6.6185,-6.6185,-6.6185,-6.6185,-6.6185,-6.6185,-6.6185,-6.6185,-6.6185,-6.6185,-6.6185,-6.6185,-6.6185,-6.6185,-6.6185,-6.6185,-6.6185,-6.6185,-6.6185,-6.6185,-6.6185,-6.6185,-6.6185,-6.6185,-6.6185,-6.6185,-6.6185,-6.6185,-6.6185,-6.6185,-6.6185,-6.6185,-6.6185,-6.6185,-6.6185,-6.6185,-6.6185,-6.6185,-6.6185,-6.6185,-6.6185,-6.6185,-6.6185,-6.6155,-6.6102,-6.6036,-6.6017,-6.6008,-6.5935,-6.5897,-6.5897,-6.5897,-6.5897,-6.5897,-6.5897,-6.5897,-6.5897,-6.5897,-6.5897,-6.5897,-6.5897,-6.5897,-6.5897,-6.5897,-6.5897,-6.5897,-6.6185,-6.6185,-6.6185,-6.6185,-6.6185,-6.6185,-6.6185,-6.6185,-6.6185,-6.6185,-6.6185,-6.6185,-6.6185,-6.6185,-6.6185,-6.6185,-6.6185,-6.6185,-6.6185,-6.6185,-6.6185,-6.6185,-6.6185,-6.6185,-6.6185,-6.6185,-6.6185,-6.6185,-6.6185,-6.5799,-6.5035,-6.5035,-6.545,-6.6185,-6.6185,-6.6185,-6.6185,-6.6185,-6.6185,-6.6185,-6.6185,-6.6185,-6.6185,-6.6185,-6.6185,-6.6185,-6.6185,-6.6185,-6.6185,-6.6185,-6.6185,-6.6185,-6.6185,-6.6185,-6.6185,-6.6185,-6.6185,-6.6185,-6.6185,-6.6185,-6.6185,-6.6185,-6.6185,-6.6185,-6.6185,-6.6185,-6.6185,-6.6185,-6.6185,-6.6185,-6.6185,-6.6185,-6.6185,-6.6185,-6.6185,-6.6185,-6.6185,-6.6185,-6.6185,-6.6185,-6.6185,-6.6185,-6.6185,-6.6185,-6.6185,-6.6185,-6.6185,-6.6185,-6.6185,-6.6185,-6.6185,-6.6185,-6.6185,-6.6155,-6.6102,-6.6036,-6.6017,-6.6008,-6.5935,-6.5897,-6.5897,-6.5897,-6.5897,-6.5897,-6.5897,-6.5897,-6.5897,-6.5897,-6.5897,-6.5897,-6.5897,-6.5897,-6.5897,-6.5897,-6.5897,-6.5897,-6.6185,-6.6185,-6.6185,-6.6185,-6.6185,-6.6185,-6.6185,-6.6185,-6.6185,-6.6185,-6.6185,-6.6185,-6.6185,-6.6185,-6.6185,-6.6185,-6.6185,-6.6185,-6.6185,-6.6185,-6.6185,-6.6185,-6.6185,-6.6185,-6.6185,-6.6185,-6.6185,-6.6185,-6.6185,-6.6069,-6.5837,-6.5837,-6.5953,-6.6185,-6.6185,-6.6185,-6.6185,-6.6185,-6.6185,-6.6185,-6.6185,-6.6185,-6.6185,-6.6185,-6.6185,-6.6185,-6.6185,-6.6185,-6.6185,-6.6185,-6.6185,-6.6185,-6.6185,-6.6185,-6.6185,-6.6185,-6.6185,-6.6185,-6.6185,-6.6185,-6.6185,-6.6185,-6.6185,-6.6185,-6.6185,-6.6185,-6.6185,-6.6185,-6.6185,-6.6185,-6.6185,-6.6185,-6.6185,-6.6185,-6.6185,-6.6185,-6.6185,-6.6185,-6.6185,-6.6185,-6.6185,-6.6185,-6.6185,-6.6185,-6.6185,-6.6185,-6.6185,-6.6185,-6.6185,-6.6185,-6.6185,-6.6185,-6.6185,-6.6144,-6.6036,-6.6013,-6.5993,-6.5935,-6.591,-6.5897,-6.5897,-6.5897,-6.5897,-6.5897,-6.5897,-6.5897,-6.5897,-6.5897,-6.5897,-6.5897,-6.5897,-6.5897,-6.5897,-6.5897,-6.5897,-6.5897,-6.6185,-6.6185,-6.6185,-6.6185,-6.6185,-6.6185,-6.6185,-6.6185,-6.6185,-6.6185,-6.6185,-6.6185,-6.6185,-6.6185,-6.6185,-6.6185,-6.6185,-6.6185,-6.6185,-6.6185,-6.6185,-6.6185,-6.6185,-6.6185,-6.6185,-6.6185,-6.6185,-6.6185,-6.6185,-6.6185,-6.6185,-6.6185,-6.6185,-6.6185,-6.6185,-6.6185,-6.6185,-6.6185,-6.6185,-6.6185,-6.6185,-6.6185,-6.6185,-6.6185,-6.6185,-6.6185,-6.6185,-6.6185,-6.6185,-6.6185,-6.6185,-6.6185,-6.6185,-6.6185,-6.6185,-6.6185,-6.6185,-6.6185,-6.6185,-6.6185,-6.6185,-6.6185,-6.6185,-6.6185,-6.6185,-6.6185,-6.6185,-6.6185,-6.6185,-6.6185,-6.6185,-6.6185,-6.6185,-6.6185,-6.6185,-6.6185,-6.6185,-6.6185,-6.6185,-6.6185,-6.6185,-6.6185,-6.6185,-6.6185,-6.6185,-6.6185,-6.6185,-6.6185,-6.6185,-6.6185,-6.6185,-6.6185,-6.6185,-6.6134,-6.6013,-6.6001,-6.5982,-6.5897,-6.5897,-6.5897,-6.5897,-6.5897,-6.5897,-6.5897,-6.5897,-6.5897,-6.5897,-6.5897,-6.5897,-6.5897,-6.5897,-6.5897,-6.5897,-6.5897,-6.5897,-6.5897,-6.6185,-6.6185,-6.6185,-6.6185,-6.6185,-6.6185,-6.6185,-6.6185,-6.6185,-6.6185,-6.6185,-6.6185,-6.6185,-6.6185,-6.6185,-6.6185,-6.6185,-6.6185,-6.6185,-6.6185,-6.6185,-6.6185,-6.6185,-6.6185,-6.6185,-6.6185,-6.6185,-6.6185,-6.6185,-6.6185,-6.6185,-6.6185,-6.6185,-6.6185,-6.6185,-6.6185,-6.6185,-6.6185,-6.6185,-6.6185,-6.6185,-6.6185,-6.6185,-6.6185,-6.6185,-6.6185,-6.6185,-6.6185,-6.6185,-6.6185,-6.6185,-6.6185,-6.6185,-6.6185,-6.6185,-6.6185,-6.6185,-6.6185,-6.6185,-6.6185,-6.6185,-6.6185,-6.6185,-6.6185,-6.6185,-6.6185,-6.6185,-6.6185,-6.6185,-6.6185,-6.6185,-6.6185,-6.6185,-6.6185,-6.6185,-6.6185,-6.6185,-6.6185,-6.6185,-6.6185,-6.6185,-6.6185,-6.6185,-6.6185,-6.6185,-6.6185,-6.6185,-6.6185,-6.6185,-6.6185,-6.6185,-6.6185,-6.6185,-6.6123,-6.6013,-6.6001,-6.5982,-6.5897,-6.5897,-6.5897,-6.5897,-6.5897,-6.5897,-6.5897,-6.5897,-6.5897,-6.5897,-6.5897,-6.5897,-6.5897,-6.5897,-6.5897,-6.5897,-6.5897,-6.5897,-6.5897,-6.6185,-6.6185,-6.6185,-6.6185,-6.6185,-6.6185,-6.6185,-6.6185,-6.6185,-6.6185,-6.6185,-6.6185,-6.6185,-6.6185,-6.6185,-6.6185,-6.6185,-6.6185,-6.6185,-6.6185,-6.6185,-6.6185,-6.6185,-6.6185,-6.6185,-6.6185,-6.6185,-6.6185,-6.6185,-6.6185,-6.6185,-6.6185,-6.6185,-6.6185,-6.6185,-6.6185,-6.6185,-6.6185,-6.6185,-6.6185,-6.6185,-6.6185,-6.6185,-6.6185,-6.6185,-6.6185,-6.6185,-6.6185,-6.6185,-6.6185,-6.6185,-6.6185,-6.6185,-6.6185,-6.6185,-6.6185,-6.6185,-6.6185,-6.6185,-6.6185,-6.6185,-6.6185,-6.6185,-6.6185,-6.6185,-6.6185,-6.6185,-6.6185,-6.6185,-6.6185,-6.6185,-6.6185,-6.6185,-6.6185,-6.6185,-6.6185,-6.6185,-6.6185,-6.6185,-6.6185,-6.6185,-6.6185,-6.6185,-6.6185,-6.6185,-6.6185,-6.6185,-6.6185,-6.6185,-6.6185,-6.6185,-6.6185,-6.6144,-6.608,-6.6001,-6.6005,-6.5984,-6.5897,-6.5897,-6.5897,-6.5897,-6.5897,-6.5897,-6.5897,-6.5897,-6.5897,-6.5897,-6.5897,-6.5897,-6.5897,-6.5897,-6.5897,-6.5897,-6.5897,-6.5897,-6.5897,-6.6185,-6.6185,-6.6185,-6.6185,-6.6185,-6.6185,-6.6185,-6.6185,-6.6185,-6.6185,-6.6185,-6.6185,-6.6185,-6.6185,-6.6185,-6.6185,-6.6185,-6.6185,-6.6185,-6.6185,-6.6185,-6.6185,-6.6185,-6.6185,-6.6185,-6.6185,-6.6185,-6.6185,-6.6185,-6.6185,-6.6185,-6.6185,-6.6185,-6.6185,-6.6185,-6.6185,-6.6185,-6.6185,-6.6185,-6.6185,-6.6185,-6.6185,-6.6185,-6.6185,-6.6185,-6.6185,-6.6185,-6.6185,-6.6185,-6.6185,-6.6185,-6.6185,-6.6185,-6.6185,-6.6185,-6.6185,-6.6185,-6.6185,-6.6185,-6.6185,-6.6185,-6.6185,-6.6185,-6.6185,-6.6185,-6.6185,-6.6185,-6.6185,-6.6185,-6.6185,-6.6185,-6.6185,-6.6185,-6.6185,-6.6185,-6.6185,-6.6185,-6.6185,-6.6185,-6.6185,-6.6185,-6.6185,-6.6185,-6.6185,-6.6185,-6.6185,-6.6185,-6.6185,-6.6185,-6.6185,-6.6185,-6.6185,-6.6134,-6.6069,-6.6001,-6.5958,-6.5935,-6.5897,-6.5897,-6.5897,-6.5897,-6.5897,-6.5897,-6.5897,-6.5897,-6.5897,-6.5897,-6.5897,-6.5897,-6.5897,-6.5897,-6.5897,-6.5897,-6.5897,-6.5897,-6.5897,-6.6185,-6.6185,-6.6185,-6.6185,-6.6185,-6.6185,-6.6185,-6.6185,-6.6185,-6.6185,-6.6185,-6.6185,-6.6185,-6.6185,-6.6185,-6.6185,-6.6185,-6.6185,-6.6185,-6.6185,-6.6185,-6.6185,-6.6185,-6.6185,-6.6185,-6.6185,-6.6185,-6.6185,-6.6185,-6.6185,-6.6185,-6.6185,-6.6185,-6.6185,-6.6185,-6.6185,-6.6185,-6.6185,-6.6185,-6.6185,-6.6185,-6.6185,-6.6185,-6.6185,-6.6185,-6.6185,-6.6185,-6.6185,-6.6185,-6.6185,-6.6185,-6.6185,-6.6185,-6.6185,-6.6185,-6.6185,-6.6185,-6.6185,-6.6185,-6.6185,-6.6185,-6.6185,-6.6185,-6.6185,-6.6185,-6.6185,-6.6185,-6.6185,-6.6185,-6.6185,-6.6185,-6.6185,-6.6185,-6.6185,-6.6185,-6.6185,-6.6185,-6.6185,-6.6185,-6.6185,-6.6185,-6.6185,-6.6185,-6.6185,-6.6185,-6.6185,-6.6185,-6.6185,-6.6185,-6.6185,-6.6185,-6.6185,-6.6123,-6.6047,-6.5978,-6.5921,-6.5897,-6.5897,-6.5897,-6.5897,-6.5897,-6.5897,-6.5897,-6.5897,-6.5897,-6.5897,-6.5897,-6.5897,-6.5897,-6.5897,-6.5897,-6.5897,-6.5897,-6.5897,-6.5897,-6.5897,-6.6185,-6.6185,-6.6185,-6.6185,-6.6185,-6.6185,-6.6185,-6.6185,-6.6185,-6.6185,-6.6185,-6.6185,-6.6185,-6.6185,-6.6185,-6.6185,-6.6185,-6.6185,-6.6185,-6.6185,-6.6185,-6.6185,-6.6185,-6.6185,-6.6185,-6.6185,-6.6185,-6.6185,-6.6185,-6.6185,-6.6185,-6.6185,-6.6185,-6.6185,-6.6185,-6.6185,-6.6185,-6.6185,-6.6185,-6.6185,-6.6185,-6.6185,-6.6185,-6.6185,-6.6185,-6.6185,-6.6185,-6.6185,-6.6185,-6.6185,-6.6185,-6.6185,-6.6185,-6.6185,-6.6185,-6.6185,-6.6185,-6.6185,-6.6185,-6.6185,-6.6185,-6.6185,-6.6185,-6.6185,-6.6185,-6.6185,-6.6185,-6.6185,-6.6185,-6.6185,-6.6185,-6.6185,-6.6185,-6.6185,-6.6185,-6.6185,-6.6185,-6.6185,-6.6185,-6.6185,-6.6185,-6.6185,-6.6185,-6.6185,-6.6185,-6.6185,-6.6185,-6.6185,-6.6185,-6.6185,-6.6185,-6.6185,-6.608,-6.5967,-6.5935,-6.591,-6.5897,-6.5897,-6.5897,-6.5897,-6.5897,-6.5897,-6.5897,-6.5897,-6.5897,-6.5897,-6.5897,-6.5897,-6.5897,-6.5897,-6.5897,-6.5897,-6.5897,-6.5897,-6.5897,-6.6013,-6.6185,-6.6185,-6.6185,-6.6185,-6.6185,-6.6185,-6.6185,-6.6185,-6.6185,-6.6185,-6.6185,-6.6185,-6.6185,-6.6185,-6.6185,-6.6185,-6.6185,-6.6185,-6.6185,-6.6185,-6.6185,-6.6185,-6.6185,-6.6185,-6.6185,-6.6185,-6.6185,-6.6185,-6.6185,-6.6185,-6.6185,-6.6185,-6.6185,-6.6185,-6.6185,-6.6185,-6.6185,-6.6185,-6.6185,-6.6185,-6.6185,-6.6185,-6.6185,-6.6185,-6.6185,-6.6185,-6.6185,-6.6185,-6.6185,-6.6185,-6.6185,-6.6185,-6.6185,-6.6185,-6.6185,-6.6185,-6.6185,-6.6185,-6.6185,-6.6185,-6.6185,-6.6185,-6.6185,-6.6185,-6.6185,-6.6185,-6.6185,-6.6185,-6.6185,-6.6185,-6.6185,-6.6185,-6.6185,-6.6185,-6.6185,-6.6185,-6.6185,-6.6185,-6.6185,-6.6185,-6.6185,-6.6185,-6.6185,-6.6185,-6.6185,-6.6185,-6.6185,-6.6185,-6.6185,-6.6185,-6.6185,-6.6185,-6.6069,-6.5993,-6.5897,-6.5897,-6.5897,-6.5897,-6.5897,-6.5897,-6.5897,-6.5897,-6.5897,-6.5897,-6.5897,-6.5897,-6.5897,-6.5897,-6.5897,-6.5897,-6.5897,-6.6167,-6.6551,-6.6551,-6.6821,-6.7321,-6.6185,-6.6185,-6.6185,-6.6185,-6.6185,-6.6185,-6.6185,-6.6185,-6.6185,-6.6185,-6.6185,-6.6185,-6.6185,-6.6185,-6.6108,-6.5953,-6.5915,-6.5837,-6.5644,-6.5605,-6.5721,-6.5915,-6.5721,-6.5721,-6.5915,-6.5915,-6.5992,-6.6185,-6.6185,-6.6185,-6.6185,-6.6185,-6.6185,-6.6185,-6.6185,-6.6185,-6.6185,-6.6185,-6.6185,-6.6185,-6.6185,-6.6185,-6.6185,-6.6185,-6.6185,-6.6185,-6.6185,-6.6185,-6.6185,-6.6185,-6.6185,-6.6185,-6.6185,-6.6185,-6.6185,-6.6185,-6.6185,-6.6185,-6.6185,-6.6185,-6.6185,-6.6185,-6.6185,-6.6185,-6.6185,-6.6185,-6.6185,-6.6185,-6.6185,-6.6185,-6.6185,-6.6185,-6.6185,-6.6185,-6.6185,-6.6185,-6.6185,-6.6185,-6.6185,-6.6185,-6.6185,-6.6185,-6.6185,-6.6185,-6.6185,-6.6185,-6.6379,-6.6495,-6.6495,-6.6688,-6.6717,-6.6464,-6.6174,-6.5993,-6.5897,-6.5897,-6.5897,-6.5897,-6.5897,-6.5897,-6.5897,-6.5897,-6.5897,-6.5897,-6.5897,-6.5897,-6.5897,-6.5897,-6.6013,-6.6167,-6.6167,-6.6667,-6.7398,-6.7398,-6.7821,-6.8436,-6.6185,-6.6185,-6.6185,-6.6185,-6.6185,-6.6185,-6.6185,-6.6185,-6.6185,-6.6185,-6.6185,-6.6185,-6.6185,-6.6185,-6.5915,-6.5141,-6.5102,-6.4764,-6.3952,-6.3874,-6.4261,-6.5064,-6.43,-6.4261,-6.5064,-6.5102,-6.545,-6.6185,-6.6185,-6.6185,-6.6185,-6.6185,-6.6185,-6.6185,-6.6185,-6.6185,-6.6185,-6.6185,-6.6185,-6.6185,-6.6185,-6.6185,-6.6185,-6.6185,-6.6185,-6.6185,-6.6185,-6.6185,-6.6185,-6.6185,-6.6185,-6.6185,-6.6185,-6.6185,-6.6185,-6.6185,-6.6185,-6.6185,-6.6185,-6.6185,-6.6185,-6.6185,-6.6185,-6.6185,-6.6185,-6.6185,-6.6185,-6.6185,-6.6185,-6.6185,-6.6185,-6.6185,-6.6185,-6.6185,-6.6185,-6.6185,-6.6185,-6.6185,-6.6185,-6.6185,-6.6185,-6.6185,-6.6185,-6.6185,-6.6185,-6.6185,-6.6959,-6.7384,-6.7384,-6.8158,-6.8182,-6.7232,-6.6437,-6.5993,-6.5897,-6.5897,-6.5897,-6.5897,-6.5897,-6.5897,-6.5897,-6.5897,-6.5897,-6.5897,-6.5897,-6.5897,-6.5897,-6.5897,-6.632,-6.7013,-6.7013,-6.7552,-6.8321,-6.8321,-6.8346,-6.8513,-6.6185,-6.6185,-6.6185,-6.6185,-6.6185,-6.6185,-6.6185,-6.6185,-6.6185,-6.6185,-6.576,-6.545,-6.545,-6.4948,-6.4532,-6.4222,-6.4184,-6.4068,-6.3719,-6.3719,-6.3835,-6.4184,-6.3874,-6.4106,-6.4986,-6.4986,-6.5373,-6.6185,-6.6185,-6.6185,-6.6185,-6.6185,-6.6185,-6.6185,-6.6185,-6.6185,-6.6185,-6.6185,-6.6185,-6.6185,-6.6185,-6.6185,-6.6185,-6.6185,-6.6185,-6.6185,-6.6185,-6.6185,-6.6185,-6.6185,-6.6185,-6.6185,-6.6185,-6.6185,-6.6185,-6.6185,-6.6185,-6.6185,-6.6185,-6.6185,-6.6185,-6.6185,-6.6185,-6.6185,-6.6185,-6.6185,-6.6185,-6.6185,-6.6185,-6.6185,-6.6185,-6.6185,-6.6185,-6.6185,-6.6185,-6.6185,-6.6185,-6.6185,-6.6185,-6.6185,-6.6185,-6.6185,-6.6185,-6.6185,-6.6417,-6.6959,-6.7307,-6.7733,-6.8274,-6.8622,-6.8607,-6.8096,-6.7788,-6.7073,-6.5897,-6.5897,-6.5897,-6.5897,-6.5897,-6.5897,-6.5897,-6.5897,-6.5897,-6.5897,-6.5897,-6.6167,-6.6628,-6.6628,-6.7128,-6.7898,-6.7898,-6.8436,-6.9206,-6.9206,-6.9351,-6.9613,-6.6185,-6.6185,-6.6185,-6.6185,-6.6185,-6.6185,-6.6185,-6.6185,-6.6185,-6.6185,-6.5721,-6.5373,-6.5373,-6.4831,-6.4377,-6.4145,-6.4106,-6.399,-6.3719,-6.3719,-6.3565,-6.3284,-6.3013,-6.3284,-6.4174,-6.4174,-6.4715,-6.5837,-6.5837,-6.5953,-6.6185,-6.6185,-6.6185,-6.6185,-6.6185,-6.6185,-6.6185,-6.6185,-6.6185,-6.6185,-6.6185,-6.6185,-6.6185,-6.6185,-6.6185,-6.6185,-6.6185,-6.6185,-6.6185,-6.6185,-6.6185,-6.6185,-6.6185,-6.6185,-6.6185,-6.6185,-6.6185,-6.6185,-6.6185,-6.6185,-6.6185,-6.6185,-6.6185,-6.6185,-6.6185,-6.6185,-6.6185,-6.6185,-6.6185,-6.6185,-6.6185,-6.6185,-6.6185,-6.6185,-6.6185,-6.6185,-6.6185,-6.6185,-6.6185,-6.6185,-6.6185,-6.6301,-6.6572,-6.6611,-6.6959,-6.7849,-6.8158,-6.8661,-6.9551,-6.9589,-6.9419,-6.9022,-6.9022,-6.8268,-6.6705,-6.6705,-6.6705,-6.6705,-6.6705,-6.6705,-6.6705,-6.6705,-6.6705,-6.6705,-6.6705,-6.7013,-6.7513,-6.7513,-6.8013,-6.8821,-6.8821,-6.9321,-7.009,-7.009,-7.0177,-7.032,-6.6185,-6.6185,-6.6185,-6.6185,-6.6185,-6.6185,-6.6185,-6.6185,-6.6185,-6.6185,-6.6185,-6.6185,-6.6185,-6.6185,-6.5876,-6.5064,-6.4986,-6.4609,-6.3758,-6.3719,-6.3323,-6.2472,-6.1582,-6.1543,-6.2394,-6.2433,-6.3284,-6.4986,-6.4986,-6.5412,-6.6185,-6.6185,-6.6185,-6.6185,-6.6185,-6.6185,-6.6185,-6.6185,-6.6185,-6.6185,-6.6185,-6.6185,-6.6185,-6.6185,-6.6185,-6.6185,-6.6185,-6.6185,-6.6185,-6.6185,-6.6185,-6.6185,-6.6185,-6.6185,-6.6185,-6.6185,-6.6185,-6.6185,-6.6185,-6.6185,-6.6185,-6.6185,-6.6185,-6.6185,-6.6185,-6.6185,-6.6185,-6.6185,-6.6185,-6.6185,-6.6185,-6.6185,-6.6185,-6.6185,-6.6185,-6.6185,-6.6185,-6.6185,-6.6185,-6.6185,-6.6224,-6.6533,-6.7423,-6.7501,-6.7887,-6.8738,-6.9551,-7.0402,-7.1253,-7.1291,-7.086,-6.9922,-6.9922,-6.9424,-6.8436,-6.8398,-6.8385,-6.8385,-6.8385,-6.8385,-6.8385,-6.8385,-6.8385,-6.8385,-6.8385,-6.8385,-6.8398,-6.8398,-6.8936,-6.9706,-6.9706,-7.0206,-7.0898,-7.0898,-7.0622,-7.0304,-6.6185,-6.6185,-6.6185,-6.6185,-6.6185,-6.6185,-6.6185,-6.6185,-6.6185,-6.6185,-6.5721,-6.5373,-6.5373,-6.4793,-6.4338,-6.4106,-6.4106,-6.399,-6.3719,-6.3719,-6.3565,-6.3323,-6.3052,-6.3323,-6.4213,-6.4213,-6.4483,-6.4986,-6.5566,-6.5682,-6.5373,-6.5953,-6.6185,-6.6185,-6.6185,-6.6185,-6.6185,-6.6185,-6.6185,-6.6185,-6.6185,-6.6185,-6.6185,-6.6185,-6.6185,-6.6185,-6.6185,-6.6185,-6.6185,-6.6185,-6.6185,-6.6185,-6.6185,-6.6185,-6.6185,-6.6185,-6.6185,-6.6185,-6.6185,-6.6185,-6.6185,-6.6185,-6.6185,-6.6185,-6.6185,-6.6185,-6.6185,-6.6185,-6.6185,-6.6185,-6.6185,-6.6185,-6.6185,-6.6185,-6.6185,-6.6185,-6.6185,-6.6185,-6.6185,-6.6185,-6.6727,-6.723,-6.7462,-6.8042,-6.8738,-6.9589,-7.044,-7.101,-7.1236,-7.1236,-7.1062,-7.0696,-7.0645,-7.0491,-7.0167,-6.9013,-6.8385,-6.8385,-6.8385,-6.8385,-6.8385,-6.8385,-6.8385,-6.8385,-6.8385,-6.8744,-6.9321,-6.9321,-6.9821,-7.0552,-7.0552,-7.0706,-7.0871,-7.0578,-7.02,-6.9833,-6.6185,-6.6185,-6.6185,-6.6185,-6.6185,-6.6185,-6.6185,-6.6185,-6.6185,-6.6185,-6.576,-6.545,-6.545,-6.4986,-6.4677,-6.4677,-6.4677,-6.4677,-6.4677,-6.4677,-6.4677,-6.4677,-6.4677,-6.4648,-6.4493,-6.4493,-6.4648,-6.4986,-6.5489,-6.5489,-6.5025,-6.5837,-6.6031,-6.5721,-6.6069,-6.6185,-6.6185,-6.6185,-6.6185,-6.6185,-6.6185,-6.6185,-6.6185,-6.6185,-6.6185,-6.6185,-6.6185,-6.6185,-6.6185,-6.6185,-6.6185,-6.6185,-6.6185,-6.6185,-6.6185,-6.6185,-6.6185,-6.6185,-6.6185,-6.6185,-6.6185,-6.6185,-6.6185,-6.6185,-6.6185,-6.6185,-6.6185,-6.6185,-6.6185,-6.6185,-6.6185,-6.6185,-6.6185,-6.6185,-6.6185,-6.6185,-6.6185,-6.6495,-6.6727,-6.6727,-6.7501,-6.8158,-6.8468,-6.897,-6.9628,-7.044,-7.0982,-7.128,-7.1247,-7.1247,-7.1178,-7.1043,-7.1043,-7.0992,-7.0898,-6.9898,-6.9398,-6.9398,-6.9398,-6.9398,-6.9398,-6.9398,-6.9398,-6.9398,-6.9398,-6.9706,-7.0167,-7.0167,-7.0475,-7.0898,-7.0898,-7.0791,-7.0622,-7.0385,-6.9941,-6.9408,-6.6185,-6.6185,-6.6185,-6.6185,-6.6185,-6.6185,-6.6185,-6.6185,-6.6185,-6.6185,-6.6185,-6.6185,-6.6185,-6.6185,-6.6185,-6.6185,-6.6185,-6.6185,-6.6185,-6.6185,-6.6185,-6.6185,-6.6185,-6.5489,-6.3952,-6.3913,-6.43,-6.4986,-6.5064,-6.5064,-6.5025,-6.5837,-6.5799,-6.5141,-6.5876,-6.6185,-6.6185,-6.6185,-6.6185,-6.6185,-6.6185,-6.6185,-6.6185,-6.6185,-6.6185,-6.6185,-6.6185,-6.6185,-6.6185,-6.6185,-6.6185,-6.6185,-6.6185,-6.6185,-6.6185,-6.6185,-6.6185,-6.6185,-6.6185,-6.6185,-6.6185,-6.6185,-6.6185,-6.6185,-6.6185,-6.6185,-6.6185,-6.6185,-6.6185,-6.6185,-6.6185,-6.6185,-6.6224,-6.6301,-6.6301,-6.634,-6.6417,-6.7114,-6.7617,-6.7617,-6.839,-6.9203,-6.9938,-7.0054,-7.044,-7.1253,-7.1291,-7.1291,-7.1291,-7.1291,-7.1224,-7.1093,-7.1093,-7.103,-7.0898,-7.0898,-7.0898,-7.0898,-7.0898,-7.0898,-7.0898,-7.0898,-7.0898,-7.0898,-7.0898,-7.0898,-7.0898,-7.0898,-7.0898,-7.0898,-7.0898,-7.0637,-7.0304,-7.0271,-6.9777,-6.9091,-6.6185,-6.6185,-6.6185,-6.6185,-6.6185,-6.6185,-6.6185,-6.6185,-6.6185,-6.6185,-6.6185,-6.6185,-6.6185,-6.6185,-6.6185,-6.6185,-6.6185,-6.6185,-6.6185,-6.6185,-6.6185,-6.6185,-6.6185,-6.6031,-6.5682,-6.5644,-6.545,-6.4986,-6.5644,-6.5605,-6.5025,-6.5837,-6.6108,-6.5953,-6.6108,-6.6185,-6.6185,-6.6185,-6.6185,-6.6185,-6.6185,-6.6185,-6.6185,-6.6185,-6.6185,-6.6185,-6.6185,-6.6185,-6.6185,-6.6185,-6.6185,-6.6185,-6.6185,-6.6185,-6.6185,-6.6185,-6.6185,-6.6185,-6.6185,-6.6185,-6.6185,-6.6185,-6.6185,-6.6185,-6.6185,-6.6185,-6.6185,-6.6185,-6.6185,-6.6185,-6.6185,-6.6185,-6.6417,-6.7114,-6.723,-6.7462,-6.8158,-6.839,-6.8506,-6.8506,-6.9241,-6.9821,-6.9976,-7.0634,-7.1098,-7.1291,-7.1291,-7.1269,-7.1224,-7.1224,-7.1166,-7.103,-7.1018,-7.0979,-7.0898,-7.0898,-7.0898,-7.0898,-7.0898,-7.0898,-7.0898,-7.0898,-7.0898,-7.0898,-7.0898,-7.0898,-7.0898,-7.0898,-7.0898,-7.0898,-7.0898,-7.0637,-7.0271,-6.9941,-6.9508,-6.9047,-6.6185,-6.6185,-6.6185,-6.6185,-6.6185,-6.6185,-6.6185,-6.6185,-6.6185,-6.6185,-6.6185,-6.6185,-6.6185,-6.6185,-6.6185,-6.6185,-6.6185,-6.6185,-6.6185,-6.6185,-6.6185,-6.6185,-6.6185,-6.6185,-6.6185,-6.6185,-6.5992,-6.5566,-6.5992,-6.5799,-6.5025,-6.5837,-6.5992,-6.5644,-6.6031,-6.6185,-6.6185,-6.6185,-6.6185,-6.6185,-6.6185,-6.6185,-6.6185,-6.6185,-6.6185,-6.6185,-6.6185,-6.6185,-6.6185,-6.6185,-6.6185,-6.6185,-6.6185,-6.6185,-6.6185,-6.6185,-6.6185,-6.6185,-6.6185,-6.6185,-6.6185,-6.6185,-6.6185,-6.6185,-6.6185,-6.6185,-6.6185,-6.6185,-6.6533,-6.6804,-6.6804,-6.7152,-6.7578,-6.8042,-6.8119,-6.8274,-6.8738,-6.9125,-6.9357,-6.9357,-7.0092,-7.0634,-7.0634,-7.1021,-7.1291,-7.1291,-7.1291,-7.128,-7.1247,-7.1247,-7.119,-7.1056,-7.1056,-7.1005,-7.0898,-7.0898,-7.0898,-7.0898,-7.0898,-7.0898,-7.0898,-7.0898,-7.0898,-7.0898,-7.0898,-7.0898,-7.0898,-7.0898,-7.0898,-7.0885,-7.0705,-7.0369,-6.9959,-6.9567,-6.9155,-6.8786,-6.6185,-6.6185,-6.6185,-6.6185,-6.6185,-6.6185,-6.6185,-6.6185,-6.6185,-6.6185,-6.6185,-6.6185,-6.6185,-6.6185,-6.6185,-6.6185,-6.6185,-6.6185,-6.6185,-6.6185,-6.6185,-6.6185,-6.6185,-6.6185,-6.6185,-6.6185,-6.6185,-6.6185,-6.6185,-6.5876,-6.5218,-6.5876,-6.5837,-6.5218,-6.5915,-6.6185,-6.6185,-6.6185,-6.6185,-6.6185,-6.6185,-6.6185,-6.6185,-6.6185,-6.6185,-6.6185,-6.6185,-6.6185,-6.6185,-6.6185,-6.6185,-6.6185,-6.6185,-6.6185,-6.6185,-6.6185,-6.6185,-6.6185,-6.6185,-6.6301,-6.6417,-6.6417,-6.6533,-6.665,-6.665,-6.6533,-6.6456,-6.6611,-6.723,-6.7733,-6.7733,-6.8313,-6.8854,-6.897,-6.9009,-6.9048,-6.9203,-6.9783,-7.0208,-7.0208,-7.0866,-7.1291,-7.1291,-7.1291,-7.1291,-7.1291,-7.1291,-7.1291,-7.1291,-7.128,-7.1236,-7.1118,-7.1093,-7.103,-7.0912,-7.0898,-7.0898,-7.0898,-7.0898,-7.0898,-7.0898,-7.0898,-7.0898,-7.0898,-7.0898,-7.0898,-7.0898,-7.0843,-7.0791,-7.0762,-7.0353,-6.9959,-6.9548,-6.9134,-6.8786,-6.8481,-6.6185,-6.6185,-6.6185,-6.6185,-6.6185,-6.6185,-6.6185,-6.6185,-6.6185,-6.6185,-6.6185,-6.6185,-6.6185,-6.6185,-6.6185,-6.6185,-6.6185,-6.6185,-6.6185,-6.6185,-6.6185,-6.6185,-6.6185,-6.6185,-6.6185,-6.6185,-6.6185,-6.6185,-6.6185,-6.6147,-6.6031,-6.6147,-6.6147,-6.6031,-6.6147,-6.6185,-6.6185,-6.6185,-6.6185,-6.6185,-6.6185,-6.6185,-6.6185,-6.6185,-6.6185,-6.6185,-6.6185,-6.6185,-6.6185,-6.6185,-6.6185,-6.6185,-6.6185,-6.6185,-6.6185,-6.6185,-6.6185,-6.6185,-6.6185,-6.6766,-6.7307,-6.7307,-6.7887,-6.8468,-6.8468,-6.7887,-6.7539,-6.8274,-6.8545,-6.8622,-6.8622,-6.8738,-6.9048,-6.9705,-6.9821,-7.0092,-7.0866,-7.1059,-7.1098,-7.1098,-7.1214,-7.1291,-7.1291,-7.1291,-7.1291,-7.1291,-7.1291,-7.1291,-7.1291,-7.1247,-7.1213,-7.119,-7.1081,-7.1005,-7.0992,-7.0925,-7.0898,-7.0898,-7.0898,-7.0898,-7.0898,-7.0898,-7.0898,-7.0898,-7.0898,-7.0898,-7.0885,-7.0532,-7.0385,-7.0353,-6.9941,-6.9528,-6.9134,-6.8717,-6.8554,-6.8481,-6.6185,-6.6185,-6.6185,-6.6185,-6.6185,-6.6185,-6.6185,-6.6185,-6.6185,-6.6185,-6.6185,-6.6185,-6.6185,-6.6185,-6.6185,-6.6185,-6.6185,-6.6185,-6.6185,-6.6185,-6.6185,-6.6185,-6.6185,-6.6185,-6.6185,-6.6185,-6.6185,-6.6185,-6.6185,-6.6185,-6.6185,-6.6185,-6.6185,-6.6185,-6.6185,-6.6185,-6.6185,-6.6185,-6.6185,-6.6185,-6.6185,-6.6185,-6.6185,-6.6185,-6.6185,-6.6185,-6.6185,-6.6185,-6.6185,-6.6185,-6.6533,-6.692,-6.692,-6.7268,-6.7655,-6.7655,-6.7655,-6.7655,-6.7655,-6.7926,-6.8236,-6.8236,-6.8506,-6.8932,-6.9357,-6.9164,-6.8893,-6.8816,-6.9164,-6.9473,-6.9473,-6.986,-7.0324,-7.0672,-7.0711,-7.0866,-7.1253,-7.1291,-7.1291,-7.1291,-7.1291,-7.1291,-7.1291,-7.1291,-7.1291,-7.1291,-7.1291,-7.1291,-7.1291,-7.1269,-7.1224,-7.1154,-7.1093,-7.1018,-7.0939,-7.0912,-7.0898,-7.0898,-7.0898,-7.0898,-7.0898,-7.0898,-7.0898,-7.0898,-7.0898,-7.0762,-7.0563,-7.0369,-7.015,-6.9923,-6.9528,-6.9112,-6.874,-6.8578,-6.8481,-6.8481]},{"header":{"parameterUnit":"m.s-1","parameterCategory":1,"la1":30.6,"la2":28.766,"lo1":-90.7593,"lo2":-88.6598,"dy":0.0162,"dx":0.0183,"nx":116,"ny":114,"refTime":"2023-03-20T18:00:00:Z","depth":0,"parameterNumber":3,"parameterNumberName":"V-component_of_WINDS"},"data":[0.0,0.0,0.0,0.0,0.0,0.0,0.0,0.0,0.0,0.0,0.0,0.0,0.0,0.0,0.0,0.0,0.0,0.0,0.0,0.0,0.0,0.0,0.0,0.0,0.0,0.0,0.0,0.0,0.0,0.0,0.0,0.0,0.0,0.0,0.0,0.0,0.0,0.0,0.0,0.0,0.0,0.0,0.0,0.0,0.0,0.0,0.0,0.0,0.0,0.0,0.0,0.0,0.0,0.0,0.0,0.0,0.0,0.0,0.0,0.0,0.0,0.0,0.0,0.0,0.0,0.0,0.0,0.0,0.0,0.0,0.0,0.0,0.0,0.0,0.0,0.0,0.0,0.0,0.0,0.0,0.0,0.0,0.0,0.0,0.0,0.0,0.0,0.0,0.0,0.0,0.0,0.0,0.0,0.0,0.0,0.0,0.0,0.0,0.0,0.0,0.0,0.0,0.0,0.0,0.0,0.0,0.0,0.0,0.0,0.0,0.0,0.0,0.0,0.0,0.0,0.0,0.0,0.0,0.0,0.0,0.0,0.0,0.0,0.0,0.0,0.0,0.0,0.0,0.0,0.0,0.0,0.0,0.0,0.0,0.0,0.0,0.0,0.0,0.0,0.0,0.0,0.0,0.0,0.0,0.0,0.0,0.0,0.0,0.0,0.0,0.0,0.0,0.0,0.0,0.0,0.0,0.0,0.0,0.0,0.0,0.0,0.0,0.0,0.0,0.0,0.0,0.0,0.0,0.0,0.0,0.0,0.0,0.0,0.0,0.0,0.0,0.0,0.0,0.0,0.0,0.0,0.0,0.0,0.0,0.0,0.0,0.0,0.0,0.0,0.0,0.0,0.0,0.0,0.0,0.0,0.0,0.0,0.0,0.0,0.0,0.0,0.0,0.0,0.0,0.0,0.0,0.0,0.0,0.0,0.0,0.0,0.0,0.0,0.0,0.0,0.0,0.0,0.0,0.0,0.0,0.0,0.0,0.0,0.0,0.0,0.0,0.0,0.0,0.0,0.0,0.0,0.0,0.0,0.0,0.0,0.0,0.0,0.0,0.0,0.0,0.0,0.0,0.0,0.0,0.0,0.0,0.0,0.0,0.0,0.0,0.0,0.0,0.0,0.0,0.0,0.0,0.0,0.0,0.0,0.0,0.0,0.0,0.0,0.0,0.0,0.0,0.0,0.0,0.0,0.0,0.0,0.0,0.0,0.0,0.0,0.0,0.0,0.0,0.0,0.0,0.0,0.0,0.0,0.0,0.0,0.0,0.0,0.0,0.0,0.0,0.0,0.0,0.0,0.0,0.0,0.0,0.0,0.0,0.0,0.0,0.0,0.0,0.0,0.0,0.0,0.0,0.0,0.0,0.0,0.0,0.0,0.0,0.0,0.0,0.0,0.0,0.0,0.0,0.0,0.0,0.0,0.0,0.0,0.0,0.0,0.0,0.0,0.0,0.0,0.0,0.0,0.0,0.0,0.0,0.0,0.0,0.0,0.0,0.0,0.0,0.0,0.0,0.0,0.0,0.0,0.0,0.0,0.0,0.0,0.0,0.0,0.0,0.0,0.0,0.0,0.0,0.0,0.0,0.0,0.0,0.0,0.0,0.0,0.0,0.0,0.0,0.0,0.0,0.0,0.0,0.0,0.0,0.0,0.0,0.0,0.0,0.0,0.0,0.0,0.0,0.0,0.0,0.0,0.0,0.0,0.0,0.0,0.0,0.0,0.0,0.0,0.0,0.0,0.0,0.0,0.0,0.0,0.0,0.0,0.0,0.0,0.0,0.0,0.0,0.0,0.0,0.0,0.0,0.0,0.0,0.0,0.0,0.0,0.0,0.0,0.0,0.0,0.0,0.0,0.0,0.0,0.0,0.0,0.0,0.0,0.0,0.0,0.0,0.0,0.0,0.0,0.0,0.0,0.0,0.0,0.0,0.0,0.0,0.0,0.0,0.0,0.0,0.0,0.0,0.0,0.0,0.0,0.0,0.0,0.0,0.0,0.0,0.0,0.0,0.0,0.0,0.0,0.0,0.0,0.0,0.0,0.0,0.0,0.0,0.0,0.0,0.0,0.0,0.0,0.0,0.0,0.0,0.0,0.0,0.0,0.0,0.0,0.0,0.0,0.0,0.0,0.0,0.0,0.0,0.0,0.0,0.0,0.0,0.0,0.0,0.0,0.0,0.0,0.0,0.0,0.0,0.0,0.0,0.0,0.0,0.0,0.0,0.0,0.0,0.0,0.0,0.0,0.0,0.0,0.0,0.0,0.0,0.0,0.0,0.0,0.0,0.0,0.0,0.0,0.0,0.0,0.0,0.0,0.0,0.0,0.0,0.0,0.0,0.0,0.0,0.0,0.0,0.0,0.0,0.0,0.0,0.0,0.0,0.0,0.0,0.0,0.0,0.0,0.0,0.0,0.0,0.0,0.0,0.0,0.0,0.0,0.0,0.0,0.0,0.0,0.0,0.0,0.0,0.0,0.0,0.0,0.0,0.0,0.0,0.0,0.0,0.0,0.0,0.0,0.0,0.0,0.0,0.0,0.0,0.0,0.0,0.0,0.0,0.0,0.0,0.0,0.0,0.0,0.0,0.0,0.0,0.0,0.0,0.0,0.0,0.0,0.0,0.0,0.0,0.0,0.0,0.0,0.0,0.0,0.0,0.0,0.0,0.0,0.0,0.0,0.0,0.0,0.0,0.0,0.0,0.0,0.0,0.0,0.0,0.0,0.0,0.0,0.0,0.0,0.0,0.0,0.0,0.0,0.0,0.0,0.0,0.0,0.0,0.0,0.0,0.0,0.0,0.0,0.0,0.0,0.0,0.0,0.0,0.0,0.0,0.0,0.0,0.0,0.0,0.0,0.0,0.0,0.0,0.0,0.0,0.0,0.0,0.0,0.0,0.0,0.0,0.0,0.0,0.0,0.0,0.0,0.0,0.0,0.0,0.0,0.0,0.0,0.0,0.0,0.0,0.0,0.0,0.0,0.0,0.0,0.0,0.0,0.0,0.0,0.0,0.0,0.0,0.0,0.0,0.0,0.0,0.0,0.0,0.0,0.0,0.0,0.0,0.0,0.0,0.0,0.0,0.0,0.0,0.0,0.0,0.0,0.0,0.0,0.0,0.0,0.0,0.0,0.0,0.0,0.0,0.0,0.0,0.0,0.0,0.0,0.0,0.0,0.0,0.0,0.0,0.0,0.0,0.0,0.0,0.0,0.0,0.0,0.0,0.0,0.0,0.0,0.0,0.0,0.0,0.0,0.0,0.0,0.0,0.0,0.0,0.0,0.0,0.0,0.0,0.0,0.0,0.0,0.0,0.0,0.0,0.0,0.0,0.0,0.0,0.0,0.0,0.0,0.0,0.0,0.0,0.0,0.0,0.0,0.0,0.0,0.0,0.0,0.0,0.0,0.0,0.0,0.0,0.0,0.0,0.0,0.0,0.0,0.0,0.0,0.0,0.0,0.0,0.0,0.0,0.0,0.0,0.0,0.0,0.0,0.0,0.0,0.0,0.0,0.0,0.0,0.0,0.0,0.0,0.0,0.0,0.0,0.0,0.0,0.0,0.0,0.0,0.0,0.0,0.0,0.0,0.0,0.0,0.0,0.0,0.0,0.0,0.0,0.0,0.0,0.0,0.0,0.0,0.0,0.0,0.0,0.0,0.0,0.0,0.0,0.0,0.0,0.0,0.0,0.0,0.0,0.0,0.0,0.0,0.0,0.0,0.0,0.0,0.0,0.0,0.0,0.0,0.0,0.0,0.0,0.0,0.0,0.0,0.0,0.0,0.0,0.0,0.0,0.0,0.0,0.0,0.0,0.0,0.0,0.0,0.0,0.0,0.0,0.0,0.0,0.0,0.0,0.0,0.0,0.0,0.0,0.0,0.0,0.0,0.0,0.0,0.0,0.0,0.0,0.0,0.0,0.0,0.0,0.0,0.0,0.0,0.0,0.0,0.0,0.0,0.0,0.0,0.0,0.0,0.0,0.0,0.0,0.0,0.0,0.0,0.0,0.0,0.0,0.0,0.0,0.0,0.0,0.0,0.0,0.0,0.0,0.0,0.0,0.0,0.0,0.0,0.0,0.0,0.0,0.0,0.0,0.0,0.0,0.0,0.0,0.0,0.0,0.0,0.0,0.0,0.0,0.0,0.0,0.0,0.0,0.0,0.0,0.0,0.0,0.0,0.0,0.0,0.0,0.0,0.0,0.0,0.0,0.0,0.0,0.0,0.0,0.0,0.0,0.0,0.0,0.0,0.0,0.0,0.0,0.0,0.0,0.0,0.0,0.0,0.0,0.0,0.0,0.0,0.0,0.0,0.0,0.0,0.0,0.0,0.0,0.0,0.0,0.0,0.0,0.0,0.0,0.0,0.0,0.0,0.0,0.0,0.0,0.0,0.0,0.0,0.0,0.0,0.0,0.0,0.0,0.0,0.0,0.0,0.0,0.0,0.0,0.0,0.0,0.0,0.0,0.0,0.0,0.0,0.0,0.0,0.0,0.0,0.0,0.0,0.0,0.0,0.0,0.0,0.0,0.0,0.0,0.0,0.0,0.0,0.0,0.0,0.0,0.0,0.0,0.0,0.0,0.0,0.0,0.0,0.0,0.0,0.0,0.0,0.0,0.0,0.0,0.0,0.0,0.0,0.0,0.0,0.0,0.0,0.0,0.0,0.0,0.0,0.0,0.0,0.0,0.0,0.0,0.0,0.0,0.0,0.0,0.0,0.0,0.0,0.0,0.0,0.0,0.0,0.0,0.0,0.0,0.0,0.0,0.0,0.0,0.0,0.0,0.0,0.0,0.0,0.0,0.0,0.0,0.0,0.0,0.0,0.0,0.0,0.0,0.0,0.0,0.0,0.0,0.0,0.0,0.0,0.0,0.0,0.0,0.0,0.0,0.0,0.0,0.0,0.0,0.0,0.0,0.0,0.0,0.0,0.0,0.0,0.0,0.0,0.0,0.0,0.0,0.0,0.0,0.0,0.0,0.0,0.0,0.0,0.0,0.0,0.0,0.0,0.0,0.0,0.0,0.0,0.0,0.0,0.0,0.0,0.0,0.0,0.0,0.0,0.0,0.0,0.0,0.0,0.0,0.0,0.0,0.0,0.0,0.0,0.0,0.0,0.0,0.0,0.0,0.0,0.0,0.0,0.0,0.0,0.0,0.0,0.0,0.0,0.0,0.0,0.0,0.0,0.0,0.0,0.0,0.0,0.0,0.0,0.0,0.0,0.0,0.0,0.0,0.0,0.0,0.0,0.0,0.0,0.0,0.0,0.0,0.0,0.0,0.0,0.0,0.0,0.0,0.0,0.0,0.0,0.0,0.0,0.0,0.0,0.0,0.0,0.0,0.0,0.0,0.0,0.0,0.0,0.0,0.0,0.0,0.0,0.0,0.0,0.0,0.0,0.0,0.0,0.0,0.0,0.0,0.0,0.0,0.0,0.0,0.0,0.0,0.0,0.0,0.0,0.0,0.0,0.0,0.0,0.0,0.0,0.0,0.0,0.0,0.0,0.0,0.0,0.0,0.0,0.0,0.0,0.0,0.0,0.0,0.0,0.0,0.0,0.0,0.0,0.0,0.0,0.0,0.0,0.0,0.0,0.0,0.0,0.0,0.0,0.0,0.0,0.0,0.0,0.0,0.0,0.0,0.0,0.0,0.0,0.0,0.0,0.0,0.0,0.0,0.0,0.0,0.0,0.0,0.0,0.0,0.0,0.0,0.0,0.0,0.0,0.0,0.0,0.0,0.0,0.0,0.0,0.0,0.0,0.0,0.0,0.0,0.0,0.0,0.0,0.0,0.0,0.0,0.0,0.0,0.0,0.0,0.0,0.0,0.0,0.0,0.0,0.0,0.0,0.0,0.0,0.0,0.0,0.0,0.0,0.0,0.0,0.0,0.0,0.0,0.0,0.0,0.0,0.0,0.0,0.0,0.0,0.0,0.0,0.0,0.0,0.0,0.0,0.0,0.0,0.0,0.0,0.0,0.0,0.0,0.0,0.0,0.0,0.0,0.0,0.0,0.0,0.0,0.0,0.0,0.0,0.0,0.0,0.0,0.0,0.0,0.0,0.0,0.0,0.0,0.0,0.0,0.0,0.0,0.0,0.0,0.0,0.2141,0.1649,0.0,0.0,0.0,0.0,0.0,0.0,0.0,0.0,0.0,0.0,0.0,0.0,0.0,0.0,0.0,0.0,0.0,0.0,0.0,0.0,0.0,0.0,0.0,0.0,0.0,0.0,0.0,0.0,0.0,0.0,0.0,0.0,0.0,0.0,0.0,0.0,0.0,0.0,-0.2892,-0.2223,-0.2223,-0.3696,-0.4784,-0.5562,0.0,0.0,0.0,0.0,0.0,0.0,0.0,0.0,0.0,0.0,0.0,0.0,0.0,0.0,0.0,0.0,0.0,0.0,0.0,0.0,0.0,0.0,0.0,0.0,0.0,0.0,0.0,0.0,0.0,0.0,0.0,0.0,0.0,0.0,0.0,0.0,0.0,0.0,0.0,0.0,0.0,0.0,0.0,0.0,0.0,0.0,0.0,0.0,0.0,0.0,0.0,0.0,0.0,0.0,0.0,0.0,0.0,0.0,0.0,0.0,0.0,0.0,0.0,0.0,0.0,0.0,0.0,0.0,0.0,0.0,0.3792,0.318,0.0,0.0,0.0,0.0,0.0,0.0,0.0,0.0,0.0,0.0,0.0,0.0,0.0,0.0,0.0,0.0,0.0,0.0,0.0,0.0,0.0,0.0,0.0,0.0,0.0,0.0,0.0,0.0,0.0,0.0,0.0,0.0,0.0,0.0,0.0,0.0,0.0,0.0,-0.2759,-0.2223,-0.2223,-0.2223,-0.2827,-0.3964,-0.3964,0.0,0.0,0.0,0.0,0.0,0.0,0.0,0.0,0.0,0.0,0.0,0.0,0.0,0.0,0.0,0.0,0.0,0.0,0.0,0.0,0.0,0.0,0.0,0.0,0.0,0.0,0.0,0.0,0.0,0.0,0.0,0.0,0.0,0.0,0.0,0.0,0.0,0.0,0.0,0.0,0.0,0.0,0.0,0.0,0.0,0.0,0.0,0.0,0.0,0.0,0.0,0.0,0.0,0.0,0.0,0.0,0.0,0.0,0.0,0.0,0.0,0.0,0.0,0.4719,0.4857,0.4857,0.5134,0.5863,0.6898,0.5732,0.5005,0.4672,0.4653,0.0,0.0,0.0,0.0,0.0,0.0,0.0,0.0,0.0,0.0,0.0,0.0,0.0,0.0,0.0,0.0,0.0,0.0,0.0,0.0,0.0,-1.2774,-1.2774,-1.2774,-1.2774,-1.2774,0.0,0.0,0.0,0.0,0.0,0.0,0.0,-0.4501,-0.3698,-0.249,-0.2289,-0.2223,-0.2223,-0.2223,-0.2289,-0.249,-0.249,-0.2627,-0.2901,0.0,0.0,0.0,0.0,0.0,0.0,0.0,0.0,0.0,0.0,0.0,0.0,0.0,0.0,0.0,0.0,0.0,0.0,0.0,0.0,0.0,0.0,0.0,0.0,0.0,0.0,0.0,0.0,0.0,0.0,0.0,0.0,0.0,0.0,0.0,0.0,0.0,0.0,0.0,0.0,0.0,0.0,0.0,0.0,0.0,0.0,0.0,0.0,0.0,0.0,0.0,0.0,0.0,0.0,0.0,0.0,0.5056,0.5258,0.5258,0.5258,0.5258,0.6468,0.7071,0.7139,0.8427,0.9096,0.9285,0.9096,0.0,0.6115,0.6126,0.0,0.0,0.0,0.0,0.0,0.0,0.0,0.0,0.0,0.0,0.0,0.0,0.0,0.0,0.0,0.0,0.0,0.0,0.0,0.0,0.0,-1.2897,-1.2774,-1.2774,-1.2774,-1.2774,-1.2774,0.0,0.0,0.0,0.0,0.0,-0.4367,-0.3497,-0.2827,-0.2223,-0.2223,-0.2223,-0.2223,-0.2223,-0.2223,-0.2223,-0.2223,-0.2223,-0.2223,-0.2827,0.0,0.0,0.0,0.0,0.0,0.0,0.0,0.0,0.0,0.0,0.0,0.0,0.0,0.0,0.0,0.0,0.0,0.0,0.0,0.0,0.0,0.0,0.0,0.0,0.0,0.0,0.0,0.0,0.0,0.0,0.0,0.0,0.0,0.0,0.0,0.0,0.0,0.0,0.0,0.0145,0.0288,0.0287,0.1207,0.1833,0.0,0.0,0.0,0.0,0.0,0.0,0.0,0.0,0.0,0.6564,0.6564,0.6969,0.7779,0.7846,0.7846,0.7846,0.8446,0.8717,0.8784,0.9389,0.9728,0.9728,0.9728,0.9157,0.8262,0.7988,0.7675,0.7306,0.0,0.0,0.0,0.0,0.7306,0.7306,0.0,0.0,0.0,0.0,0.0,0.0,0.0,0.0,0.0,0.0,0.0,0.0,-1.3173,-1.3011,-1.2905,-1.2905,-1.2865,-1.2774,-1.2774,-1.1901,0.0,0.0,0.0,-0.5299,-0.3765,-0.2759,-0.2223,-0.2223,-0.2223,-0.2223,-0.2223,-0.2223,-0.2223,-0.2223,-0.2223,-0.2223,-0.2223,-0.2223,-0.2827,-0.3698,0.0,0.0,0.0,0.0,0.0,0.0,0.0,0.0,0.0,0.0,0.0,0.0,0.0,0.0,0.0,0.0,0.0,0.0,0.0,0.0,0.0,0.0,0.0,0.0,0.0,0.0,0.0,0.0,0.0,0.0,0.0,0.0,0.0,0.0,0.0,0.0,0.0,0.0646,0.1066,0.1062,0.2663,0.3753,0.0,0.0,0.0,0.0,0.0,0.0,0.6635,0.6702,0.7236,0.8307,0.8307,0.8845,0.9927,0.9927,0.9927,0.9927,0.9927,0.9927,0.9927,0.9927,0.9927,0.9927,0.9927,0.9927,0.9927,0.9455,0.9455,0.9661,0.9389,0.9455,0.9728,0.9728,0.9728,0.9661,0.0,0.0,0.0,0.0,0.0,0.0,0.0,0.0,0.0,0.0,0.0,-1.3547,-1.3376,-1.3189,-1.3084,-1.3084,-1.2929,-1.2774,-1.2774,-1.0306,-0.8435,-0.7626,-0.4897,-0.3026,-0.2289,-0.2223,-0.2223,-0.2223,-0.2223,-0.2223,-0.2223,-0.2223,-0.2223,-0.2223,-0.2223,-0.2223,-0.2223,-0.2223,-0.2223,-0.2289,-0.2223,0.0,0.0,0.0,0.0,0.0,0.0,0.0,0.0,0.0,0.0,0.0,0.0,0.0,0.0,0.0,0.0,0.0,0.0,0.0,0.0,0.0,0.0,0.0,0.0,0.0,0.0,0.0,0.0,0.0,0.0,0.0,0.0,0.0,0.0,0.0,0.0,0.0,0.0,0.2614,0.4184,0.0,0.0,0.0,0.0,0.7312,0.7702,0.8501,0.9854,1.0253,1.0452,1.0518,1.0518,1.0585,1.0651,1.0651,1.0651,1.0651,1.0651,1.0651,1.0651,1.0651,1.0651,1.0651,1.0651,1.0651,1.0585,0.9927,0.9661,0.9728,0.9661,0.9661,0.9728,0.9728,0.9728,0.9728,0.0,0.0,0.0,0.0,0.0,0.0,0.0,0.0,0.0,-1.3815,-1.3709,-1.355,-1.3555,-1.3384,-1.3222,-1.3108,-1.3035,-1.2954,-1.2774,-1.1439,-0.9703,-0.7621,-0.603,-0.4297,-0.2221,-0.2223,-0.2223,-0.2223,-0.2223,-0.2223,-0.2223,-0.2223,-0.2223,-0.2223,-0.2223,-0.2223,-0.2223,-0.2223,-0.2223,-0.2223,-0.2223,-0.2223,0.0,0.0,0.0,0.0,0.0,0.0,0.0,0.0,0.0,0.0,0.0,0.0,0.0,0.0,0.0,0.0,0.0,0.0,0.0,0.0,0.0,0.0,0.0,0.0,0.0,0.0,0.0,0.0,0.0,0.0,0.0,0.0,0.0,0.0,0.0,0.0,0.0,0.4658,0.6377,0.0,0.7441,0.8307,0.9045,0.951,0.9643,0.9981,1.0518,1.0651,1.0717,1.0717,1.0717,1.0717,1.0717,1.0717,1.0717,1.0717,1.0717,1.0717,1.0717,1.0717,1.0717,1.0717,1.0717,1.0717,1.0651,1.0459,1.0326,1.0326,1.0127,1.0127,1.0326,1.0326,1.0326,1.0326,0.0,0.0,0.0,0.0,0.0,0.0,0.0,0.0,0.0,-1.3904,-1.3798,-1.3734,-1.3734,-1.3571,-1.3417,-1.3287,-1.3165,-1.2976,-1.273,-1.1468,-0.9703,-0.7426,-0.583,-0.4096,-0.2223,-0.2223,-0.2223,-0.2223,-0.2223,-0.2223,-0.2223,-0.2223,-0.2223,-0.2223,-0.2223,-0.2223,-0.2223,-0.2223,-0.2223,-0.2223,-0.2223,-0.2223,-0.2223,0.0,0.0,0.0,0.0,0.0,0.0,0.0,0.0,0.0,0.0,0.0,0.0,0.0,0.0,0.0,0.0,0.0,0.0,0.0,0.0,0.0,0.0,0.0,0.0,0.0,0.0,0.0,0.0,0.0,0.0,0.0,0.0,0.0,0.0,0.4529,0.5573,0.6517,0.8215,0.931,0.931,1.018,1.0717,1.0717,1.0717,1.0717,1.0717,1.0717,1.0717,1.0717,1.0717,1.0717,1.0717,1.0717,1.0717,1.0717,1.0717,1.0717,1.0717,1.0717,1.0717,1.0717,1.0717,1.0717,1.0717,1.0717,1.0717,1.0651,1.0459,1.0525,1.0717,1.0717,1.0717,1.0658,0.0,0.0,0.0,0.0,0.0,0.0,0.0,0.0,-1.3904,-1.3904,-1.3904,-1.3904,-1.3904,-1.375,-1.3582,-1.3574,-1.3319,-1.2974,-1.2621,-1.0184,-0.8174,-0.7027,-0.3895,-0.2223,-0.2223,-0.2223,-0.2223,-0.2223,-0.2223,-0.2223,-0.2223,-0.2223,-0.2223,-0.2223,-0.2223,-0.2223,-0.2223,-0.2223,-0.2223,-0.2223,-0.2223,-0.2223,-0.2223,0.0,0.0,0.0,0.0,0.0,0.0,0.0,0.0,0.0,0.0,0.0,0.0,0.0,0.0,0.0,0.0,0.0,0.0,0.0,0.0,0.0,0.0,0.0,0.0,0.0,0.0,0.0,0.0,0.0,0.0,0.0,0.0,0.0,0.5539,0.6955,0.803,0.8097,0.9643,1.0717,1.0717,1.0717,1.0711,1.0711,1.0711,1.0704,1.0704,1.0704,1.0704,1.0704,1.0704,1.0704,1.0704,1.0704,1.0704,1.0704,1.0704,1.0704,1.0704,1.0711,1.0711,1.0711,1.0717,1.0717,1.0717,1.0717,1.0717,1.0717,1.0717,1.0717,1.0717,1.0717,1.0717,1.0717,0.0,0.0,0.0,0.0,0.0,0.0,0.0,-1.3904,-1.3904,-1.3904,-1.3904,-1.3904,-1.3904,-1.3855,-1.3782,-1.3582,-1.3555,-1.3308,-1.2974,-1.1761,-0.9734,-0.6702,-0.3763,-0.2223,-0.2223,-0.2223,-0.2223,-0.2223,-0.2223,-0.2223,-0.2223,-0.2223,-0.2223,-0.2223,-0.2223,-0.2223,-0.2223,-0.2223,-0.249,-0.2892,-0.2423,-0.2223,-0.2223,0.0,0.0,0.0,0.0,0.0,0.0,0.0,0.0,0.0,0.0,0.0,0.0,0.0,0.0,0.0,0.0,0.0,0.0,0.0,0.0,0.0,0.0,0.0,0.0,0.0,0.0,0.0,0.0,0.0,0.0,0.0,0.6195,0.7407,0.7273,0.7922,0.8839,0.9842,1.0386,1.0717,1.0717,1.0622,1.0555,1.0555,1.046,1.0399,1.0399,1.0399,1.0399,1.0399,1.0399,1.0399,1.0399,1.0399,1.0399,1.0399,1.0399,1.0399,1.0405,1.0507,1.0555,1.0561,1.067,1.0717,1.0717,1.0717,1.0717,1.0717,1.0717,1.0717,1.0717,1.0717,1.0717,1.0717,0.0,0.0,0.0,0.0,0.0,0.0,0.0,-1.3904,-1.3904,-1.3904,-1.3904,-1.3904,-1.3904,-1.3904,-1.3863,-1.3758,-1.3612,-1.3372,-1.3018,-1.1028,-0.8706,-0.6105,-0.3562,-0.2223,-0.2223,-0.2223,-0.2223,-0.2223,-0.2223,-0.2223,-0.2223,-0.2223,-0.2223,-0.2223,-0.2223,-0.2223,-0.2223,-0.2223,-0.2423,-0.2759,-0.2356,-0.2356,-0.2625,-0.2625,-0.2423,-0.2223,-0.2223,-0.2174,-0.22,-0.22,0.0,0.0,0.0,0.0,0.0,0.0,0.0,0.0,0.0,0.0,0.0,0.0,0.0,0.0,0.0,0.0,0.0,0.0,0.0,0.0,0.0,0.0,0.0,0.0,0.7969,0.9105,0.9105,0.931,0.9782,1.0585,1.0663,1.0622,1.0622,1.0487,1.0405,1.0405,1.0324,1.0283,1.0283,1.0283,1.0283,1.0283,1.0283,1.0283,1.0283,1.0283,1.0283,1.0283,1.0283,1.0283,1.0283,1.0365,1.0405,1.0412,1.0493,1.0534,1.0534,1.0534,1.0534,1.0548,0.0,0.0,0.0,0.0,1.0622,1.0616,0.0,0.0,0.0,0.0,0.0,0.0,0.0,0.0,-1.3904,-1.3904,-1.3904,-1.3904,-1.3904,-1.3904,-1.3904,-1.3904,-1.3612,-1.3287,-1.285,-0.9396,0.0,-0.5651,-0.3633,-0.2423,-0.2223,-0.2223,-0.2223,-0.2223,-0.2223,-0.2223,-0.2223,-0.2223,-0.2223,-0.2223,-0.2223,-0.2223,-0.2223,-0.2223,-0.2223,-0.2289,-0.2289,-0.2625,-0.3094,-0.3094,-0.2692,-0.2223,-0.2223,-0.2172,-0.2195,-0.2195,0.0,0.0,0.0,0.0,0.0,0.0,0.0,0.0,0.0,0.0,0.0,0.0,0.0,0.0,0.0,0.0,0.0,0.0,0.0,0.0,0.0,0.0,0.0,0.0,0.951,1.0717,1.0717,1.0704,1.0697,1.0697,1.0575,1.0487,1.0466,1.0337,1.0256,1.0256,1.0236,1.0229,1.0229,1.0229,0.0,0.0,0.0,1.0229,1.0229,1.0229,1.0229,1.0229,1.0229,1.0236,1.0256,1.0276,1.029,1.0304,1.0324,1.0324,1.0304,1.0304,1.0297,1.0304,1.0568,1.067,1.0656,1.0521,1.0466,1.0453,0.0,0.0,0.0,0.0,0.0,0.0,0.0,0.0,-1.3904,-1.3904,-1.3904,-1.3904,-1.3904,-1.3904,-1.3904,-1.3904,-1.3839,-1.3601,0.0,0.0,-0.8912,-0.6948,-0.5198,-0.3629,-0.2223,-0.2223,-0.2223,-0.2223,-0.2223,-0.2223,-0.2223,-0.2223,-0.2223,-0.2223,-0.2223,-0.2223,-0.2223,-0.2223,-0.249,-0.3026,-0.3026,-0.2759,-0.2423,-0.2423,-0.2289,-0.2223,-0.2223,-0.2225,-0.2231,-0.2231,-0.2184,-0.2208,-0.2208,-0.223,0.0,0.0,0.0,0.0,0.0,0.0,0.0,0.0,0.0,0.0,0.0,0.0,0.0,0.0,0.0,0.0,0.0,0.0,0.0,0.7964,0.951,1.0717,1.0717,1.0616,1.0534,1.0534,1.0507,1.0446,1.0331,1.0181,1.0031,1.0031,0.9978,0.991,0.991,0.991,0.991,0.991,0.991,0.991,0.991,0.991,0.991,0.991,0.991,0.0,1.0038,1.0222,1.0344,1.046,1.0582,1.0568,1.0453,1.0453,1.0385,1.0283,1.0344,1.0365,1.0365,1.0331,1.0324,1.0317,0.0,0.0,0.0,0.0,0.0,0.0,0.0,0.0,-1.3904,-1.3904,-1.3904,-1.3904,-1.3904,-1.3904,-1.3904,-1.3904,-1.3823,0.0,0.0,-1.1461,-0.993,-0.8486,-0.6206,-0.4476,-0.3397,-0.2566,-0.2223,-0.2223,-0.2223,-0.2223,-0.2223,-0.2223,-0.2223,-0.2223,-0.2223,-0.2223,-0.2223,-0.2558,-0.2892,-0.3228,-0.3631,-0.3362,-0.2692,-0.2692,-0.249,-0.2223,-0.2223,-0.2223,-0.2223,-0.2223,-0.2232,-0.2177,-0.2177,-0.2199,-0.2222,0.0,0.0,0.0,0.0,0.0,0.0,0.0,0.0,0.0,0.0,0.0,0.0,0.0,0.0,0.4693,0.5897,0.0,0.8778,0.9244,1.0114,1.0697,1.0616,1.0541,1.0493,1.0493,1.0358,1.0243,1.0175,1.0025,0.9876,0.9876,0.9863,0.9822,0.9822,0.9822,0.9822,0.9822,0.9822,0.9856,0.9876,0.9876,0.9971,1.0053,1.0053,1.0093,1.0168,1.0243,1.0317,1.0392,1.0466,1.046,1.0385,1.0385,1.0344,1.0283,1.0283,1.0283,1.0283,1.0283,1.0283,1.0283,0.0,0.0,0.0,0.0,0.0,0.0,0.0,0.0,0.0,-1.3904,-1.3904,-1.3904,-1.3904,-1.3904,-1.3904,0.0,0.0,0.0,0.0,-1.1898,-1.0833,-0.9932,-0.7117,-0.5289,-0.4607,-0.3061,-0.2231,-0.2231,-0.2225,-0.2223,-0.2223,-0.2223,-0.2223,-0.2223,-0.2223,-0.2289,-0.2423,-0.2959,-0.3295,-0.3497,-0.4031,-0.3964,-0.343,-0.3228,-0.2759,-0.2223,-0.2223,-0.2223,-0.2223,-0.2223,-0.2223,-0.2223,-0.2223,-0.2172,-0.2191,-0.2191,-0.2208,0.0,0.0,0.0,0.0,0.0,0.0,0.0,0.0,0.0202,0.0807,0.2217,0.3691,0.5366,0.7507,0.8917,0.9927,1.0585,1.0717,1.067,1.0514,1.0466,1.0439,1.0405,1.0132,0.9977,0.9943,0.989,0.9822,0.9822,0.9822,0.9836,0.9863,0.9863,0.9876,0.991,0.991,0.9971,1.0031,1.0031,1.0154,1.0283,1.0283,1.0297,1.0324,1.0324,1.0337,1.0365,1.0337,1.0324,1.0317,1.029,1.0283,1.0283,1.0283,1.0283,1.0283,1.0283,1.0283,1.0283,0.0,0.0,0.0,0.0,0.0,0.0,0.0,0.0,0.0,0.0,0.0,0.0,0.0,0.0,0.0,0.0,0.0,0.0,-1.3768,-1.3482,-1.2547,-1.0914,-0.8686,-0.6753,-0.5087,-0.3172,-0.2195,-0.2195,-0.2168,-0.2223,-0.2223,-0.2223,-0.2223,-0.2223,-0.2223,-0.2558,-0.3094,-0.3161,-0.3564,-0.4166,-0.43,-0.4233,-0.4099,-0.343,-0.2759,-0.2223,-0.2223,-0.2223,-0.2223,-0.2223,-0.2223,-0.2223,-0.2223,-0.2224,-0.2227,-0.2227,-0.223,-0.2097,-0.1759,-0.1148,-0.0472,-0.0067,0.0,0.0,0.0,0.0941,0.2286,0.3758,0.5165,0.6844,0.9056,0.9594,0.9927,1.0585,1.0717,1.067,1.0514,1.0385,1.0256,1.0051,1.0004,0.9936,0.9863,0.9829,0.9822,0.9822,0.9822,0.9883,0.9957,0.9963,1.0086,1.0222,1.0229,1.0236,1.0256,1.0256,1.0263,1.0283,1.0283,1.0344,1.0466,1.0466,1.0541,1.0663,1.0527,1.0466,1.046,1.0331,1.0283,1.0283,1.0283,1.0283,1.0283,1.0283,1.0283,1.0283,0.0,0.0,0.0,0.0,0.0,0.0,0.0,0.0,0.0,0.0,0.0,0.0,0.0,0.0,0.0,0.0,0.0,0.0,-1.3904,-1.3831,-1.3358,-1.2357,-1.0645,-0.8884,-0.7204,-0.5026,-0.354,-0.292,-0.242,-0.2207,-0.2207,-0.2189,-0.2181,-0.218,-0.223,-0.2558,-0.3228,-0.3631,-0.4235,-0.4906,-0.4906,-0.4705,-0.4233,-0.3497,-0.2759,-0.2223,-0.2223,-0.2223,0.0,0.0,-0.2223,-0.2223,-0.2223,-0.2223,-0.2223,-0.2223,-0.2223,-0.2087,-0.1481,-0.1077,-0.0741,-0.0135,0.0,0.0,0.0,0.0471,0.1546,0.3825,0.4763,0.6034,0.8851,0.9528,0.9861,1.0326,1.0591,1.067,1.0514,1.0439,1.0351,1.0202,1.0181,1.012,0.9909,1.0039,1.0086,1.0086,1.0086,1.0114,1.0181,1.0181,1.0215,1.0276,1.0283,1.0317,1.0405,1.0405,1.0446,1.0534,1.0534,1.0568,1.0622,1.0622,1.0663,1.0717,1.0649,1.0622,1.0622,1.0561,1.0534,1.0534,1.0534,1.0534,1.0527,1.0439,1.0405,1.0419,0.0,0.0,0.0,0.0,0.0,0.0,0.0,0.0,0.0,0.0,0.0,0.0,0.0,0.0,0.0,0.0,0.0,0.0,0.0,-1.3904,-1.3753,-1.3468,-1.1917,-1.0503,-0.9374,-0.7064,-0.534,-0.4223,-0.365,-0.3153,-0.2875,-0.2847,-0.2833,-0.2833,-0.2871,-0.3191,-0.3854,-0.4392,-0.506,-0.5714,-0.5714,-0.5245,-0.4504,-0.3765,-0.3094,-0.2423,-0.2289,-0.2223,0.0,0.0,-0.2223,-0.2223,-0.2223,-0.2223,-0.2223,-0.2223,-0.2223,-0.2019,-0.1279,-0.1077,-0.0943,-0.0202,0.0,0.0,0.0,0.0,0.0807,0.3691,0.4294,0.5299,0.8512,0.9455,0.9794,1.0127,1.0452,1.067,1.0514,1.0493,1.0439,1.0297,1.0317,1.0297,1.0118,1.0236,1.0283,1.0283,1.0283,1.0297,1.0337,1.0337,1.0358,1.0399,1.0399,1.0453,1.0555,1.0555,1.0609,1.0717,1.0717,1.0717,1.0717,1.0717,1.0717,1.0717,1.0717,1.0717,1.0717,1.0717,1.0717,1.0717,1.0717,1.0717,1.0704,1.0595,1.0555,1.0568,0.0,0.0,0.0,0.0,0.0,0.0,0.0,0.0,0.0,0.0,0.0,0.0,0.0,0.0,0.0,0.0,0.0,0.0,0.0,-1.3904,-1.3904,-1.3904,-1.2015,-1.1005,-1.0934,-0.9007,-0.7389,-0.6193,-0.6185,-0.559,-0.4552,-0.4552,-0.455,-0.455,-0.455,-0.486,-0.5413,-0.5481,-0.5851,-0.6455,-0.6455,-0.6049,-0.5312,-0.4571,-0.383,-0.3094,-0.2423,0.0,0.0,0.0,-0.2223,-0.2223,-0.2223,-0.2223,-0.2223,-0.2223,-0.2223,-0.2019,-0.1279,-0.1077,-0.0943,-0.0202,0.0,0.0,0.0,0.0,0.0807,0.3691,0.4294,0.5299,0.8512,0.9455,0.9794,1.0127,1.0452,1.067,1.0514,1.0493,1.0439,1.0297,1.0399,1.048,1.048,1.0358,1.0283,1.0283,1.0283,1.0337,1.048,1.0487,1.0555,1.0704,1.0704,1.0711,1.0711,1.0711,1.0717,1.0717,1.0717,1.0717,1.0717,1.0717,1.0717,1.0717,1.0717,1.0717,1.0717,1.0717,1.0717,1.0717,1.0717,1.0717,1.0717,1.0717,1.0711,1.0711,0.0,0.0,0.0,0.0,0.0,0.0,0.0,0.0,0.0,0.0,0.0,0.0,0.0,0.0,0.0,0.0,-1.3904,0.0,0.0,-1.3904,-1.3904,-1.3904,-1.3253,-1.2602,-1.1814,-1.0603,-0.9429,-0.8284,-0.7746,-0.7304,-0.6876,-0.6114,-0.5736,-0.5665,-0.492,-0.496,-0.556,-0.556,-0.5964,-0.6558,-0.6017,-0.5654,-0.5308,-0.4047,-0.343,-0.3094,0.0,0.0,0.0,0.0,0.0,-0.2223,-0.2223,-0.2223,-0.2223,-0.2223,-0.2223,-0.2019,-0.1279,-0.1077,-0.0943,-0.0202,0.0,0.0,0.0,0.0,0.0538,0.2418,0.3624,0.4897,0.6907,0.8384,0.9455,0.9794,1.0127,1.0439,1.0584,1.0643,1.0622,1.0575,1.0616,1.0643,1.0643,1.0602,1.0575,1.0575,1.0575,1.0595,1.0643,1.0643,1.067,1.0717,1.0717,1.0717,1.0717,1.0717,1.0717,1.0717,1.0717,1.0717,1.0717,1.0717,1.0717,1.0717,1.0717,1.0717,1.0717,1.0717,1.0717,1.0717,1.0717,1.0717,1.0717,1.0717,1.0717,1.0717,0.0,0.0,0.0,0.0,0.0,0.0,0.0,0.0,0.0,0.0,0.0,0.0,0.0,0.0,0.0,0.0,0.0,-1.3904,0.0,0.0,-1.3904,-1.3904,-1.3904,-1.3539,-1.2824,-1.2316,-1.1514,-1.0359,-0.9784,-0.9347,-0.8914,-0.8131,-0.7746,-0.7741,-0.6973,-0.6931,-0.7248,-0.7248,-0.7305,-0.7274,-0.672,-0.6145,-0.545,-0.4425,-0.3726,0.0,0.0,0.0,0.0,0.0,0.0,-0.2223,-0.2223,-0.2223,-0.2223,-0.2223,-0.2223,-0.2087,-0.1414,-0.1212,-0.0943,-0.0337,-0.0067,0.0,0.0,0.0,0.0404,0.1815,0.2821,0.3959,0.5369,0.7107,0.8446,0.8717,0.9588,1.0259,1.0518,1.0591,1.0717,1.0717,1.0717,1.0717,1.0717,1.0717,1.0717,1.0717,1.0717,1.0717,1.0717,1.0717,1.0717,1.0717,1.0717,1.0717,1.0717,1.0717,1.0717,1.0717,1.0717,1.0717,1.0717,1.0717,1.0717,1.0717,1.0717,1.0717,1.0717,1.0717,1.0717,1.0717,1.0717,1.0717,1.0717,1.0717,1.0717,1.0717,0.0,0.0,0.0,0.0,0.0,0.0,0.0,0.0,0.0,0.0,0.0,0.0,0.0,0.0,0.0,0.0,0.0,0.0,0.0,0.0,0.0,-1.3904,-1.3904,-1.3904,-1.3904,-1.3904,-1.3396,-1.2323,-1.2323,-1.1671,-1.0593,-1.0521,-1.0521,-1.0527,-1.0455,-1.0382,-1.0331,-1.0331,-0.9625,-0.8472,-0.8467,-0.7279,-0.5667,-0.5519,0.0,0.0,0.0,0.0,0.0,0.0,-0.2223,-0.2223,-0.2223,-0.2223,-0.2223,-0.2223,-0.2223,-0.2087,-0.1683,-0.1346,-0.101,-0.0606,-0.0269,0.0,0.0,0.0,0.0404,0.1748,0.2017,0.2553,0.3959,0.57,0.6973,0.6973,0.8778,1.0193,1.0193,1.0518,1.0717,1.0717,1.0717,1.0717,1.0717,1.0717,1.0717,1.0717,1.0717,1.0717,1.0717,1.0717,1.0717,1.0717,1.0717,1.0717,1.0717,1.0717,1.0717,1.0717,1.0717,1.0717,1.0717,1.0717,1.0717,1.0717,1.0717,1.0717,1.0717,1.0711,1.0711,1.0711,1.0704,1.0697,1.0697,1.0697,1.0697,1.0697,0.0,0.0,0.0,0.0,0.0,0.0,0.0,0.0,0.0,0.0,0.0,0.0,0.0,0.0,0.0,0.0,0.0,0.0,0.0,0.0,0.0,0.0,0.0,0.0,0.0,0.0,0.0,-1.3468,-1.3468,-1.3325,-1.2968,-1.2108,-1.1749,-1.1671,-1.0809,-1.0359,-1.04,-1.04,-0.9732,-0.8627,0.0,-0.7738,-0.6453,0.0,0.0,0.0,0.0,0.0,0.0,-0.223,-0.2223,-0.2223,-0.2223,-0.2223,-0.2223,-0.2223,-0.2223,-0.2087,-0.1683,-0.1548,-0.1346,-0.0673,-0.0404,-0.0337,-0.0067,0.0,0.0135,0.0471,0.1345,0.2218,0.262,0.4766,0.664,0.6973,0.8584,0.9927,1.0193,1.0518,1.0717,1.0717,1.0717,1.0717,1.0717,1.0717,1.0717,1.0717,1.0717,1.0717,1.0717,1.0717,1.0717,1.0717,1.0717,1.0717,1.0717,1.0717,1.0717,1.0717,1.0717,1.0717,1.0717,1.0717,1.0717,1.0717,1.0717,1.0717,1.0711,1.0595,1.0548,1.0541,1.0432,1.0392,1.0392,1.0392,1.0392,1.0392,0.0,0.0,0.0,0.0,0.0,0.0,0.0,0.0,0.0,0.0,0.0,0.0,0.0,0.0,0.0,0.0,0.0,0.0,0.0,0.0,0.0,0.0,0.0,0.0,0.0,0.0,0.0,0.0,0.0,0.0,-1.3904,-1.3253,-1.2968,-1.2896,-1.2252,-1.1958,-1.1886,-1.1384,0.0,0.0,0.0,0.0,0.0,0.0,0.0,0.0,0.0,0.0,0.0,-0.218,-0.2234,-0.2223,-0.2223,-0.2223,-0.2223,-0.2223,-0.2223,-0.2154,-0.1952,-0.175,-0.1481,-0.1077,-0.0741,-0.0471,-0.0269,-0.0135,0.0,0.0,0.0606,0.121,0.121,0.3557,0.5566,0.5767,0.7846,0.9588,0.9927,1.0259,1.0518,1.0651,1.0717,1.0717,1.0717,1.0717,1.0717,1.0717,1.0717,1.0717,1.0717,1.0717,1.0717,1.0717,1.0717,1.0717,1.0717,1.0717,1.0717,1.0717,1.0717,1.0717,1.0717,1.0717,1.0683,1.0622,1.0622,1.0582,1.0521,1.0432,1.0399,1.0392,1.031,1.0283,1.0283,1.0283,1.0283,1.029,0.0,0.0,0.0,0.0,0.0,0.0,0.0,0.0,0.0,0.0,0.0,0.0,0.0,0.0,0.0,0.0,0.0,0.0,0.0,0.0,0.0,0.0,0.0,0.0,0.0,0.0,0.0,0.0,0.0,0.0,0.0,0.0,0.0,0.0,0.0,0.0,0.0,0.0,0.0,0.0,0.0,0.0,0.0,0.0,0.0,0.0,0.0,0.0,0.0,0.0,-0.218,-0.2223,-0.2223,-0.2223,-0.2223,-0.2223,-0.2223,-0.2223,-0.2223,-0.1952,-0.1683,-0.1616,-0.1144,-0.0606,-0.0539,-0.0269,-0.0067,0.0,0.0,0.0,0.0,0.2351,0.4294,0.4294,0.6969,0.925,0.9661,0.9994,1.0326,1.0651,1.0717,1.0717,1.0717,1.0717,1.0717,1.0717,1.0717,1.0717,1.0717,1.0717,1.0717,1.0717,1.0717,1.0717,1.0717,1.0717,1.0717,1.0717,1.0717,1.0711,1.069,1.069,1.0609,1.0466,1.0466,1.0392,1.0276,1.0256,1.0249,1.0249,1.0229,1.0236,1.0249,1.0249,1.0263,1.0297,0.0,0.0,0.0,0.0,0.0,0.0,0.0,0.0,0.0,0.0,-1.4944,-1.4919,0.0,0.0,0.0,0.0,0.0,0.0,0.0,0.0,0.0,0.0,0.0,0.0,0.0,-1.3904,-1.3904,-1.3904,-1.3904,0.0,0.0,0.0,0.0,0.0,0.0,0.0,0.0,0.0,0.0,0.0,0.0,0.0,0.0,0.0,0.0,0.0,0.0,0.0,0.0,0.0,-0.218,-0.2223,-0.2223,-0.2223,-0.2223,-0.2223,-0.2223,-0.2223,-0.2223,-0.2154,-0.2019,-0.1683,-0.1481,-0.1279,-0.0606,-0.0471,-0.0337,-0.0067,0.0,0.0,0.0,0.2351,0.4294,0.4294,0.6969,0.925,0.9661,0.9994,1.0326,1.0651,1.0717,1.0717,1.0717,1.0717,1.0717,1.0717,1.0717,1.0717,1.0717,1.0717,1.0717,1.0717,1.0717,1.0717,1.0717,1.0717,1.0717,1.0717,1.0717,1.0656,1.0534,1.0534,1.0453,1.0317,1.0317,1.0304,1.027,1.0141,1.0031,1.0011,0.9951,0.9978,1.0031,1.0031,1.0168,1.0283,0.0,0.0,0.0,0.0,0.0,0.0,0.0,-1.4968,-1.4968,-1.4968,-1.4968,-1.4968,-1.4968,-1.4895,0.0,0.0,0.0,0.0,0.0,0.0,0.0,0.0,0.0,0.0,0.0,-1.3904,-1.3904,-1.3904,0.0,-1.3611,-1.3111,-1.3039,-1.2753,-1.218,-1.1527,-1.1599,0.0,0.0,0.0,0.0,-0.8285,0.0,0.0,0.0,0.0,0.0,0.0,0.0,0.0,0.0,-0.2217,-0.2176,-0.2227,-0.2223,-0.2225,-0.2173,-0.2178,-0.2181,-0.2198,-0.2202,-0.2129,-0.1978,-0.177,-0.1494,-0.0944,-0.0673,-0.0404,-0.0067,0.0,0.0,0.0,0.2351,0.4294,0.4294,0.684,0.8984,0.9322,0.9721,1.006,1.0392,1.0585,1.0717,1.0717,1.0717,1.0717,1.0717,1.0717,1.0717,1.0717,1.0717,1.0717,1.0717,1.0717,1.0717,1.0717,1.0717,1.0677,1.0602,1.0683,1.0636,1.0493,1.0575,1.0527,1.0392,1.0392,1.0392,1.0385,1.031,1.0324,1.0392,1.0317,1.0331,1.0334,1.0334,1.0446,1.0507,0.0,0.0,0.0,0.0,0.0,0.0,0.0,-1.4968,-1.4968,-1.4968,-1.4968,-1.4968,-1.4968,-1.4968,-1.4911,0.0,0.0,0.0,0.0,0.0,0.0,0.0,0.0,0.0,0.0,0.0,0.0,-1.3904,-1.3904,0.0,0.0,0.0,0.0,0.0,-1.0593,-1.0593,-1.1312,-0.9219,0.0,0.0,0.0,-0.699,0.0,0.0,0.0,0.0,0.0,0.0,0.0,0.0,-0.2259,-0.2214,-0.2184,-0.217,-0.217,-0.22,-0.221,-0.2215,-0.2169,-0.2175,-0.217,-0.2215,-0.1998,-0.1714,-0.1288,-0.0944,-0.0539,-0.0202,-0.0067,0.0,0.0,0.2083,0.3959,0.4227,0.6439,0.8384,0.8984,0.9455,0.9794,1.0193,1.0525,1.0717,1.0717,1.0717,1.0717,1.0717,1.0717,1.0717,1.0717,1.0717,1.0717,1.0717,1.0717,1.0717,1.0717,1.0717,1.0663,1.0541,1.0663,1.0636,1.0493,1.0616,1.0609,1.0493,1.0493,1.0514,1.0541,1.0541,1.0609,1.0717,1.0717,1.0738,1.0772,1.0772,1.0792,1.0819,0.0,0.0,0.0,0.0,0.0,0.0,0.0,-1.4968,-1.4968,-1.4968,-1.4968,-1.4968,-1.4968,-1.4968,-1.496,0.0,0.0,0.0,0.0,0.0,0.0,0.0,0.0,0.0,0.0,0.0,0.0,-1.3904,-1.3904,0.0,0.0,0.0,0.0,0.0,0.0,-0.893,-0.893,-0.7711,0.0,0.0,0.0,0.0,0.0,0.0,0.0,0.0,0.0,-0.2988,-0.2324,0.0,-0.2288,-0.2277,-0.2247,-0.2218,-0.2202,-0.2232,-0.2171,-0.2171,-0.2175,-0.2175,-0.2175,-0.2171,-0.2151,-0.2062,-0.1716,-0.1358,-0.0943,-0.0539,-0.0202,0.0,0.0,0.1277,0.2754,0.4093,0.557,0.7178,0.8851,0.9455,0.9794,1.0193,1.0525,1.0717,1.0717,1.0717,1.0717,1.0717,1.0717,1.0717,1.0717,1.0717,1.0717,1.0717,1.0717,1.0717,1.0717,1.0717,1.0711,1.0697,1.0711,1.0636,1.0493,1.0507,1.0507,1.0493,1.0493,1.0568,1.0697,1.0697,1.0711,1.0717,1.0717,1.0739,1.086,1.086,1.1009,1.1124,0.0,0.0,0.0,0.0,0.0,0.0,-1.4968,-1.4968,-1.4968,-1.4968,-1.4968,-1.4968,-1.4968,-1.4968,-1.4968,0.0,0.0,0.0,0.0,0.0,0.0,0.0,0.0,0.0,0.0,0.0,-1.3904,-1.3904,-1.3904,0.0,0.0,0.0,0.0,0.0,0.0,-0.8068,-0.8641,-0.7494,0.0,0.0,0.0,0.0,0.0,0.0,0.0,0.0,0.0,0.0,-0.2331,-0.232,-0.2305,-0.2292,-0.2296,-0.2278,-0.2258,-0.2268,-0.2273,-0.2277,-0.2293,-0.2225,-0.2294,-0.2277,-0.2263,-0.2175,-0.1795,-0.1369,-0.0952,-0.0607,-0.0202,0.0,0.0,0.1144,0.2553,0.4093,0.0,0.0,0.8584,0.9123,0.9455,0.9861,1.0193,1.0452,1.0651,1.0717,1.0717,1.0717,1.0717,1.0717,1.0717,1.0717,1.0717,1.0717,1.0717,1.0717,1.0717,1.0717,1.0677,1.0582,1.0677,1.069,1.0629,1.0724,1.0812,1.0894,1.0894,1.0982,1.1124,1.1124,1.1179,1.126,1.126,1.1301,1.1355,1.1355,1.1389,1.1423,0.0,0.0,0.0,0.0,0.0,-1.4968,-1.4968,-1.4968,-1.4968,-1.4968,-1.4968,-1.4968,-1.4968,-1.4968,-1.4968,-1.4968,0.0,0.0,0.0,0.0,0.0,0.0,0.0,0.0,0.0,0.0,-1.3904,-1.3904,-1.3539,-1.3396,0.0,0.0,-0.9873,-0.9801,0.0,0.0,0.0,0.0,0.0,0.0,0.0,0.0,0.0,0.0,0.0,0.0,0.0,0.0,0.0,0.0,0.0,-0.2307,-0.2326,-0.2319,0.0,0.0,-0.2303,-0.2308,-0.2327,-0.2333,-0.2328,-0.2308,-0.2297,-0.2206,-0.1947,-0.1448,-0.1027,-0.0742,-0.0337,0.0,0.0,0.0807,0.2083,0.0,0.0,0.6439,0.8318,0.8917,0.9183,0.9455,0.9927,1.0259,1.0518,1.0651,1.0717,1.0717,1.0717,1.0717,1.0717,1.0717,1.0717,1.0717,1.0717,1.0717,1.0717,1.0717,1.069,1.0629,1.0738,1.0812,1.0853,1.0962,1.109,1.1226,1.1226,1.1314,1.1457,1.1457,1.1525,1.1619,1.1619,1.1619,1.1619,1.1619,1.1619,1.1606,0.0,0.0,0.0,0.0,0.0,0.0,-1.4968,-1.4968,-1.4968,-1.4968,-1.4968,-1.4968,-1.4968,-1.4968,-1.4968,-1.4968,0.0,0.0,0.0,0.0,0.0,0.0,0.0,0.0,0.0,0.0,-1.3904,-1.3904,-1.2753,-1.2252,-1.218,-0.9795,-0.8714,-0.8641,0.0,0.0,0.0,0.0,0.0,0.0,0.0,0.0,0.0,0.0,0.0,0.0,0.0,0.0,0.0,0.0,0.0,0.0,0.0,-0.2333,0.0,0.0,-0.2333,-0.2333,-0.2333,-0.2333,-0.2333,-0.2333,-0.2311,-0.2282,-0.2182,-0.1596,-0.1096,-0.108,-0.0539,0.0,0.0,0.0,0.0941,0.3825,0.0,0.0,0.8184,0.8917,0.9117,0.9117,0.9721,1.0193,1.0193,1.0525,1.0717,1.0717,1.0717,1.0717,1.0717,1.0717,1.0717,1.0717,1.0717,1.0717,1.0717,1.0717,1.0799,1.0873,1.088,1.1023,1.1158,1.1227,1.1246,1.1389,1.1389,1.1477,1.1619,1.1619,1.1619,1.1619,1.1619,1.1619,1.1619,1.1619,1.1619,1.1619,0.0,0.0,0.0,0.0,0.0,0.0,0.0,-1.4968,-1.4968,-1.4968,-1.4968,-1.4968,-1.4968,-1.4968,-1.4968,-1.4968,0.0,0.0,0.0,0.0,0.0,0.0,0.0,0.0,0.0,-1.4245,-1.3721,-1.2837,-1.2446,-1.1749,-1.0953,-0.9435,-0.8714,-0.8641,-0.7494,-0.699,0.0,0.0,0.0,0.0,0.0,0.0,-0.568,0.0,0.0,0.0,0.0,0.0,0.0,0.0,0.0,0.0,0.0,0.0,0.0,-0.2333,0.0,0.0,-0.2333,-0.2333,-0.2333,-0.2333,-0.2326,-0.2312,-0.2283,-0.1689,-0.118,-0.1096,-0.0542,0.0,0.0,0.0,0.0941,0.3825,0.4294,0.0,0.8184,0.8717,0.8851,0.905,0.9721,1.0193,1.0193,1.0525,1.0717,1.0717,1.0717,1.0717,1.0717,1.0717,1.0717,1.0717,1.0717,1.0717,1.0717,1.0759,1.0833,1.088,1.105,1.1172,1.1321,1.1321,1.1402,1.1545,1.1545,1.1572,1.1619,1.1619,1.1619,1.1619,1.1619,1.1619,1.1619,1.1619,1.1619,1.1619,0.0,0.0,0.0,0.0,0.0,0.0,0.0,-1.4968,-1.4968,-1.4968,-1.4968,-1.4968,-1.4968,-1.4968,-1.4968,-1.4968,0.0,0.0,0.0,0.0,0.0,0.0,0.0,0.0,-1.4708,-1.4359,-1.3582,-1.2401,-1.1818,-1.0953,-0.9729,-0.8574,-0.8068,-0.7996,-0.7349,-0.699,0.0,0.0,0.0,0.0,0.0,0.0,-0.4808,0.0,0.0,0.0,0.0,0.0,0.0,0.0,0.0,0.0,0.0,0.0,0.0,0.0,-0.2333,0.0,0.0,-0.2333,-0.2333,-0.2333,-0.2333,0.0,-0.2297,-0.1707,-0.1195,-0.1104,-0.0546,0.0,0.0,0.0,0.0941,0.3825,0.4294,0.5299,0.8184,0.859,0.8723,0.905,0.9516,0.9921,1.0193,1.0392,1.0591,1.0717,1.0717,1.0717,1.0717,1.0717,1.0717,1.0717,1.0717,1.0751,1.0739,1.0833,1.0934,1.1118,1.1206,1.1328,1.1477,1.1477,1.1531,1.1619,1.1619,1.1619,0.0,1.1619,1.1619,1.1619,1.1619,1.1619,1.1619,1.1619,1.1619,1.1619,0.0,0.0,0.0,0.0,0.0,0.0,0.0,-1.4968,-1.4968,-1.4968,-1.4968,-1.4968,-1.4968,-1.4968,-1.4968,-1.4968,0.0,0.0,0.0,0.0,0.0,0.0,0.0,0.0,-1.4724,-1.4391,-1.3613,-1.2269,-1.1036,-0.9807,-0.8574,-0.7494,-0.699,-0.699,-0.699,-0.699,0.0,0.0,0.0,0.0,-0.5756,-0.4808,0.0,0.0,0.0,0.0,0.0,0.0,0.0,0.0,0.0,0.0,0.0,0.0,0.0,0.0,0.0,0.0,0.0,-0.2333,-0.2333,-0.2333,-0.2333,-0.2326,-0.23,-0.1719,0.0,-0.1108,-0.0551,0.0,0.0,0.0,0.0941,0.3691,0.4227,0.5299,0.8051,0.8523,0.8717,0.905,0.9117,0.9383,1.0054,1.0193,1.0326,1.0651,1.0717,1.0717,1.0717,1.0717,1.0724,1.0738,1.0738,1.0739,1.088,1.09,1.1118,1.1389,1.1402,1.1484,1.1619,1.1619,1.1619,1.1619,1.1619,1.1619,1.1619,1.1619,1.1619,1.1619,1.1606,1.1613,1.1619,1.1606,1.1613,1.1619,0.0,0.0,0.0,0.0,0.0,0.0,0.0,0.0,0.0,0.0,-1.4968,-1.4968,-1.4968,-1.4968,-1.4968,0.0,0.0,0.0,0.0,0.0,0.0,0.0,0.0,0.0,-1.4903,-1.4692,-1.3536,-1.1324,-1.0883,-0.9529,-0.7421,-0.7135,-0.699,-0.699,-0.699,-0.699,0.0,0.0,0.0,0.0,-0.5174,-0.4374,0.0,0.0,0.0,0.0,-0.2333,-0.2333,0.0,0.0,0.0,0.0,0.0,0.0,0.0,0.0,-0.2333,0.0,-0.2333,0.0,-0.2333,-0.2333,-0.2333,-0.2331,0.0,-0.1729,-0.1215,-0.1207,-0.0558,0.0,0.0,0.0,0.0606,0.2351,0.3557,0.4897,0.6644,0.7917,0.8651,0.8717,0.8917,0.9183,0.9316,0.9854,1.0259,1.0326,1.0591,1.0717,1.0717,1.0717,1.0772,1.0826,1.0826,1.0847,1.088,1.1172,1.1321,1.1396,1.1511,1.1586,1.1619,1.1619,1.1619,1.1619,1.1619,1.1619,1.1619,1.1619,1.1619,1.1606,1.1491,1.1518,1.1606,1.1491,1.1518,1.1619,0.0,0.0,0.0,0.0,0.0,0.0,0.0,0.0,0.0,0.0,0.0,0.0,0.0,0.0,0.0,0.0,0.0,0.0,0.0,0.0,0.0,0.0,0.0,-1.3876,-1.3337,-1.3108,-1.2045,-1.0105,-0.9974,-0.8899,-0.699,-0.699,-0.699,-0.699,-0.699,-0.699,-0.699,-0.6627,-0.597,-0.5244,-0.4447,0.0,0.0,0.0,0.0,0.0,-0.2333,-0.2333,0.0,-0.2333,-0.2333,-0.2333,0.0,0.0,0.0,0.0,-0.2333,-0.2333,-0.2333,-0.2333,-0.2333,-0.2333,-0.2333,-0.2333,-0.2333,-0.1741,-0.1226,-0.1218,-0.0563,0.0,0.0,0.0,0.0471,0.1882,0.3356,0.5031,0.7111,0.8117,0.859,0.859,0.8784,0.8917,0.9117,0.9455,0.9854,1.0193,1.0392,1.0518,1.0717,1.0785,1.086,1.088,1.1084,1.1151,1.1151,1.1314,1.1423,1.1497,1.1579,1.1619,1.1619,1.1619,1.1619,1.1619,1.1619,1.1619,1.1619,1.1619,1.1579,1.1504,1.1423,1.1443,1.1504,1.1423,1.1491,1.1619,0.0,0.0,0.0,0.0,0.0,0.0,0.0,0.0,0.0,0.0,0.0,0.0,0.0,0.0,0.0,0.0,0.0,0.0,0.0,0.0,0.0,0.0,-1.2713,-1.2333,-1.1327,-1.114,-1.0399,-0.9135,-0.8958,-0.8264,-0.699,-0.699,-0.699,-0.699,-0.699,-0.6918,-0.6773,-0.6119,-0.5317,-0.4447,-0.3791,0.0,0.0,0.0,0.0,0.0,0.0,0.0,0.0,-0.2333,-0.2333,-0.2333,-0.2333,0.0,0.0,0.0,0.0,0.0,-0.2333,-0.2333,-0.2333,-0.2333,-0.2333,-0.2333,-0.2333,-0.1751,-0.1164,-0.1223,-0.0567,0.0,0.0,0.0,0.0404,0.1614,0.3222,0.5299,0.8184,0.859,0.859,0.859,0.859,0.8717,0.8984,0.905,0.9383,1.006,1.0193,1.0332,1.0685,1.0813,1.09,1.0948,1.126,1.1402,1.1423,1.1423,1.1491,1.1619,1.1619,1.1619,1.1619,1.1619,1.1619,1.1619,1.1619,1.1606,1.1586,1.1586,1.1497,1.1355,1.1335,1.1348,1.1389,1.1362,1.147,1.1619,0.0,0.0,0.0,0.0,0.0,0.0,0.0,0.0,0.0,0.0,0.0,0.0,0.0,0.0,0.0,0.0,0.0,0.0,0.0,0.0,0.0,-1.0008,-1.1011,-1.1476,-1.1321,-1.1303,-1.0562,-0.9135,-0.9115,-0.8336,-0.699,-0.699,-0.699,-0.699,-0.699,-0.6627,-0.5974,-0.5829,-0.4956,-0.3646,-0.3573,0.0,0.0,0.0,0.0,0.0,0.0,0.0,0.0,-0.2333,-0.2333,-0.2333,-0.2333,0.0,0.0,0.0,0.0,0.0,-0.2333,-0.2333,-0.2333,-0.2333,-0.2333,-0.2333,-0.2333,-0.1751,-0.1167,-0.1165,-0.0571,0.0,0.0,0.0,0.0067,0.0269,0.2551,0.5299,0.8184,0.859,0.859,0.859,0.859,0.859,0.8656,0.8917,0.9322,0.9728,1.006,1.0378,1.084,1.0867,1.1063,1.1314,1.1369,1.145,1.1586,1.1586,1.1599,1.1619,1.1619,1.1619,1.1619,1.1619,1.1619,1.1619,1.1619,1.1545,1.1423,1.1423,1.1335,1.1185,1.1063,1.1172,1.1375,1.1246,1.1375,1.1619,0.0,0.0,0.0,0.0,0.0,0.0,0.0,0.0,0.0,0.0,0.0,0.0,0.0,0.0,0.0,0.0,0.0,0.0,0.0,0.0,-0.8998,-0.8379,-0.892,-0.9231,-0.9231,-0.9231,-0.8895,-0.8163,-0.8163,-0.7761,-0.699,-0.699,-0.699,-0.699,-0.6555,-0.6116,-0.5752,-0.4883,-0.4155,-0.3427,0.0,0.0,0.0,0.0,0.0,0.0,0.0,0.0,0.0,0.0,-0.2333,-0.2333,-0.2333,0.0,0.0,0.0,0.0,0.0,-0.2333,-0.2333,-0.2333,-0.2333,-0.2333,-0.2333,-0.2333,-0.1895,-0.1459,-0.1241,-0.0715,-0.0281,-0.007,0.0,0.0538,0.2083,0.3423,0.5299,0.8184,0.859,0.859,0.859,0.859,0.859,0.859,0.8717,0.8984,0.9322,0.9728,1.0117,1.0596,1.0879,1.1165,1.1382,1.147,1.1545,1.1619,1.1619,1.1619,1.1619,1.1619,1.1619,1.1619,1.1619,1.1619,1.1613,1.1531,1.1457,1.1382,1.1301,1.1179,1.1036,1.0975,1.1077,1.128,1.1375,1.1497,1.1619,0.0,0.0,0.0,0.0,0.0,0.0,0.0,0.0,0.0,0.0,0.0,0.0,0.0,0.0,0.0,0.0,0.0,0.0,0.0,0.0,-0.7525,-0.7525,-0.7525,-0.7525,-0.7525,-0.7505,-0.7419,-0.7264,-0.7243,-0.715,-0.699,-0.699,-0.6918,-0.67,-0.6047,-0.5607,-0.5171,-0.401,-0.3354,-0.3136,0.0,0.0,0.0,0.0,0.0,0.0,0.0,0.0,0.0,0.0,0.0,0.0,0.0,0.0,0.0,-0.2333,-0.2333,-0.2333,-0.2333,-0.2333,-0.2333,-0.2333,-0.2333,-0.2333,-0.2333,-0.2041,-0.1677,-0.1314,-0.086,-0.0493,-0.007,0.0,0.0941,0.3825,0.4294,0.5299,0.8184,0.859,0.859,0.859,0.859,0.859,0.859,0.859,0.8717,0.905,0.9485,0.9967,1.0438,1.0924,1.1287,1.1443,1.1558,1.1619,1.1619,1.1619,1.1619,1.1619,1.1619,1.1619,1.1619,1.1619,1.1599,1.1558,1.1443,1.1355,1.128,1.1158,1.1029,1.0833,1.0867,1.1056,1.1246,1.1518,1.1619,1.1619,0.0,0.0,0.0,0.0,0.0,0.0,0.0,0.0,0.0,0.0,0.0,0.0,0.0,0.0,0.0,0.0,0.0,0.0,0.0,0.0,-0.7525,-0.7525,-0.7525,-0.7525,-0.7525,-0.7444,-0.7354,-0.7264,-0.7178,-0.7084,-0.699,-0.699,-0.6627,-0.5898,-0.5825,-0.5029,-0.3646,-0.3573,-0.3063,-0.2405,-0.2333,0.0,0.0,0.0,0.0,0.0,0.0,0.0,0.0,0.0,0.0,0.0,0.0,0.0,-0.2333,-0.2333,-0.2333,-0.2333,-0.2333,-0.2333,-0.2333,-0.2333,-0.2333,-0.2333,-0.2333,-0.2041,-0.1677,-0.1314,-0.0866,-0.0498,-0.007,0.0,0.0941,0.3825,0.4294,0.5299,0.8184,0.859,0.859,0.859,0.859,0.859,0.859,0.859,0.8717,0.905,0.9563,1.0104,1.0586,1.1084,1.1443,1.1599,1.1613,1.1619,1.1619,1.1619,1.1619,1.1619,1.1619,1.1619,1.1619,1.1619,1.1545,1.1409,1.1396,1.1233,1.0914,1.09,1.0806,1.0751,1.0826,1.1124,1.1396,1.1558,1.1619,1.1619,0.0,0.0,0.0,0.0,0.0,0.0,0.0,0.0,0.0,0.0,0.0,0.0,0.0,0.0,0.0,0.0,0.0,0.0,0.0,-0.5958,-0.6196,-0.6744,-0.6744,-0.6952,-0.7439,-0.7407,-0.735,-0.7264,-0.6596,-0.6513,-0.699,-0.6047,-0.5683,-0.5752,-0.481,-0.401,-0.35,-0.299,-0.2551,-0.2333,-0.2333,-0.2333,0.0,0.0,0.0,0.0,0.0,0.0,0.0,0.0,-0.2333,-0.2333,-0.2333,-0.2333,-0.2333,-0.2333,-0.2333,-0.2333,-0.2333,-0.2333,-0.2333,-0.2333,-0.2333,-0.2333,-0.2333,-0.2041,-0.175,-0.1604,-0.1083,-0.0498,-0.007,0.0,0.0941,0.3825,0.4294,0.5299,0.8184,0.859,0.859,0.859,0.859,0.859,0.859,0.859,0.8656,0.8784,0.9238,0.9775,1.026,1.0747,1.118,1.1613,1.1619,1.1619,1.1619,1.1619,1.1619,1.1619,1.1619,1.1619,1.1613,1.1518,1.1443,1.1382,1.1199,1.105,1.0873,1.0779,1.0772,1.0744,1.0989,1.1206,1.1409,1.1565,1.1619,1.1619,0.0,0.0,0.0,0.0,0.0,0.0,0.0,0.0,0.0,0.0,0.0,0.0,0.0,0.0,0.0,0.0,0.0,0.0,-0.5022,-0.5022,-0.5257,-0.588,-0.5861,-0.6136,-0.6623,-0.6572,-0.6672,-0.6919,-0.589,-0.5756,-0.6264,-0.5174,-0.481,-0.5029,-0.3937,-0.3354,-0.3063,-0.2551,-0.2333,-0.2333,-0.2333,-0.2333,0.0,0.0,0.0,0.0,0.0,0.0,0.0,0.0,-0.2333,-0.2333,-0.2333,-0.2333,-0.2333,-0.2333,-0.2333,-0.2333,-0.2333,-0.2333,-0.2333,-0.2333,-0.2333,-0.2333,-0.2333,-0.2041,-0.175,-0.1604,-0.0938,-0.0355,-0.0069,0.0,0.0811,0.3224,0.4026,0.5165,0.7579,0.8318,0.859,0.859,0.859,0.859,0.859,0.859,0.86,0.8644,0.9098,0.9566,1.0119,1.0607,1.1083,1.1613,1.1619,1.1619,1.1619,1.1619,1.1619,1.1619,1.1572,1.1545,1.1545,1.1436,1.1341,1.124,1.0968,1.0853,1.0799,1.0765,1.0772,1.088,1.1084,1.1287,1.1477,1.1579,1.1619,1.1619,0.0,0.0,0.0,0.0,0.0,0.0,0.0,0.0,0.0,0.0,0.0,0.0,0.0,0.0,0.0,0.0,0.0,0.0,-0.4941,-0.4941,-0.4941,-0.5022,-0.4962,-0.5006,-0.5006,-0.489,-0.52,-0.6015,-0.5131,-0.4665,-0.4665,-0.4665,-0.4228,-0.35,-0.35,-0.3063,-0.2333,-0.2333,-0.2333,-0.2333,-0.2333,-0.2333,-0.2333,0.0,0.0,0.0,0.0,0.0,0.0,0.0,-0.2333,-0.2333,-0.2333,-0.2333,-0.2333,-0.2333,-0.2333,-0.2333,-0.2333,-0.2333,-0.2333,-0.2333,-0.2333,-0.2333,-0.2333,-0.2041,-0.1677,-0.1314,-0.0578,0.0,0.0,0.0,0.0479,0.1887,0.3356,0.4763,0.6176,0.7646,0.859,0.859,0.859,0.859,0.859,0.859,0.8638,0.8764,0.9228,0.9701,1.026,1.0752,1.1188,1.1619,1.1619,1.1619,1.1619,1.1619,1.1619,1.1613,1.1463,1.1389,1.1389,1.1389,1.1226,1.088,1.088,1.0793,1.0717,1.0724,1.0894,1.1234,1.1234,1.1348,1.1619,1.1619,1.1619,1.1619,0.0,0.0,0.0,0.0,0.0,0.0,0.0,0.0,0.0,0.0,0.0,0.0,0.0,0.0,0.0,0.0,0.0,0.0,-0.322,-0.322,-0.3532,-0.416,-0.4112,-0.4297,-0.4867,-0.4233,-0.4253,-0.5058,-0.4236,-0.4155,-0.4665,-0.3571,-0.3209,-0.35,-0.2917,-0.2551,-0.2333,-0.2333,-0.2333,-0.2333,-0.2333,-0.2333,-0.2333,0.0,0.0,0.0,0.0,0.0,0.0,0.0,0.0,0.0,-0.2333,0.0,-0.2333,-0.2333,-0.2333,-0.2333,-0.2333,-0.2333,-0.2333,-0.2333,-0.2333,-0.2333,-0.2333,-0.2041,-0.1604,-0.0949,-0.0578,-0.0357,-0.0071,0.0,0.048,0.1844,0.3312,0.4763,0.6176,0.7646,0.859,0.859,0.859,0.859,0.859,0.8666,0.8731,0.8769,0.9034,0.9519,1.026,1.0531,1.0966,1.1548,1.1619,1.1619,1.1619,1.1619,1.1565,1.1457,1.1409,1.1389,1.1382,1.1172,1.0961,1.0873,1.0766,1.0765,1.0731,1.0766,1.0989,1.1241,1.128,1.1443,1.1619,1.1619,1.1619,1.1619,0.0,0.0,0.0,0.0,0.0,0.0,0.0,0.0,0.0,0.0,-0.3347,0.0,0.0,0.0,0.0,0.0,0.0,0.0,0.0,-0.2514,-0.2743,-0.3276,-0.3236,-0.3416,-0.3801,-0.3306,-0.3281,-0.3716,-0.3281,-0.3281,-0.3716,-0.277,-0.2551,-0.299,-0.2551,-0.2333,-0.2333,-0.2333,-0.2333,-0.2333,-0.2333,-0.2333,-0.2333,0.0,0.0,0.0,0.0,0.0,0.0,0.0,0.0,0.0,-0.2333,0.0,-0.2333,-0.2333,-0.2333,-0.2333,-0.2333,-0.2333,-0.2333,-0.2333,-0.2333,-0.226,-0.2114,-0.1822,-0.1313,-0.0511,-0.0363,-0.0288,-0.0072,0.0,0.0278,0.1101,0.2452,0.3917,0.5372,0.6844,0.7917,0.8523,0.859,0.8606,0.8655,0.8725,0.8812,0.8905,0.9052,0.951,1.0339,1.0484,1.0815,1.1548,1.1619,1.1619,1.1619,1.1558,1.1484,1.1389,1.1274,1.1212,1.1206,1.0961,1.0847,1.0853,1.0758,1.0717,1.0731,1.082,1.1029,1.1179,1.1335,1.1484,1.1619,1.1619,1.1619,1.1619,0.0,0.0,0.0,0.0,0.0,0.0,0.0,0.0,0.0,0.0,-0.2549,-0.2514,0.0,0.0,0.0,0.0,0.0,0.0,0.0,0.0,-0.2496,-0.2466,-0.2436,-0.2393,-0.2334,-0.2333,-0.2333,-0.2333,-0.2333,-0.2333,-0.2333,-0.2333,-0.2333,-0.2333,-0.2333,-0.2333,-0.2333,-0.2333,-0.2333,-0.2333,-0.2333,-0.2333,-0.2333,-0.2333,0.0,0.0,0.0,0.0,0.0,0.0,0.0,0.0,-0.2333,-0.2333,-0.2333,-0.2333,-0.2333,-0.2333,-0.2333,-0.2333,-0.2333,-0.2333,-0.2333,-0.2187,-0.1822,-0.1459,-0.0949,-0.0219,0.0,0.0,0.0,0.0,0.0,0.0,0.1171,0.26,0.4117,0.5524,0.6937,0.8416,0.8622,0.8666,0.8774,0.8796,0.8894,0.9117,0.9144,0.955,1.0449,1.0527,1.0815,1.1548,1.1619,1.1619,1.1619,1.147,1.1382,1.1369,1.1084,1.0873,1.086,1.086,1.0853,1.0717,1.0717,1.0731,1.0751,1.084,1.1056,1.1199,1.1355,1.1497,1.1619,1.1619,1.1619,1.1619,0.0,0.0,0.0,0.0,0.0,0.0,0.0,0.0,0.0,0.0,0.0,0.0,0.0,0.0,0.0,0.0,0.0,0.0,0.0,0.0,-0.2465,-0.2435,-0.2403,-0.2371,-0.2334,-0.2333,-0.2333,-0.2333,-0.2333,-0.2333,-0.2333,-0.2333,-0.2333,-0.2333,-0.2333,-0.2333,-0.2333,-0.2333,-0.2333,-0.2333,-0.2333,-0.2333,-0.2333,-0.2333,-0.2333,0.0,0.0,0.0,0.0,0.0,0.0,0.0,-0.2333,-0.2333,-0.2333,-0.2333,-0.2333,-0.2333,-0.2333,-0.2333,-0.2333,-0.2333,-0.2333,-0.2114,-0.1459,-0.1241,-0.1095,-0.0584,-0.0219,0.0,0.0,0.0,0.0,0.0,0.1194,0.2647,0.4231,0.5681,0.7134,0.8666,0.8803,0.8814,0.891,0.8997,0.9079,0.9128,0.922,0.9634,1.0455,1.0527,1.0815,1.1548,1.1619,1.1619,1.1619,1.147,1.1335,1.1212,1.1029,1.082,1.0772,1.0772,1.0751,1.0717,1.0717,1.0785,1.084,1.1056,1.1206,1.1355,1.1511,1.1592,1.1619,1.1619,1.1619,1.1619,0.0,0.0,0.0,0.0,0.0,0.0,0.0,0.0,0.0,0.0,0.0,0.0,0.0,0.0,0.0,0.0,0.0,0.0,0.0,0.0,-0.2433,-0.2403,-0.2372,-0.2349,-0.2333,-0.2333,-0.2333,-0.2333,-0.2333,-0.2333,-0.2333,-0.2333,-0.2333,-0.2333,-0.2333,-0.2333,-0.2333,-0.2333,-0.2333,-0.2333,-0.2333,-0.2333,-0.2333,-0.2333,-0.2333,-0.2333,0.0,0.0,0.0,0.0,0.0,0.0,0.0,0.0,-0.2333,-0.2333,-0.2333,-0.2333,-0.2333,-0.2333,-0.2333,-0.2333,-0.2333,-0.2187,-0.1605,-0.1313,-0.1095,-0.0657,-0.0292,0.0,0.0,0.0,0.0,0.0,0.064,0.1624,0.3153,0.4614,0.6148,0.7618,0.8462,0.8906,0.8965,0.9025,0.9155,0.9209,0.9269,0.959,1.0167,1.0383,1.0743,1.1332,1.1476,1.1619,1.1619,1.1396,1.124,1.1227,1.0941,1.0799,1.0717,1.0717,1.0717,1.0717,1.0717,1.0806,1.0894,1.1104,1.1253,1.1409,1.1558,1.1619,1.1619,1.1619,1.1619,1.1619,0.0,0.0,0.0,0.0,0.0,0.0,0.0,0.0,0.0,0.0,0.0,0.0,0.0,0.0,0.0,0.0,0.0,0.0,0.0,0.0,0.0,-0.2372,-0.2346,-0.2333,-0.2333,-0.2333,-0.2333,-0.2333,-0.2333,-0.2333,-0.2333,-0.2333,-0.2333,-0.2333,-0.2333,-0.2333,-0.2333,-0.2333,-0.2333,-0.2333,-0.2333,-0.2333,-0.2333,-0.2333,-0.2333,-0.2333,-0.2333,0.0,-0.2333,-0.2333,0.0,0.0,0.0,0.0,-0.2333,-0.2333,-0.2333,-0.2333,-0.2333,-0.2333,-0.2333,-0.2333,-0.2333,-0.2187,-0.1895,-0.1459,-0.1095,-0.0657,-0.0292,0.0,0.0,0.0,0.0,0.0,0.0,0.05,0.1907,0.3522,0.5069,0.6469,0.8023,0.8981,0.9155,0.9166,0.9204,0.9296,0.9302,0.9446,0.9879,1.0311,1.0671,1.0972,1.1404,1.1606,1.1579,1.1301,1.1151,1.1124,1.0846,1.0717,1.0717,1.0717,1.0717,1.0717,1.0717,1.0819,1.0927,1.1118,1.1267,1.1443,1.1572,1.1619,1.1619,1.1619,1.1619,1.1619,0.0,0.0,0.0,0.0,0.0,0.0,0.0,0.0,0.0,0.0,-0.2517,-0.2514,0.0,0.0,0.0,0.0,0.0,0.0,0.0,0.0,0.0,-0.2339,-0.2335,-0.2333,-0.2333,-0.2333,-0.2333,-0.2333,-0.2333,-0.2333,-0.2333,-0.2333,-0.2333,-0.2333,-0.2333,-0.2333,-0.2333,-0.2333,-0.2333,-0.2333,-0.2333,-0.2333,-0.2333,-0.2333,-0.2333,-0.2333,-0.2333,-0.2333,-0.2333,-0.2333,-0.2333,0.0,0.0,0.0,-0.2333,-0.2333,-0.2333,-0.2333,-0.2333,-0.2333,-0.2333,-0.2333,-0.2333,-0.2187,-0.1895,-0.1459,-0.1095,-0.0657,-0.0292,0.0,0.0,0.0,0.0,0.0,0.0,0.0509,0.2029,0.3692,0.521,0.6797,0.8313,0.9264,0.928,0.928,0.9285,0.9302,0.9302,0.9446,0.9879,1.0311,1.0671,1.0972,1.1404,1.1558,1.1423,1.1246,1.1097,1.0907,1.0806,1.0717,1.0717,1.0717,1.0717,1.0717,1.0717,1.088,1.1138,1.1158,1.1335,1.1592,1.1613,1.1619,1.1619,1.1619,1.1619,1.1619,0.0,0.0,0.0,0.0,0.0,0.0,0.0,0.0,0.0,0.0,0.0,-0.2514,0.0,0.0,0.0,0.0,0.0,0.0,0.0,0.0,0.0,0.0,-0.2333,-0.2333,-0.2333,-0.2333,-0.2333,-0.2333,-0.2333,-0.2333,-0.2333,-0.2333,-0.2333,-0.2333,-0.2333,-0.2333,-0.2333,-0.2333,-0.2333,-0.2333,-0.2333,-0.2333,-0.2333,-0.2333,-0.2333,-0.2333,-0.2333,-0.2333,-0.2333,-0.2333,-0.2333,-0.2333,-0.2333,0.0,0.0,0.0,-0.2333,-0.2333,-0.2333,-0.2333,-0.2333,-0.2333,-0.2333,-0.2187,-0.1895,-0.1459,-0.1095,-0.0657,-0.0292,0.0,0.0,0.0,0.0,0.0,0.0,0.0219,0.0948,0.313,0.4947,0.5601,0.7851,0.9302,0.9302,0.9302,0.9302,0.9302,0.9302,0.9374,0.9518,1.0167,1.0599,1.075,1.1253,1.1545,1.1396,1.124,1.105,1.0819,1.0751,1.0717,1.0717,1.0717,1.0717,1.0724,1.0812,1.0968,1.1241,1.1253,1.1423,1.1619,1.1619,1.1619,1.1619,1.1619,1.1619,1.1619,0.0,0.0,0.0,0.0,0.0,0.0,0.0,0.0,0.0,0.0,0.0,0.0,0.0,0.0,0.0,0.0,0.0,0.0,0.0,0.0,0.0,0.0,0.0,-0.2333,-0.2333,-0.2333,-0.2333,-0.2333,-0.2333,-0.2333,-0.2333,-0.2333,-0.2333,-0.2333,-0.2333,-0.2333,-0.2333,-0.2333,-0.2333,-0.2333,-0.2333,-0.2333,-0.2333,-0.2333,-0.2333,-0.2333,-0.2333,-0.2333,-0.2333,-0.2333,-0.2333,-0.2333,-0.2333,-0.2333,0.0,0.0,0.0,-0.2333,-0.2333,-0.2333,-0.2333,-0.2333,-0.2333,-0.226,-0.1968,-0.1532,-0.1095,-0.0803,-0.0365,0.0,0.0,0.0,0.0,0.0,0.0,0.0,0.0,0.2331,0.4221,0.4657,0.705,0.8868,0.923,0.9302,0.9302,0.9302,0.9302,0.9302,0.9302,1.0095,1.0527,1.0527,1.1149,1.1491,1.1335,1.1145,1.0941,1.0717,1.0717,1.0717,1.0717,1.0717,1.0717,1.0731,1.0813,1.1029,1.1241,1.1328,1.1484,1.1619,1.1619,1.1619,1.1619,1.1619,1.1619,1.1619,0.0,0.0,0.0,0.0,0.0,0.0,0.0,0.0,0.0,0.0,0.0,0.0,-0.2472,-0.2444,-0.2414,-0.2386,0.0,0.0,0.0,0.0,0.0,0.0,0.0,0.0,-0.2333,-0.2333,-0.2333,-0.2333,-0.2333,-0.2333,-0.2333,-0.2333,-0.2333,-0.2333,-0.2333,-0.2333,-0.2333,-0.2333,-0.2333,-0.2333,-0.2333,-0.2333,-0.2333,-0.2333,-0.2333,-0.2333,-0.2333,-0.2333,-0.2333,-0.2333,-0.2333,-0.2333,-0.2333,-0.2333,-0.2333,0.0,0.0,0.0,-0.2333,-0.2333,-0.2333,-0.2333,-0.2333,-0.226,-0.226,-0.1751,-0.1168,-0.1168,-0.0511,0.0,0.0,0.0,0.0,0.0,0.0,0.0,0.0,0.1384,0.2983,0.4511,0.6108,0.7706,0.9157,0.9302,0.9302,0.9302,0.9302,0.9302,0.9302,1.0095,1.0527,1.0527,1.1115,1.1328,1.1179,1.0887,1.0738,1.0717,1.0717,1.0717,1.0717,1.0717,1.0717,1.0731,1.0813,1.1029,1.1241,1.1328,1.1484,1.1619,1.1619,1.1619,1.1619,1.1619,1.1619,1.1619,0.0,0.0,0.0,0.0,0.0,0.0,0.0,0.0,0.0,0.0,0.0,0.0,0.0,-0.2413,-0.239,-0.2379,-0.236,0.0,0.0,0.0,0.0,0.0,0.0,0.0,-0.2333,-0.2333,-0.2333,-0.2333,-0.2333,-0.2333,-0.2333,-0.2333,-0.2333,-0.2333,-0.2333,-0.2333,-0.2333,-0.2333,-0.2333,-0.2333,-0.2333,-0.2333,-0.226,-0.2041,-0.1968,-0.1968,-0.1968,-0.1968,-0.2041,-0.226,-0.2333,-0.2333,-0.2333,-0.2333,-0.2333,-0.2333,-0.2333,-0.2333,-0.2333,-0.2333,-0.2333,-0.2333,-0.2333,-0.2187,-0.1678,-0.1386,-0.1022,-0.0511,-0.0219,0.0,0.0,0.0,0.0,0.0,0.0,0.0,0.0,0.1311,0.2912,0.4511,0.6036,0.7634,0.9157,0.9302,0.9302,0.9302,0.9302,0.9302,0.9302,0.9807,1.0239,1.0455,1.0825,1.0994,1.1029,1.0819,1.0717,1.0717,1.0717,1.0717,1.0717,1.0717,1.0772,1.0806,1.1023,1.1118,1.1255,1.1436,1.1572,1.1619,1.1619,1.1619,1.1619,1.1619,1.1619,1.1619,0.0,0.0,0.0,0.0,0.0,0.0,0.0,0.0,0.0,-0.2472,0.0,0.0,0.0,0.0,-0.2363,-0.2363,-0.2345,-0.2333,-0.2333,0.0,0.0,0.0,0.0,0.0,-0.2333,-0.2333,-0.2333,-0.2333,-0.2333,-0.2333,-0.2333,-0.2333,-0.2333,-0.2333,-0.2333,-0.2333,-0.2333,-0.2333,-0.226,-0.2114,-0.2114,-0.2041,-0.1896,-0.1677,-0.1604,-0.1604,-0.1604,-0.1604,-0.1604,-0.1824,-0.1896,-0.1896,-0.1896,-0.2041,-0.2187,-0.226,-0.2333,-0.2333,-0.2333,-0.2333,-0.2333,-0.2333,-0.2333,-0.2114,-0.1532,-0.1313,-0.1022,-0.0365,-0.0073,0.0,0.0,0.0,0.0,0.0,0.0,0.0,0.0,0.0875,0.2111,0.3712,0.531,0.6833,0.8357,0.9013,0.9302,0.9302,0.9302,0.9302,0.9302,0.9663,1.0054,1.0534,1.0799,1.0915,1.088,1.0779,1.0819,1.0867,1.0819,1.0799,1.0799,1.0744,1.0739,1.0887,1.1097,1.1261,1.126,1.1511,1.1619,1.1619,1.1619,1.1619,1.1619,1.1619,1.1619,1.1619,0.0,0.0,0.0,0.0,0.0,0.0,0.0,0.0,-0.2467,-0.2466,0.0,0.0,0.0,0.0,0.0,-0.2333,-0.2333,-0.2333,-0.2333,-0.2333,0.0,0.0,0.0,0.0,-0.2333,-0.2333,-0.2333,-0.2333,-0.2333,-0.2333,-0.2333,-0.2333,-0.2333,-0.2333,-0.2333,-0.226,-0.226,-0.226,-0.2114,-0.1822,-0.1822,-0.1532,-0.1168,-0.1168,-0.1168,-0.1168,-0.1168,-0.1168,-0.1168,-0.1168,-0.1168,-0.1168,-0.1168,-0.1459,-0.1822,-0.2187,-0.226,-0.226,0.0,0.0,0.0,-0.226,-0.226,-0.2187,-0.1822,-0.1459,-0.1095,-0.0657,-0.0292,0.0,0.0,0.0,0.0,0.0,0.0,0.0,0.0,0.0,0.0583,0.2184,0.3785,0.531,0.6906,0.843,0.9302,0.9302,0.9302,0.9302,0.9302,0.9663,1.012,1.0556,1.0958,1.1097,1.0887,1.0887,1.1023,1.1227,1.1016,1.088,1.0873,1.0792,1.0806,1.0894,1.1104,1.1253,1.1409,1.1558,1.1619,1.1619,1.1619,1.1619,1.1619,1.1619,1.1619,1.1619,0.0,0.0,0.0,0.0,0.0,0.0,0.0,-0.2455,-0.2428,0.0,0.0,0.0,-0.2348,-0.2338,-0.2333,-0.2333,-0.2333,-0.2333,-0.2333,-0.2333,-0.2333,-0.2333,-0.2333,-0.2333,-0.2333,-0.2333,-0.2333,-0.2333,-0.2333,-0.2333,-0.2333,-0.2333,-0.2333,-0.2333,-0.2333,-0.2187,-0.1968,-0.1968,-0.1895,-0.175,-0.1459,-0.1313,-0.1168,-0.0876,-0.073,-0.073,-0.073,-0.073,-0.0803,-0.1095,-0.1168,-0.1168,-0.1168,-0.1241,-0.1386,-0.1459,-0.1532,-0.1532,-0.1532,0.0,0.0,0.0,0.0,0.0,-0.1021,-0.0876,-0.0657,-0.0219,-0.0073,0.0,0.0,0.0,0.0,0.0,0.0,0.0,0.0,0.0,0.1021,0.3712,0.4439,0.5746,0.843,0.9085,0.9302,0.9302,0.9302,0.9302,0.9302,0.9951,1.0305,1.0281,1.0977,1.1253,1.1104,1.1104,1.1124,1.1227,1.1016,1.088,1.0873,1.0792,1.086,1.1104,1.1214,1.1314,1.1558,1.1599,1.1619,1.1619,1.1619,1.1619,1.1619,1.1619,1.1619,1.1619,0.0,0.0,0.0,0.0,0.0,0.0,-0.245,-0.2424,-0.2398,0.0,0.0,0.0,-0.2335,-0.2333,-0.2333,-0.2333,-0.2333,-0.2333,-0.2333,-0.2333,-0.2333,-0.2333,-0.2333,-0.2333,-0.2333,-0.2333,-0.2333,-0.2333,-0.2333,-0.2333,-0.2333,-0.2333,-0.2333,-0.226,-0.2187,-0.1968,-0.175,-0.1458,-0.1312,-0.1313,-0.1021,-0.0876,-0.0657,-0.0438,-0.0365,-0.0365,-0.0365,-0.0365,-0.0365,-0.0657,-0.073,-0.073,-0.0876,-0.0949,-0.0949,-0.1168,-0.1168,-0.1168,-0.1168,-0.1168,-0.1168,-0.1168,0.0,0.0,-0.0657,-0.0584,-0.0511,-0.0073,0.0,0.0,0.0,0.0,0.0,0.0,0.0,0.0,0.0,0.0,0.0948,0.3421,0.4293,0.5673,0.814,0.8941,0.9302,0.9302,0.9302,0.9302,0.9302,1.0095,1.0394,1.0195,1.0966,1.1348,1.126,1.126,1.1287,1.1348,1.1138,1.1036,1.1029,1.0887,1.0941,1.1165,1.1226,1.1396,1.1619,1.1619,1.1619,1.1619,1.1619,1.1619,1.1619,1.1619,1.1619,1.1619,0.0,0.0,0.0,0.0,0.0,0.0,0.0,-0.2393,-0.2373,0.0,-0.2276,-0.226,-0.2187,-0.2187,-0.2187,-0.2187,-0.2187,-0.2187,-0.226,-0.226,-0.226,-0.2333,-0.2333,-0.2333,-0.2333,-0.2333,-0.2333,-0.2333,-0.2333,-0.2333,-0.2333,-0.2333,-0.226,-0.226,-0.1968,-0.175,-0.1604,-0.0875,-0.0584,-0.0511,-0.0511,-0.0292,0.0,0.0,0.0,0.0,0.0,0.0,0.0,0.0,0.0,-0.0073,-0.0438,-0.0511,-0.0584,-0.0949,-0.1095,-0.1095,-0.1095,-0.1095,-0.1095,-0.1095,-0.1095,0.0,-0.0584,-0.0511,-0.0438,-0.0073,0.0,0.0,0.0,0.0,0.0,0.0,0.0146,0.0219,0.0,0.0146,0.0802,0.2403,0.4003,0.5528,0.7123,0.8502,0.9302,0.9302,0.9302,0.9302,0.9302,1.0095,1.04,1.022,1.0992,1.1416,1.1416,1.1416,1.1484,1.1613,1.1307,1.1234,1.1158,1.1016,1.1029,1.1241,1.1321,1.1477,1.1619,1.1619,1.1619,1.1619,1.1619,1.1619,1.1619,1.1619,1.1619,1.1619,0.0,0.0,0.0,0.0,0.0,0.0,0.0,-0.2361,-0.2342,-0.2342,-0.2045,-0.175,-0.1459,-0.1387,-0.1387,-0.1387,-0.1387,-0.1532,-0.1895,-0.1895,-0.2041,-0.226,-0.2333,-0.2333,-0.2333,-0.2333,-0.2333,-0.2333,-0.2333,-0.2333,-0.2333,-0.2333,-0.2187,-0.1895,-0.1822,-0.1458,-0.0802,-0.0657,-0.0438,-0.0146,-0.0146,-0.0073,0.0,0.0,0.0,0.0,0.0,0.0,0.0,0.0,0.0,0.0,-0.0073,-0.0146,-0.0146,-0.0219,-0.0219,-0.0219,-0.0219,-0.0219,-0.0219,-0.0219,-0.0219,0.0,-0.0146,-0.0146,-0.0073,0.0,0.0,0.0,0.0,0.0,0.0,0.0,0.1021,0.1384,0.0146,0.1094,0.2475,0.4075,0.5601,0.7123,0.8724,0.9157,0.9302,0.9302,0.9302,0.9302,0.9302,1.0095,1.0515,1.0419,1.1142,1.1572,1.1572,1.1572,1.1592,1.1613,1.1307,1.1234,1.1158,1.1016,1.1029,1.1241,1.1321,1.1477,1.1619,1.1619,1.1619,1.1619,1.1619,1.1619,1.1619,1.1619,1.1619,1.1619,0.0,0.0,0.0,0.0,0.0,0.0,0.0,0.0,-0.2041,-0.2041,-0.175,-0.1459,-0.1241,-0.1168,-0.1168,-0.1168,-0.1168,-0.1314,-0.1459,-0.1532,-0.1677,-0.2041,-0.2041,-0.2114,-0.226,-0.2333,-0.2333,-0.2333,-0.2333,-0.2333,-0.2333,-0.2333,-0.2114,-0.1822,-0.1604,-0.1167,-0.0584,-0.0365,-0.0219,0.0,0.0,0.0,0.0,0.0,0.0,0.0,0.0,0.0,0.0,0.0,0.0,0.0,0.0,0.0,0.0,0.0,0.0,0.0,0.0,0.0,0.0,0.0,0.0,0.0,0.0,0.0,0.0,0.0,0.0,0.0219,0.1021,0.051,0.0219,0.1021,0.182,0.2039,0.1239,0.2475,0.4073,0.5673,0.6543,0.7634,0.9157,0.9302,0.9302,0.9302,0.9302,0.9302,0.9302,0.9879,1.0311,1.0455,1.1038,1.1404,1.1619,1.1619,1.1619,1.1613,1.1307,1.1275,1.1274,1.1124,1.1138,1.1287,1.1436,1.1552,1.1619,1.1619,1.1619,1.1619,1.1619,1.1619,1.1619,1.1619,1.1619,1.1619,-0.2406,0.0,0.0,0.0,0.0,0.0,0.0,0.0,-0.1677,-0.1604,-0.1313,-0.1022,-0.0949,-0.0949,-0.0949,-0.0949,-0.0949,-0.1022,-0.1095,-0.1095,-0.124,-0.1677,-0.1677,-0.1822,-0.2114,-0.2114,-0.2114,-0.2114,-0.2114,-0.2114,-0.2114,-0.2114,-0.1895,-0.1531,-0.124,-0.0876,-0.0438,-0.0146,0.0,0.0,0.0,0.0,0.0,0.0,0.0,0.0,0.0,0.0,0.0,0.0,0.0,0.0,0.0,0.0,0.0,0.0,0.0,0.0,0.0,0.0,0.0,0.0,0.0,0.0073,0.0,0.0,0.0,0.0802,0.0656,0.0948,0.2475,0.1749,0.1312,0.2548,0.2983,0.3201,0.3201,0.4581,0.5963,0.6906,0.7268,0.7923,0.9157,0.9302,0.9302,0.9302,0.9302,0.9302,0.9302,0.9735,1.0167,1.0455,1.0894,1.126,1.1619,1.1619,1.1619,1.1613,1.1307,1.1246,1.1389,1.1233,1.1246,1.1402,1.1552,1.1619,1.1619,1.1619,1.1619,1.1619,1.1619,1.1619,1.1619,1.1619,1.1619,1.1619,-0.2343,-0.2341,0.0,0.0,0.0,0.0,0.0,0.0,-0.1168,-0.0803,-0.073,-0.0511,-0.0146,-0.0146,-0.0146,-0.0146,-0.0146,-0.0292,-0.0657,-0.0657,-0.0876,-0.1241,-0.1241,-0.1314,-0.1314,-0.1314,-0.1314,-0.1314,-0.1314,-0.1314,-0.1314,-0.1314,-0.1095,-0.0729,-0.0657,-0.0438,-0.0073,0.0,0.0,0.0,0.0,0.0,0.0,0.0,0.0,0.0,0.0,0.0,0.0,0.0,0.0,0.0,0.0,0.0,0.0,0.0,0.0,0.0,0.0,0.0,0.0,0.0,0.0,0.0365,0.1748,0.0,0.0802,0.3567,0.0,0.2548,0.4148,0.0,0.0,0.4366,0.5601,0.6471,0.6471,0.7779,0.8357,0.7123,0.8213,0.9085,0.9302,0.9302,0.9302,0.9302,0.9302,0.9302,0.9302,1.0023,1.0455,1.0527,1.1181,1.1548,1.1619,1.1619,1.1619,1.1613,1.1307,1.1246,1.1389,1.1233,1.1246,1.1402,1.1552,1.1619,1.1619,1.1619,1.1619,1.1619,1.1619,1.1619,1.1619,1.1619,1.1619,1.1619,-0.1968,-0.2041,-0.1895,0.0,0.0,0.0,0.0,0.0,-0.073,-0.0292,-0.0219,-0.0219,0.0,0.0,0.0,0.0,0.0,-0.0073,-0.0219,-0.0219,-0.0438,-0.0803,-0.0876,-0.0949,-0.1168,-0.1168,-0.1168,-0.1168,-0.1168,-0.1168,0.0,0.0,-0.1022,-0.0584,-0.0584,-0.0365,0.0,0.0,0.0,0.0,0.0,0.0,0.0,0.0,0.0,0.0,0.0,0.0,0.0,0.0,0.0,0.0,0.0,0.0,0.0,0.0,0.0,0.0,0.0,0.0656,0.1311,0.1311,0.204,0.2912,0.3567,0.3203,0.313,0.4439,0.0,0.0,0.0,0.0,0.0,0.0,0.6543,0.6978,0.6978,0.8357,0.9085,0.843,0.8941,0.9302,0.9302,0.9302,0.9302,0.9302,0.9302,0.9302,0.9302,0.959,1.0023,1.0455,1.0815,1.1181,1.1619,1.1619,1.1619,1.1619,1.1402,1.1375,1.1518,1.1362,1.1382,1.1525,1.1592,1.1619,1.1619,1.1619,1.1619,1.1619,1.1619,1.1619,1.1619,1.1619,1.1619,1.1619,-0.0146,-0.0947,-0.1532,-0.1095,0.0,0.0,0.0,0.0,0.0948,0.1239,0.1312,0.1312,0.1312,0.0875,0.0802,0.1239,0.0511,0.0146,0.0583,0.0219,-0.0146,-0.0438,-0.0438,-0.0584,-0.0876,-0.0876,-0.0876,-0.0876,-0.0876,-0.0876,-0.0876,0.0,-0.073,-0.0438,-0.0438,-0.0292,0.0,0.0,0.0,0.0,0.0,0.0219,0.0583,0.0146,0.0,0.0,0.0,0.0,0.0,0.0,0.0,0.0073,0.0511,0.0656,0.0729,0.1166,0.1312,0.1312,0.1312,0.2113,0.2983,0.2983,0.3857,0.4802,0.5238,0.502,0.4947,0.5818,0.5601,0.0,0.0,0.0,0.6326,0.0,0.0,0.7634,0.7634,0.8574,0.9302,0.9302,0.9302,0.9302,0.9302,0.9302,0.9302,0.9302,0.9302,0.9302,0.9302,0.9374,0.9807,1.0455,1.0599,1.0966,1.1619,1.1619,1.1619,1.1619,1.1463,1.147,1.1613,1.1463,1.1477,1.1619,1.1619,1.1619,1.1619,1.1619,1.1619,1.1619,1.1619,1.1619,1.1619,1.1619,1.1619,1.1619,0.3848,0.1164,-0.1095,-0.0657,0.0583,0.0,0.0,0.4511,0.4511,0.4511,0.4584,0.4584,0.4584,0.313,0.2839,0.4439,0.1749,0.0656,0.2111,0.0802,0.0,0.0,0.0,0.0,-0.0073,-0.0073,-0.0073,-0.0073,-0.0073,-0.0073,0.0,0.0,0.0,0.0,0.0,0.0,0.0,0.0,0.0,0.0,0.0,0.0875,0.2039,0.0583,0.0,0.0,0.0,0.0,0.0,0.0,0.0,0.0292,0.1748,0.2257,0.2547,0.4075,0.4584,0.4584,0.4584,0.4584,0.4657,0.4657,0.4657,0.5093,0.6616,0.5746,0.5528,0.8507,0.7996,0.7417,0.8941,0.9157,0.0,0.0,0.0,0.0,0.0,0.9302,0.9302,0.9302,0.9302,0.9302,0.9302,0.9302,0.9302,0.9302,0.9302,0.9302,0.9302,0.9663,1.0095,1.0455,1.0822,1.1188,1.1619,1.1619,1.1619,1.1619,1.1463,1.147,1.1613,1.1463,1.1477,1.1619,1.1619,1.1619,1.1619,1.1619,1.1619,1.1619,1.1619,1.1619,1.1619,1.1619,1.1619,1.1619,0.4436,0.3564,0.2766,0.2912,0.3348,0.393,0.4584,0.4729,0.4729,0.4729,0.4729,0.4729,0.4729,0.4221,0.4075,0.4657,0.2766,0.1748,0.2257,0.0875,0.0,0.0,0.0,0.0,0.0,0.0,0.0,0.0,0.0,0.0,0.0,0.0,0.0,0.0,0.0,0.0,0.0,0.0,0.0,0.0073,0.1093,0.182,0.2256,0.1748,0.2184,0.313,0.313,0.313,0.2912,0.1893,0.2257,0.2985,0.2475,0.3057,0.4003,0.4511,0.4729,0.4729,0.4729,0.5456,0.6253,0.6253,0.6978,0.7851,0.843,0.814,0.8068,0.9085,0.8868,0.8646,0.923,0.9302,0.0,0.0,0.0,0.0,0.0,0.9302,0.9302,0.9302,0.9302,0.9302,0.9302,0.9302,0.9302,0.9302,0.9302,0.9302,0.9302,0.9446,0.9807,1.0455,1.0599,1.0966,1.1619,1.1619,1.1619,1.1619,1.1565,1.1565,1.1619,1.1565,1.1572,1.1619,1.1619,1.1619,1.1619,1.1619,1.1619,1.1619,1.1619,1.1619,1.1619,1.1619,1.1619,1.1619,0.6326,0.6326,0.5963,0.4875,0.5165,0.5673,0.6253,0.6326,0.6326,0.6326,0.6326,0.6326,0.6326,0.5818,0.5746,0.6253,0.4364,0.3128,0.3128,0.2258,0.1166,0.0073,0.051,0.0583,0.0,0.0,0.0,0.0,0.0,0.0,0.0,0.0,0.0,0.0,0.0,0.0,0.0,0.0,0.0292,0.0948,0.2548,0.3492,0.4,0.4,0.4291,0.4729,0.4729,0.4729,0.4511,0.3494,0.3857,0.4584,0.4146,0.4654,0.5601,0.6181,0.6326,0.6326,0.6326,0.705,0.7851,0.7851,0.8574,0.9302,0.9302,0.9302,0.9302,0.9302,0.9302,0.9302,0.9302,0.9302,0.0,0.0,0.0,0.0,0.0,0.9302,0.9302,0.9302,0.9302,0.9302,0.9302,0.9302,0.9302,0.9302,0.9302,0.9302,0.9302,0.9302,0.959,1.0239,1.0455,1.0822,1.1404,1.1548,1.1619,1.1619,1.1619,1.1619,1.1619,1.1619,1.1619,1.1619,1.1619,1.1619,1.1619,1.1619,1.1619,1.1619,1.1619,1.1619,1.1619,1.1619,1.1619,1.1619,0.9302,0.9302,0.8357,0.5456,0.6108,0.7634,0.9085,0.9302,0.9302,0.9302,0.9302,0.9302,0.9302,0.7996,0.7706,0.9157,0.6543,0.4802,0.4802,0.4729,0.3348,0.0219,0.153,0.1603,0.0,0.0,0.0,0.0,0.0,0.0,0.0,0.0,0.0,0.0,0.0,0.0,0.0,0.0073,0.1021,0.2548,0.4148,0.5673,0.6978,0.705,0.6181,0.4947,0.4947,0.4947,0.4947,0.4875,0.4875,0.5165,0.6543,0.705,0.7417,0.8868,0.9302,0.9302,0.9302,0.9302,0.9302,0.9302,0.9302,0.9302,0.9302,0.9302,0.9302,0.9302,0.9302,0.9302,0.9302,0.9302,0.9302,0.0,0.0,0.0,0.0,0.9302,0.9302,0.9302,0.9302,0.9302,0.9302,0.9302,0.9302,0.9302,0.9302,0.9302,0.9302,0.9302,0.9518,0.9879,1.0311,1.0671,1.0972,1.1404,1.1619,1.1619,1.1619,1.1619,1.1619,1.1619,1.1619,1.1619,1.1619,1.1619,1.1619,1.1619,1.1619,1.1619,1.1619,1.1619,1.1619,1.1619,1.1619,1.1619,0.9302,0.9302,0.9085,0.8285,0.843,0.8868,0.923,0.9302,0.9302,0.9302,0.9302,0.9302,0.9302,0.8941,0.8868,0.923,0.7557,0.6398,0.6398,0.531,0.3785,0.182,0.2111,0.1603,0.0,0.0,0.0,0.0,0.0,0.0,0.0,0.0,0.0,0.0,0.0,0.0,0.0073,0.1239,0.2621,0.4221,0.5818,0.6616,0.7123,0.8285,0.843,0.814,0.814,0.814,0.7923,0.6761,0.7195,0.7996,0.7268,0.7779,0.8796,0.9157,0.9302,0.9302,0.9302,0.9302,0.9302,0.9302,0.9302,0.9302,0.9302,0.9302,0.9302,0.9302,0.9302,0.9302,0.9302,0.9302,0.9302,0.0,0.0,0.0,0.9302,0.9302,0.9302,0.9302,0.9302,0.9302,0.9302,0.9302,0.9302,0.9302,0.9302,0.9302,0.9302,0.9302,0.9518,0.9879,1.0311,1.0671,1.0972,1.1404,1.1619,1.1619,1.1619,1.1619,1.1619,1.1619,1.1619,1.1619,1.1619,1.1619,1.1619,1.1619,1.1619,1.1619,1.1619,1.1619,1.1619,1.1619,1.1619,1.1619,0.9302,0.9302,0.9302,0.9302,0.9302,0.9302,0.9302,0.9302,0.9302,0.9302,0.9302,0.9302,0.9302,0.9302,0.9302,0.9302,0.8502,0.7706,0.705,0.6833,0.567,0.3421,0.4,0.3274,0.1021,0.1021,0.0656,0.0,0.0,0.0,0.0,0.0,0.0,0.0,0.0,0.0,0.0146,0.2403,0.3857,0.4875,0.7123,0.7996,0.0,0.8941,0.9302,0.9302,0.9302,0.9302,0.9157,0.8285,0.8574,0.9157,0.8285,0.8574,0.9302,0.9302,0.9302,0.9302,0.9302,0.9302,0.9302,0.9302,0.9302,0.9302,0.9302,0.9302,0.9302,0.9302,0.9302,0.9302,0.9302,0.9302,0.9302,0.9302,0.0,0.9302,0.9302,0.9302,0.9302,0.9302,0.9302,0.9302,0.9302,0.9302,0.9302,0.9302,0.9302,0.9302,0.9302,0.9302,0.9374,0.9663,1.0023,1.0383,1.075,1.1188,1.1404,1.1619,1.1619,1.1619,1.1619,1.1619,1.1619,1.1619,1.1619,1.1619,1.1619,1.1619,1.1619,1.1619,1.1619,1.1619,1.1619,1.1619,1.1619,1.1619,0.9302,0.9302,0.9302,0.9302,0.9302,0.9302,0.9302,0.9302,0.9302,0.9302,0.9302,0.9302,0.9302,0.9302,0.9302,0.9302,0.9302,0.8724,0.7417,0.8574,0.7996,0.5093,0.6253,0.5597,0.2692,0.2403,0.1676,0.0292,0.0073,0.0,0.0,0.0,0.0,0.0,0.0,0.0,0.1094,0.3857,0.5093,0.5528,0.8213,0.9302,0.9302,0.9302,0.9302,0.9302,0.9302,0.9302,0.9302,0.9302,0.9302,0.9302,0.9302,0.9302,0.9302,0.9302,0.9302,0.9302,0.9302,0.9302,0.9302,0.9302,0.9302,0.9302,0.9302,0.9302,0.9302,0.9302,0.9302,0.9302,0.9302,0.9302,0.9302,0.9302,0.9302,0.9302,0.9302,0.9302,0.9302,0.9302,0.9302,0.0,0.9302,0.9302,0.9302,0.9302,0.9302,0.9302,0.9302,0.9302,0.9302,0.9302,0.9663,1.0095,1.0455,1.0822,1.1188,1.1548,1.1548,1.1619,1.1619,1.1619,1.1619,1.1619,1.1619,1.1619,1.1619,1.1619,1.1619,1.1619,1.1619,1.1619,1.1619,1.1619,1.1619,1.1619,0.9302,0.9302,0.9302,0.9302,0.9302,0.9302,0.9302,0.9302,0.9302,0.9302,0.9302,0.9302,0.9302,0.9302,0.9302,0.9302,0.9302,0.9157,0.8941,0.9157,0.8502,0.6688,0.6833,0.6181,0.4293,0.2983,0.2184,0.1893,0.0656,0.0,0.0,0.0,0.0,0.0,0.0,0.0,0.5818,0.6398,0.734,0.8579,0.9085,0.9302,0.9302,0.9302,0.9302,0.9302,0.9302,0.9302,0.9302,0.9302,0.9302,0.9302,0.9302,0.9302,0.9302,0.9302,0.9302,0.9302,0.9302,0.9302,0.9302,0.9302,0.9302,0.9302,0.9302,0.9302,0.9302,0.9302,0.9302,0.9302,0.9302,0.9302,0.9302,0.9302,0.9302,0.9302,0.9302,0.9302,0.9302,0.9302,0.9302,0.9302,0.9302,0.9302,0.9302,0.9302,0.9302,0.9302,0.9302,0.9302,0.9302,0.9302,0.9663,0.9951,1.0023,1.0678,1.1044,1.1116,1.1476,1.1619,1.1619,1.1619,1.1619,1.1619,1.1619,1.1619,1.1619,1.1619,1.1619,1.1619,1.1619,1.1619,1.1619,1.1619,1.1619,1.1619,0.9302,0.9302,0.9302,0.9302,0.9302,0.9302,0.9302,0.9302,0.9302,0.9302,0.9302,0.9302,0.9302,0.9302,0.9302,0.9302,0.9302,0.9302,0.9302,0.9302,0.8941,0.8213,0.8213,0.7489,0.5963,0.5162,0.4364,0.3567,0.2766,0.204,0.0,0.0,0.0,0.0,0.0,0.4364,0.0,0.6688,0.7412,0.814,0.9013,0.9302,0.9302,0.9302,0.9302,0.9302,0.9302,0.9302,0.9302,0.9302,0.9302,0.9302,0.9302,0.9302,0.9302,0.9302,0.9302,0.9302,0.9302,0.9302,0.9302,0.9302,0.9302,0.9302,0.9302,0.9302,0.9302,0.9302,0.9302,0.9302,0.9302,0.9302,0.9302,0.9302,0.9302,0.9302,0.9302,0.9302,0.9302,0.9302,0.9302,0.9302,0.9302,0.9302,0.9302,0.9302,0.9302,0.9302,0.9302,0.9302,0.9302,0.9302,0.9518,0.9663,0.9879,1.0455,1.0822,1.0972,1.1404,1.1619,1.1619,1.1619,1.1619,1.1619,1.1619,1.1619,1.1619,1.1619,1.1619,1.1619,1.1619,1.1619,1.1619,1.1619,1.1619,1.1619,0.9302,0.9302,0.9302,0.9302,0.9302,0.9302,0.9302,0.9302,0.9302,0.9302,0.9302,0.9302,0.9302,0.9302,0.9302,0.9302,0.9302,0.9302,0.9302,0.9302,0.9302,0.9302,0.9302,0.8724,0.7489,0.7195,0.6398,0.5165,0.4875,0.4068,0.2828,0.0,0.0,0.0,0.4657,0.5383,0.5746,0.6978,0.7489,0.7562,0.8796,0.9302,0.9302,0.9302,0.9302,0.9302,0.9302,0.9302,0.9302,0.9302,0.9302,0.9302,0.9302,0.9302,0.9302,0.9302,0.9302,0.9302,0.9302,0.9302,0.9302,0.9302,0.9302,0.9302,0.9302,0.9302,0.9302,0.9302,0.9302,0.9302,0.9302,0.9302,0.9302,0.9302,0.9302,0.9302,0.9302,0.9302,0.9302,0.9302,0.9302,0.9302,0.9302,0.9302,0.9302,0.9302,0.9302,0.9302,0.9302,0.9302,0.9302,0.9302,0.9302,0.9446,0.9735,1.0239,1.0599,1.0894,1.1404,1.1619,1.1619,1.1619,1.1619,1.1619,1.1619,1.1619,1.1619,1.1619,1.1619,1.1619,1.1619,1.1619,1.1619,1.1619,1.1619,1.1619,0.9302,0.9302,0.9302,0.9302,0.9302,0.9302,0.9302,0.9302,0.9302,0.9302,0.9302,0.9302,0.9302,0.9302,0.9302,0.9302,0.9302,0.9302,0.9302,0.9302,0.9302,0.9302,0.9302,0.923,0.9085,0.7706,0.6906,0.6761,0.5383,0.4557,0.429,0.0,0.5383,0.6543,0.6688,0.7562,0.8868,0.9013,0.9085,0.9085,0.923,0.9302,0.9302,0.9302,0.9302,0.9302,0.9302,0.9302,0.9302,0.9302,0.9302,0.9302,0.9302,0.9302,0.9302,0.9302,0.9302,0.9302,0.9302,0.9302,0.9302,0.9302,0.9302,0.9302,0.9302,0.9302,0.9302,0.9302,0.9302,0.9302,0.9302,0.9302,0.9302,0.9302,0.9302,0.9302,0.9302,0.9302,0.9302,0.9302,0.9302,0.9302,0.9302,0.9302,0.9302,0.9302,0.9302,0.9302,0.9302,0.9302,0.9302,0.9302,0.9302,0.9302,0.9374,1.0095,1.0527,1.0527,1.1253,1.1619,1.1619,1.1619,1.1619,1.1619,1.1619,1.1619,1.1619,1.1619,1.1619,1.1619,1.1619,1.1619,1.1619,1.1619,1.1619,1.1619,0.9302,0.9302,0.9302,0.9302,0.9302,0.9302,0.9302,0.9302,0.9302,0.9302,0.9302,0.9302,0.9302,0.9302,0.9302,0.9302,0.9302,0.9302,0.9302,0.9302,0.9302,0.9302,0.9302,0.9302,0.9302,0.8724,0.8357,0.8357,0.7779,0.6962,0.599,0.7034,0.7779,0.8357,0.8357,0.8724,0.9302,0.9302,0.9302,0.9302,0.9302,0.9302,0.9302,0.9302,0.9302,0.9302,0.9302,0.9302,0.9302,0.9302,0.9302,0.9302,0.9302,0.9302,0.9302,0.9302,0.9302,0.9302,0.9302,0.9302,0.9302,0.9302,0.9302,0.9302,0.9302,0.9302,0.9302,0.9302,0.9302,0.9302,0.9302,0.9302,0.9302,0.9302,0.9302,0.9302,0.9302,0.9302,0.9302,0.9302,0.9302,0.9302,0.9302,0.9302,0.9302,0.9302,0.9302,0.9302,0.9302,0.9302,0.9302,0.9302,0.9302,0.9446,0.9663,1.0239,1.0599,1.0822,1.1332,1.1619,1.1619,1.1619,1.1619,1.1619,1.1619,1.1619,1.1619,1.1619,1.1619,1.1619,1.1619,1.1619,1.1619,1.1619,1.1619,1.1619,0.9302,0.9302,0.9302,0.9302,0.9302,0.9302,0.9302,0.9302,0.9302,0.9302,0.9302,0.9302,0.9302,0.9302,0.9302,0.9302,0.9302,0.9302,0.9302,0.9302,0.9302,0.9302,0.9302,0.9302,0.9302,0.9302,0.9302,0.9302,0.9302,0.8709,0.7666,0.875,0.9269,0.9302,0.9302,0.9302,0.9302,0.9302,0.9302,0.9302,0.9302,0.9302,0.9302,0.9302,0.9302,0.9302,0.9302,0.9302,0.9302,0.9302,0.9302,0.9302,0.9302,0.9302,0.9302,0.9302,0.9302,0.9302,0.9302,0.9302,0.9302,0.9302,0.9302,0.9302,0.9302,0.9302,0.9302,0.9302,0.9302,0.9302,0.9302,0.9302,0.9302,0.9302,0.9302,0.9302,0.9302,0.9302,0.9302,0.9302,0.9302,0.9302,0.9302,0.9302,0.9302,0.9302,0.9302,0.9302,0.9302,0.9302,0.9302,0.9302,0.9302,0.9518,0.9879,1.0311,1.0678,1.0972,1.1404,1.1619,1.1619,1.1619,1.1619,1.1619,1.1619,1.1619,1.1619,1.1619,1.1619,1.1619,1.1619,1.1619,1.1619,1.1619,1.1619,1.1619,0.9302,0.9302,0.9302,0.9302,0.9302,0.9302,0.9302,0.9302,0.9302,0.9302,0.9302,0.9302,0.9302,0.9302,0.9302,0.9302,0.9302,0.9302,0.9302,0.9302,0.9302,0.9302,0.9302,0.9302,0.9302,0.9302,0.9302,0.9302,0.9302,0.9247,0.9068,0.9068,0.9198,0.9302,0.9302,0.9302,0.9302,0.9302,0.9302,0.9302,0.9302,0.9302,0.9302,0.9302,0.9302,0.9302,0.9302,0.9302,0.9302,0.9302,0.9302,0.9302,0.9302,0.9302,0.9302,0.9302,0.9302,0.9302,0.9302,0.9302,0.9302,0.9302,0.9302,0.9302,0.9302,0.9302,0.9302,0.9302,0.9302,0.9302,0.9302,0.9302,0.9302,0.9302,0.9302,0.9302,0.9302,0.9302,0.9302,0.9302,0.9302,0.9302,0.9302,0.9302,0.9302,0.9302,0.9302,0.9302,0.9302,0.9302,0.9302,0.9302,0.9302,0.9518,0.9879,1.0311,1.0678,1.0972,1.1404,1.1619,1.1619,1.1619,1.1619,1.1619,1.1619,1.1619,1.1619,1.1619,1.1619,1.1619,1.1619,1.1619,1.1619,1.1619,1.1619,1.1619,0.9302,0.9302,0.9302,0.9302,0.9302,0.9302,0.9302,0.9302,0.9302,0.9302,0.9302,0.9302,0.9302,0.9302,0.9302,0.9302,0.9302,0.9302,0.9302,0.9302,0.9302,0.9302,0.9302,0.9302,0.9302,0.9302,0.9302,0.9302,0.9302,0.9285,0.9253,0.9253,0.9269,0.9302,0.9302,0.9302,0.9302,0.9302,0.9302,0.9302,0.9302,0.9302,0.9302,0.9302,0.9302,0.9302,0.9302,0.9302,0.9302,0.9302,0.9302,0.9302,0.9302,0.9302,0.9302,0.9302,0.9302,0.9302,0.9302,0.9302,0.9302,0.9302,0.9302,0.9302,0.9302,0.9302,0.9302,0.9302,0.9302,0.9302,0.9302,0.9302,0.9302,0.9302,0.9302,0.9302,0.9302,0.9302,0.9302,0.9302,0.9302,0.9302,0.9302,0.9302,0.9302,0.9302,0.9302,0.9302,0.9302,0.9302,0.9302,0.9302,0.9302,0.959,1.0311,1.0455,1.0822,1.1404,1.1548,1.1619,1.1619,1.1619,1.1619,1.1619,1.1619,1.1619,1.1619,1.1619,1.1619,1.1619,1.1619,1.1619,1.1619,1.1619,1.1619,1.1619,0.9302,0.9302,0.9302,0.9302,0.9302,0.9302,0.9302,0.9302,0.9302,0.9302,0.9302,0.9302,0.9302,0.9302,0.9302,0.9302,0.9302,0.9302,0.9302,0.9302,0.9302,0.9302,0.9302,0.9302,0.9302,0.9302,0.9302,0.9302,0.9302,0.9302,0.9302,0.9302,0.9302,0.9302,0.9302,0.9302,0.9302,0.9302,0.9302,0.9302,0.9302,0.9302,0.9302,0.9302,0.9302,0.9302,0.9302,0.9302,0.9302,0.9302,0.9302,0.9302,0.9302,0.9302,0.9302,0.9302,0.9302,0.9302,0.9302,0.9302,0.9302,0.9302,0.9302,0.9302,0.9302,0.9302,0.9302,0.9302,0.9302,0.9302,0.9302,0.9302,0.9302,0.9302,0.9302,0.9302,0.9302,0.9302,0.9302,0.9302,0.9302,0.9302,0.9302,0.9302,0.9302,0.9302,0.9302,0.9302,0.9302,0.9302,0.9302,0.9302,0.9302,0.9663,1.0455,1.0527,1.0894,1.1619,1.1619,1.1619,1.1619,1.1619,1.1619,1.1619,1.1619,1.1619,1.1619,1.1619,1.1619,1.1619,1.1619,1.1619,1.1619,1.1619,1.1619,1.1619,0.9302,0.9302,0.9302,0.9302,0.9302,0.9302,0.9302,0.9302,0.9302,0.9302,0.9302,0.9302,0.9302,0.9302,0.9302,0.9302,0.9302,0.9302,0.9302,0.9302,0.9302,0.9302,0.9302,0.9302,0.9302,0.9302,0.9302,0.9302,0.9302,0.9302,0.9302,0.9302,0.9302,0.9302,0.9302,0.9302,0.9302,0.9302,0.9302,0.9302,0.9302,0.9302,0.9302,0.9302,0.9302,0.9302,0.9302,0.9302,0.9302,0.9302,0.9302,0.9302,0.9302,0.9302,0.9302,0.9302,0.9302,0.9302,0.9302,0.9302,0.9302,0.9302,0.9302,0.9302,0.9302,0.9302,0.9302,0.9302,0.9302,0.9302,0.9302,0.9302,0.9302,0.9302,0.9302,0.9302,0.9302,0.9302,0.9302,0.9302,0.9302,0.9302,0.9302,0.9302,0.9302,0.9302,0.9302,0.9302,0.9302,0.9302,0.9302,0.9302,0.9302,0.9735,1.0455,1.0527,1.0894,1.1619,1.1619,1.1619,1.1619,1.1619,1.1619,1.1619,1.1619,1.1619,1.1619,1.1619,1.1619,1.1619,1.1619,1.1619,1.1619,1.1619,1.1619,1.1619,0.9302,0.9302,0.9302,0.9302,0.9302,0.9302,0.9302,0.9302,0.9302,0.9302,0.9302,0.9302,0.9302,0.9302,0.9302,0.9302,0.9302,0.9302,0.9302,0.9302,0.9302,0.9302,0.9302,0.9302,0.9302,0.9302,0.9302,0.9302,0.9302,0.9302,0.9302,0.9302,0.9302,0.9302,0.9302,0.9302,0.9302,0.9302,0.9302,0.9302,0.9302,0.9302,0.9302,0.9302,0.9302,0.9302,0.9302,0.9302,0.9302,0.9302,0.9302,0.9302,0.9302,0.9302,0.9302,0.9302,0.9302,0.9302,0.9302,0.9302,0.9302,0.9302,0.9302,0.9302,0.9302,0.9302,0.9302,0.9302,0.9302,0.9302,0.9302,0.9302,0.9302,0.9302,0.9302,0.9302,0.9302,0.9302,0.9302,0.9302,0.9302,0.9302,0.9302,0.9302,0.9302,0.9302,0.9302,0.9302,0.9302,0.9302,0.9302,0.9302,0.959,1.0023,1.0527,1.075,1.1116,1.1619,1.1619,1.1619,1.1619,1.1619,1.1619,1.1619,1.1619,1.1619,1.1619,1.1619,1.1619,1.1619,1.1619,1.1619,1.1619,1.1619,1.1619,1.1619,0.9302,0.9302,0.9302,0.9302,0.9302,0.9302,0.9302,0.9302,0.9302,0.9302,0.9302,0.9302,0.9302,0.9302,0.9302,0.9302,0.9302,0.9302,0.9302,0.9302,0.9302,0.9302,0.9302,0.9302,0.9302,0.9302,0.9302,0.9302,0.9302,0.9302,0.9302,0.9302,0.9302,0.9302,0.9302,0.9302,0.9302,0.9302,0.9302,0.9302,0.9302,0.9302,0.9302,0.9302,0.9302,0.9302,0.9302,0.9302,0.9302,0.9302,0.9302,0.9302,0.9302,0.9302,0.9302,0.9302,0.9302,0.9302,0.9302,0.9302,0.9302,0.9302,0.9302,0.9302,0.9302,0.9302,0.9302,0.9302,0.9302,0.9302,0.9302,0.9302,0.9302,0.9302,0.9302,0.9302,0.9302,0.9302,0.9302,0.9302,0.9302,0.9302,0.9302,0.9302,0.9302,0.9302,0.9302,0.9302,0.9302,0.9302,0.9302,0.9302,0.9663,1.0095,1.0527,1.1038,1.1404,1.1619,1.1619,1.1619,1.1619,1.1619,1.1619,1.1619,1.1619,1.1619,1.1619,1.1619,1.1619,1.1619,1.1619,1.1619,1.1619,1.1619,1.1619,1.1619,0.9302,0.9302,0.9302,0.9302,0.9302,0.9302,0.9302,0.9302,0.9302,0.9302,0.9302,0.9302,0.9302,0.9302,0.9302,0.9302,0.9302,0.9302,0.9302,0.9302,0.9302,0.9302,0.9302,0.9302,0.9302,0.9302,0.9302,0.9302,0.9302,0.9302,0.9302,0.9302,0.9302,0.9302,0.9302,0.9302,0.9302,0.9302,0.9302,0.9302,0.9302,0.9302,0.9302,0.9302,0.9302,0.9302,0.9302,0.9302,0.9302,0.9302,0.9302,0.9302,0.9302,0.9302,0.9302,0.9302,0.9302,0.9302,0.9302,0.9302,0.9302,0.9302,0.9302,0.9302,0.9302,0.9302,0.9302,0.9302,0.9302,0.9302,0.9302,0.9302,0.9302,0.9302,0.9302,0.9302,0.9302,0.9302,0.9302,0.9302,0.9302,0.9302,0.9302,0.9302,0.9302,0.9302,0.9302,0.9302,0.9302,0.9302,0.9302,0.9302,0.9735,1.0239,1.0671,1.1253,1.1619,1.1619,1.1619,1.1619,1.1619,1.1619,1.1619,1.1619,1.1619,1.1619,1.1619,1.1619,1.1619,1.1619,1.1619,1.1619,1.1619,1.1619,1.1619,1.1619,0.9302,0.9302,0.9302,0.9302,0.9302,0.9302,0.9302,0.9302,0.9302,0.9302,0.9302,0.9302,0.9302,0.9302,0.9302,0.9302,0.9302,0.9302,0.9302,0.9302,0.9302,0.9302,0.9302,0.9302,0.9302,0.9302,0.9302,0.9302,0.9302,0.9302,0.9302,0.9302,0.9302,0.9302,0.9302,0.9302,0.9302,0.9302,0.9302,0.9302,0.9302,0.9302,0.9302,0.9302,0.9302,0.9302,0.9302,0.9302,0.9302,0.9302,0.9302,0.9302,0.9302,0.9302,0.9302,0.9302,0.9302,0.9302,0.9302,0.9302,0.9302,0.9302,0.9302,0.9302,0.9302,0.9302,0.9302,0.9302,0.9302,0.9302,0.9302,0.9302,0.9302,0.9302,0.9302,0.9302,0.9302,0.9302,0.9302,0.9302,0.9302,0.9302,0.9302,0.9302,0.9302,0.9302,0.9302,0.9302,0.9302,0.9302,0.9302,0.9302,1.0023,1.0743,1.1404,1.1548,1.1619,1.1619,1.1619,1.1619,1.1619,1.1619,1.1619,1.1619,1.1619,1.1619,1.1619,1.1619,1.1619,1.1619,1.1619,1.1619,1.1619,1.1619,1.1619,1.164,0.9302,0.9302,0.9302,0.9302,0.9302,0.9302,0.9302,0.9302,0.9302,0.9302,0.9302,0.9302,0.9302,0.9302,0.9302,0.9302,0.9302,0.9302,0.9302,0.9302,0.9302,0.9302,0.9302,0.9302,0.9302,0.9302,0.9302,0.9302,0.9302,0.9302,0.9302,0.9302,0.9302,0.9302,0.9302,0.9302,0.9302,0.9302,0.9302,0.9302,0.9302,0.9302,0.9302,0.9302,0.9302,0.9302,0.9302,0.9302,0.9302,0.9302,0.9302,0.9302,0.9302,0.9302,0.9302,0.9302,0.9302,0.9302,0.9302,0.9302,0.9302,0.9302,0.9302,0.9302,0.9302,0.9302,0.9302,0.9302,0.9302,0.9302,0.9302,0.9302,0.9302,0.9302,0.9302,0.9302,0.9302,0.9302,0.9302,0.9302,0.9302,0.9302,0.9302,0.9302,0.9302,0.9302,0.9302,0.9302,0.9302,0.9302,0.9302,0.9302,1.0095,1.0822,1.1619,1.1619,1.1619,1.1619,1.1619,1.1619,1.1619,1.1619,1.1619,1.1619,1.1619,1.1619,1.1619,1.1619,1.1619,1.1619,1.1619,1.1667,1.1735,1.1735,1.1782,1.187,0.9302,0.9302,0.9302,0.9302,0.9302,0.9302,0.9302,0.9302,0.9302,0.9302,0.9302,0.9302,0.9302,0.9302,0.9291,0.9269,0.9264,0.9253,0.9226,0.922,0.9237,0.9264,0.9237,0.9237,0.9264,0.9264,0.9275,0.9302,0.9302,0.9302,0.9302,0.9302,0.9302,0.9302,0.9302,0.9302,0.9302,0.9302,0.9302,0.9302,0.9302,0.9302,0.9302,0.9302,0.9302,0.9302,0.9302,0.9302,0.9302,0.9302,0.9302,0.9302,0.9302,0.9302,0.9302,0.9302,0.9302,0.9302,0.9302,0.9302,0.9302,0.9302,0.9302,0.9302,0.9302,0.9302,0.9302,0.9302,0.9302,0.9302,0.9302,0.9302,0.9302,0.9302,0.9302,0.9302,0.9302,0.9302,0.9302,0.9302,0.9302,0.9302,0.9302,0.9302,0.9302,0.9302,0.9329,0.9345,0.9345,0.9372,0.9451,0.9563,1.0185,1.0822,1.1619,1.1619,1.1619,1.1619,1.1619,1.1619,1.1619,1.1619,1.1619,1.1619,1.1619,1.1619,1.1619,1.1619,1.164,1.1667,1.1667,1.1755,1.1884,1.1884,1.1959,1.2067,0.9302,0.9302,0.9302,0.9302,0.9302,0.9302,0.9302,0.9302,0.9302,0.9302,0.9302,0.9302,0.9302,0.9302,0.9264,0.9155,0.915,0.903,0.8917,0.8906,0.896,0.9144,0.8965,0.896,0.9144,0.915,0.9198,0.9302,0.9302,0.9302,0.9302,0.9302,0.9302,0.9302,0.9302,0.9302,0.9302,0.9302,0.9302,0.9302,0.9302,0.9302,0.9302,0.9302,0.9302,0.9302,0.9302,0.9302,0.9302,0.9302,0.9302,0.9302,0.9302,0.9302,0.9302,0.9302,0.9302,0.9302,0.9302,0.9302,0.9302,0.9302,0.9302,0.9302,0.9302,0.9302,0.9302,0.9302,0.9302,0.9302,0.9302,0.9302,0.9302,0.9302,0.9302,0.9302,0.9302,0.9302,0.9302,0.9302,0.9302,0.9302,0.9302,0.9302,0.9302,0.9302,0.941,0.947,0.947,0.9579,0.9962,1.0498,1.0523,1.0822,1.1619,1.1619,1.1619,1.1619,1.1619,1.1619,1.1619,1.1619,1.1619,1.1619,1.1619,1.1619,1.1619,1.1619,1.1694,1.1816,1.1816,1.1911,1.2047,1.2047,1.2128,1.2081,0.9302,0.9302,0.9302,0.9302,0.9302,0.9302,0.9302,0.9302,0.9302,0.9302,0.9242,0.9198,0.9198,0.9128,0.8998,0.8954,0.8949,0.8933,0.8884,0.8884,0.89,0.8949,0.8906,0.8938,0.9133,0.9133,0.9188,0.9302,0.9302,0.9302,0.9302,0.9302,0.9302,0.9302,0.9302,0.9302,0.9302,0.9302,0.9302,0.9302,0.9302,0.9302,0.9302,0.9302,0.9302,0.9302,0.9302,0.9302,0.9302,0.9302,0.9302,0.9302,0.9302,0.9302,0.9302,0.9302,0.9302,0.9302,0.9302,0.9302,0.9302,0.9302,0.9302,0.9302,0.9302,0.9302,0.9302,0.9302,0.9302,0.9302,0.9302,0.9302,0.9302,0.9302,0.9302,0.9302,0.9302,0.9302,0.9302,0.9302,0.9302,0.9302,0.9302,0.9302,0.9334,0.941,0.9459,0.9519,0.9595,0.9644,1.0024,1.0785,1.0737,1.0999,1.1619,1.1619,1.1619,1.1619,1.1619,1.1619,1.1619,1.1619,1.1619,1.1619,1.1619,1.1667,1.1748,1.1748,1.1837,1.1972,1.1972,1.2067,1.2203,1.2203,1.2932,1.3847,0.9302,0.9302,0.9302,0.9302,0.9302,0.9302,0.9302,0.9302,0.9302,0.9302,0.9237,0.9188,0.9188,0.9111,0.8976,0.8944,0.8938,0.8922,0.8884,0.8884,0.8863,0.8894,0.8856,0.8894,0.9019,0.9019,0.9095,0.9253,0.9253,0.9269,0.9302,0.9302,0.9302,0.9302,0.9302,0.9302,0.9302,0.9302,0.9302,0.9302,0.9302,0.9302,0.9302,0.9302,0.9302,0.9302,0.9302,0.9302,0.9302,0.9302,0.9302,0.9302,0.9302,0.9302,0.9302,0.9302,0.9302,0.9302,0.9302,0.9302,0.9302,0.9302,0.9302,0.9302,0.9302,0.9302,0.9302,0.9302,0.9302,0.9302,0.9302,0.9302,0.9302,0.9302,0.9302,0.9302,0.9302,0.9302,0.9302,0.9302,0.9302,0.9318,0.9356,0.9362,0.941,0.9536,0.9579,0.965,0.9775,0.978,1.0143,1.0932,1.0932,1.1195,1.1762,1.1762,1.1762,1.1762,1.1762,1.1762,1.1762,1.1762,1.1762,1.1762,1.1762,1.1816,1.1904,1.1904,1.1993,1.2135,1.2135,1.2223,1.2359,1.2359,1.3403,1.4867,0.9302,0.9302,0.9302,0.9302,0.9302,0.9302,0.9302,0.9302,0.9302,0.9302,0.9302,0.9302,0.9302,0.9302,0.9258,0.9144,0.9133,0.9008,0.889,0.8884,0.8899,0.878,0.8655,0.8649,0.8769,0.8774,0.8894,0.9133,0.9133,0.9193,0.9302,0.9302,0.9302,0.9302,0.9302,0.9302,0.9302,0.9302,0.9302,0.9302,0.9302,0.9302,0.9302,0.9302,0.9302,0.9302,0.9302,0.9302,0.9302,0.9302,0.9302,0.9302,0.9302,0.9302,0.9302,0.9302,0.9302,0.9302,0.9302,0.9302,0.9302,0.9302,0.9302,0.9302,0.9302,0.9302,0.9302,0.9302,0.9302,0.9302,0.9302,0.9302,0.9302,0.9302,0.9302,0.9302,0.9302,0.9302,0.9302,0.9302,0.9307,0.9351,0.9476,0.9487,0.9541,0.9661,0.9775,0.9894,1.0014,1.0019,1.0274,1.0996,1.0996,1.1384,1.2067,1.206,1.2135,1.2135,1.2135,1.2135,1.2135,1.2135,1.2135,1.2135,1.2135,1.2135,1.206,1.206,1.2155,1.2291,1.2291,1.2379,1.2501,1.2501,1.3568,1.4944,0.9302,0.9302,0.9302,0.9302,0.9302,0.9302,0.9302,0.9302,0.9302,0.9302,0.9237,0.9188,0.9188,0.9106,0.8971,0.8938,0.8938,0.8922,0.8884,0.8884,0.8863,0.8899,0.8861,0.8899,0.9024,0.9024,0.9063,0.9133,0.9215,0.9231,0.9188,0.9269,0.9302,0.9302,0.9302,0.9302,0.9302,0.9302,0.9302,0.9302,0.9302,0.9302,0.9302,0.9302,0.9302,0.9302,0.9302,0.9302,0.9302,0.9302,0.9302,0.9302,0.9302,0.9302,0.9302,0.9302,0.9302,0.9302,0.9302,0.9302,0.9302,0.9302,0.9302,0.9302,0.9302,0.9302,0.9302,0.9302,0.9302,0.9302,0.9302,0.9302,0.9302,0.9302,0.9302,0.9302,0.9302,0.9302,0.9302,0.9302,0.9378,0.9449,0.9481,0.9563,0.9661,0.978,0.99,1.0059,1.0408,1.0408,1.0779,1.1593,1.1664,1.1875,1.2372,1.2169,1.2135,1.2135,1.2135,1.2135,1.2135,1.2135,1.2135,1.2135,1.2135,1.2121,1.2223,1.2223,1.2311,1.244,1.244,1.2467,1.2656,1.3799,1.5242,1.6846,0.9302,0.9302,0.9302,0.9302,0.9302,0.9302,0.9302,0.9302,0.9302,0.9302,0.9242,0.9198,0.9198,0.9133,0.909,0.909,0.909,0.909,0.909,0.909,0.909,0.909,0.909,0.9014,0.8992,0.8992,0.9014,0.9133,0.9204,0.9204,0.9139,0.9253,0.928,0.9237,0.9285,0.9302,0.9302,0.9302,0.9302,0.9302,0.9302,0.9302,0.9302,0.9302,0.9302,0.9302,0.9302,0.9302,0.9302,0.9302,0.9302,0.9302,0.9302,0.9302,0.9302,0.9302,0.9302,0.9302,0.9302,0.9302,0.9302,0.9302,0.9302,0.9302,0.9302,0.9302,0.9302,0.9302,0.9302,0.9302,0.9302,0.9302,0.9302,0.9302,0.9302,0.9302,0.9302,0.9345,0.9378,0.9378,0.9487,0.9579,0.9622,0.9693,0.9786,0.99,0.9976,1.0097,1.033,1.033,1.0796,1.165,1.165,1.196,1.2501,1.2325,1.2237,1.2237,1.2237,1.2237,1.2237,1.2237,1.2237,1.2237,1.2237,1.2291,1.2372,1.2372,1.2427,1.2501,1.2501,1.2881,1.3568,1.456,1.6389,1.8517,0.9302,0.9302,0.9302,0.9302,0.9302,0.9302,0.9302,0.9302,0.9302,0.9302,0.9302,0.9302,0.9302,0.9302,0.9302,0.9302,0.9302,0.9302,0.9302,0.9302,0.9302,0.9302,0.9302,0.9204,0.8917,0.8911,0.8965,0.9133,0.9144,0.9144,0.9139,0.9253,0.9247,0.9155,0.9258,0.9302,0.9302,0.9302,0.9302,0.9302,0.9302,0.9302,0.9302,0.9302,0.9302,0.9302,0.9302,0.9302,0.9302,0.9302,0.9302,0.9302,0.9302,0.9302,0.9302,0.9302,0.9302,0.9302,0.9302,0.9302,0.9302,0.9302,0.9302,0.9302,0.9302,0.9302,0.9302,0.9302,0.9302,0.9302,0.9302,0.9302,0.9307,0.9318,0.9318,0.9323,0.9334,0.9432,0.9503,0.9503,0.9612,0.9726,0.9829,0.9845,0.99,1.0014,1.0019,1.0019,1.0019,1.0019,1.0486,1.134,1.134,1.1727,1.2501,1.2501,1.2501,1.2501,1.2501,1.2501,1.2501,1.2501,1.2501,1.2501,1.2501,1.2501,1.2501,1.2501,1.2501,1.2501,1.2501,1.3491,1.4944,1.5097,1.7074,1.9811,0.9302,0.9302,0.9302,0.9302,0.9302,0.9302,0.9302,0.9302,0.9302,0.9302,0.9302,0.9302,0.9302,0.9302,0.9302,0.9302,0.9302,0.9302,0.9302,0.9302,0.9302,0.9302,0.9302,0.928,0.9231,0.9226,0.9198,0.9133,0.9226,0.922,0.9139,0.9253,0.9291,0.9269,0.9291,0.9302,0.9302,0.9302,0.9302,0.9302,0.9302,0.9302,0.9302,0.9302,0.9302,0.9302,0.9302,0.9302,0.9302,0.9302,0.9302,0.9302,0.9302,0.9302,0.9302,0.9302,0.9302,0.9302,0.9302,0.9302,0.9302,0.9302,0.9302,0.9302,0.9302,0.9302,0.9302,0.9302,0.9302,0.9302,0.9302,0.9302,0.9334,0.9432,0.9449,0.9481,0.9579,0.9612,0.9628,0.9628,0.9731,0.9813,0.9835,0.9927,0.9992,1.0019,1.0019,1.0175,1.0486,1.0486,1.0874,1.1727,1.1805,1.2037,1.2501,1.2501,1.2501,1.2501,1.2501,1.2501,1.2501,1.2501,1.2501,1.2501,1.2501,1.2501,1.2501,1.2501,1.2501,1.2501,1.2501,1.3491,1.5097,1.6389,1.8138,1.9962,0.9302,0.9302,0.9302,0.9302,0.9302,0.9302,0.9302,0.9302,0.9302,0.9302,0.9302,0.9302,0.9302,0.9302,0.9302,0.9302,0.9302,0.9302,0.9302,0.9302,0.9302,0.9302,0.9302,0.9302,0.9302,0.9302,0.9275,0.9215,0.9275,0.9247,0.9139,0.9253,0.9275,0.9226,0.928,0.9302,0.9302,0.9302,0.9302,0.9302,0.9302,0.9302,0.9302,0.9302,0.9302,0.9302,0.9302,0.9302,0.9302,0.9302,0.9302,0.9302,0.9302,0.9302,0.9302,0.9302,0.9302,0.9302,0.9302,0.9302,0.9302,0.9302,0.9302,0.9302,0.9302,0.9302,0.9302,0.9302,0.9351,0.9389,0.9389,0.9438,0.9497,0.9563,0.9574,0.9595,0.9661,0.9715,0.9748,0.9748,0.9851,0.9927,0.9927,0.9981,1.0019,1.0019,1.0019,1.0097,1.033,1.033,1.0719,1.1572,1.1572,1.1882,1.2501,1.2501,1.2501,1.2501,1.2501,1.2501,1.2501,1.2501,1.2501,1.2501,1.2501,1.2501,1.2501,1.2501,1.2501,1.2579,1.3344,1.4637,1.6312,1.791,1.9585,2.1112,0.9302,0.9302,0.9302,0.9302,0.9302,0.9302,0.9302,0.9302,0.9302,0.9302,0.9302,0.9302,0.9302,0.9302,0.9302,0.9302,0.9302,0.9302,0.9302,0.9302,0.9302,0.9302,0.9302,0.9302,0.9302,0.9302,0.9302,0.9302,0.9302,0.9258,0.9166,0.9258,0.9253,0.9166,0.9264,0.9302,0.9302,0.9302,0.9302,0.9302,0.9302,0.9302,0.9302,0.9302,0.9302,0.9302,0.9302,0.9302,0.9302,0.9302,0.9302,0.9302,0.9302,0.9302,0.9302,0.9302,0.9302,0.9302,0.9302,0.9318,0.9334,0.9334,0.9351,0.9367,0.9367,0.9351,0.934,0.9362,0.9449,0.9519,0.9519,0.9601,0.9677,0.9693,0.9699,0.9704,0.9726,0.9807,0.9867,0.9867,0.996,1.0019,1.0019,1.0019,1.0019,1.0019,1.0019,1.0019,1.0019,1.0097,1.0408,1.1184,1.134,1.1727,1.2424,1.2501,1.2501,1.2501,1.2501,1.2501,1.2501,1.2501,1.2501,1.2501,1.2501,1.2501,1.2501,1.2811,1.2881,1.3035,1.4713,1.6312,1.7986,1.9661,2.1112,2.2334,0.9302,0.9302,0.9302,0.9302,0.9302,0.9302,0.9302,0.9302,0.9302,0.9302,0.9302,0.9302,0.9302,0.9302,0.9302,0.9302,0.9302,0.9302,0.9302,0.9302,0.9302,0.9302,0.9302,0.9302,0.9302,0.9302,0.9302,0.9302,0.9302,0.9296,0.928,0.9296,0.9296,0.928,0.9296,0.9302,0.9302,0.9302,0.9302,0.9302,0.9302,0.9302,0.9302,0.9302,0.9302,0.9302,0.9302,0.9302,0.9302,0.9302,0.9302,0.9302,0.9302,0.9302,0.9302,0.9302,0.9302,0.9302,0.9302,0.9383,0.9459,0.9459,0.9541,0.9622,0.9622,0.9541,0.9492,0.9595,0.9633,0.9644,0.9644,0.9661,0.9704,0.9796,0.9813,0.9851,0.996,0.9987,0.9992,0.9992,1.0008,1.0019,1.0019,1.0019,1.0019,1.0019,1.0019,1.0019,1.0019,1.033,1.0563,1.0719,1.1417,1.1882,1.196,1.2347,1.2501,1.2501,1.2501,1.2501,1.2501,1.2501,1.2501,1.2501,1.2501,1.2501,1.2579,1.403,1.456,1.4713,1.6389,1.8062,1.9661,2.1337,2.2109,2.2334,0.9302,0.9302,0.9302,0.9302,0.9302,0.9302,0.9302,0.9302,0.9302,0.9302,0.9302,0.9302,0.9302,0.9302,0.9302,0.9302,0.9302,0.9302,0.9302,0.9302,0.9302,0.9302,0.9302,0.9302,0.9302,0.9302,0.9302,0.9302,0.9302,0.9302,0.9302,0.9302,0.9302,0.9302,0.9302,0.9302,0.9302,0.9302,0.9302,0.9302,0.9302,0.9302,0.9302,0.9302,0.9302,0.9302,0.9302,0.9302,0.9302,0.9302,0.9351,0.9405,0.9405,0.9454,0.9508,0.9508,0.9508,0.9508,0.9508,0.9546,0.959,0.959,0.9628,0.9688,0.9748,0.972,0.9682,0.9671,0.972,0.9764,0.9764,0.9818,0.9883,0.9932,0.9938,0.996,1.0014,1.0019,1.0019,1.0019,1.0019,1.0019,1.0019,1.0019,1.0019,1.0019,1.0019,1.0019,1.0019,1.0175,1.0486,1.0952,1.134,1.1805,1.2269,1.2424,1.2501,1.2501,1.2501,1.2501,1.2501,1.2501,1.2501,1.2501,1.2501,1.3035,1.3876,1.4637,1.5472,1.6465,1.8062,1.9736,2.1262,2.2035,2.2334,2.2334]}]]